GFSSGP_con_3kmhel_000.txt.gz
Helicity
12 -33 -60 -28 94 145 223 121 -22 1 7 -48 -25 19 35 34 31 25 18 22 17 -20 -44 -53 -31 -13 18 28 35 50 55 44 47 39 36 29 37 76 101 108 104 78 41 13 11 13 29 41 44
-42 -86 -49 -18 128 276 215 41 -7 -40 -23 8 36 29 53 23 -9 -1 41 0 -22 -33 -32 -33 -21 -15 8 15 24 35 42 35 42 43 47 44 57 84 78 64 57 48 36 20 4 11 39 51 63
-61 -50 -53 15 110 161 107 -20 -17 -33 -16 9 18 12 -4 -12 -6 -3 13 -10 -22 -26 -32 -17 -12 -7 6 16 10 23 25 18 19 20 19 23 50 72 61 55 52 56 53 51 57 71 68 57 28
-55 -51 -10 122 152 19 -15 -53 -23 -23 -10 4 15 71 -26 -40 -25 -13 -28 -12 -13 -30 -28 -27 -10 -3 -11 -5 11 14 21 30 32 25 21 32 47 46 46 60 67 68 65 73 81 84 78 67 61
-33 -2 113 90 84 -28 -66 -67 -14 -14 11 0 -12 -21 -8 1 -6 40 -11 -22 10 -15 -42 -45 -21 -20 -20 -2 12 33 52 64 46 28 27 41 52 53 40 42 37 37 41 54 74 75 83 77 50
9 -11 85 97 3 -38 -36 -27 21 46 26 11 33 41 21 -17 48 -19 -12 -24 -8 -11 -56 -42 -21 -13 8 20 34 47 56 61 44 30 21 15 19 18 21 26 34 46 57 55 46 41 56 40 41
19 28 52 20 -6 -17 -29 -14 25 25 18 38 49 45 2 3 -22 -19 -24 -12 -19 -12 10 1 0 11 21 27 34 54 63 61 52 40 25 33 35 21 3 -11 -5 27 43 48 39 31 13 19 41
32 42 60 30 23 15 -3 11 2 0 4 36 15 30 10 -17 31 18 3 -9 1 23 16 9 22 29 38 34 30 60 48 42 39 29 40 47 42 34 29 25 21 28 31 26 24 32 35 42 53
48 72 57 16 9 3 8 3 14 -9 5 5 20 24 -6 50 105 110 62 11 14 14 7 19 44 67 65 56 39 30 31 36 39 40 50 59 47 37 33 31 39 48 47 49 51 47 47 51 53
45 38 13 4 25 23 67 87 69 58 25 -2 -4 12 58 163 166 171 108 61 26 18 8 40 80 88 81 54 64 43 22 38 50 56 59 55 47 46 41 42 47 48 48 58 77 72 67 66 48
10 13 30 22 13 27 49 61 56 75 40 33 50 78 133 113 129 151 93 85 69 52 56 77 91 89 81 57 61 64 60 64 60 61 68 62 53 51 60 60 59 63 64 66 70 65 55 52 50
21 34 16 17 10 -3 18 14 25 65 47 39 47 106 126 121 135 111 65 86 91 98 77 77 72 71 55 42 62 71 88 89 83 77 80 76 79 76 75 79 76 78 76 71 75 73 65 57 56
34 29 29 30 31 26 15 26 30 46 26 10 74 97 119 115 82 68 49 57 65 91 97 68 76 67 55 64 82 101 99 105 108 110 111 114 100 96 100 91 90 83 79 77 76 79 77 61 48
29 15 15 9 8 6 10 8 -12 16 2 21 84 121 98 101 60 43 45 53 89 86 77 73 77 71 80 80 87 75 84 93 117 126 122 118 122 124 126 113 107 103 95 83 72 63 64 70 59
10 2 10 -25 -2 -18 -10 -24 1 46 2 33 54 91 90 69 37 50 52 100 141 118 90 96 79 60 72 71 69 68 71 92 102 102 99 108 118 124 126 123 119 114 112 100 91 79 70 67 70
14 13 14 41 6 8 -29 -39 33 11 33 40 35 65 78 43 13 -4 -8 54 90 141 111 81 61 51 44 53 46 51 62 78 90 95 114 118 123 128 135 141 126 123 133 130 124 106 98 90 80
35 5 20 34 10 2 -13 33 41 -7 5 35 -26 30 47 25 24 5 14 63 115 115 119 81 41 22 43 56 56 61 66 86 97 115 143 148 146 139 156 165 148 145 151 152 153 139 145 134 108
-7 -5 0 4 -12 -6 -35 4 42 -30 -18 -58 -36 20 67 47 47 49 38 68 98 102 107 94 43 18 38 80 81 93 79 74 92 111 145 159 193 196 218 202 186 201 193 174 179 164 160 153 135
-21 -18 -15 -7 1 -37 -18 18 64 57 58 24 19 42 79 74 55 66 52 55 84 80 86 73 59 48 42 88 96 101 109 110 115 124 155 174 207 231 266 285 265 274 271 220 233 218 179 162 166
-3 9 5 4 4 -15 18 56 97 119 111 80 46 52 76 85 60 66 69 33 11 32 39 36 39 50 73 136 167 140 128 125 126 130 140 183 205 244 298 331 352 365 357 311 279 329 303 258 267
-18 -13 -22 -21 6 27 17 78 110 85 113 86 74 56 73 81 81 24 15 3 3 -3 31 42 42 64 106 123 123 120 124 136 127 132 164 204 178 185 242 277 331 373 430 403 373 396 414 344 375
-20 8 -8 1 33 37 56 77 116 113 80 91 71 53 61 43 13 8 13 -10 2 40 44 40 69 95 116 133 132 131 122 127 142 193 190 137 117 142 184 227 270 298 350 392 442 440 512 525 487
-31 -5 11 29 57 67 83 102 119 136 128 89 54 41 42 17 17 25 -3 33 87 100 122 144 175 200 182 153 123 127 140 177 184 132 115 134 131 130 131 156 177 239 303 360 418 464 439 486 489
7 33 57 65 74 96 78 110 100 143 151 85 63 102 40 32 42 89 115 165 202 200 234 240 245 229 196 138 93 60 72 72 77 92 117 124 122 117 131 129 165 242 294 350 485 635 693 733 781
46 55 66 83 104 68 61 104 126 183 98 78 83 89 82 117 122 105 178 236 253 269 272 243 208 160 88 44 54 82 87 90 93 115 124 117 128 177 202 237 324 396 467 601 711 767 730 798 740
16 21 44 65 72 58 71 99 143 209 111 142 143 149 142 180 141 197 220 211 235 254 211 155 120 68 29 101 119 122 111 94 82 87 113 161 228 247 270 304 317 330 382 421 440 515 612 691 645
0 24 9 43 62 86 60 75 105 264 236 152 134 149 125 222 197 201 182 208 199 129 122 91 89 117 116 116 99 73 63 48 68 111 150 216 274 289 307 276 230 187 189 191 224 191 128 273 85
50 27 36 41 53 52 87 59 84 227 114 39 28 86 159 141 150 142 145 142 153 142 113 130 137 155 141 97 86 72 67 87 115 145 147 230 281 267 234 205 197 145 88 107 82 42 67 -61 -13
58 68 74 57 82 103 122 132 133 84 -9 -31 50 74 115 143 106 96 79 76 86 108 135 141 135 128 129 94 73 76 66 53 68 108 179 227 268 276 241 213 223 200 133 96 69 63 62 63 74
60 88 79 77 91 150 189 242 114 117 18 46 83 109 126 102 79 75 59 59 114 130 186 187 157 111 68 52 58 50 54 48 111 198 276 314 351 296 298 314 230 179 155 130 103 86 81 74 74

GFSSGP_con_3kmhel_003.txt.gz
Helicity
-4 -37 -48 -36 83 92 140 81 -23 -12 -29 -49 -30 -18 9 -8 -14 17 12 -4 1 -11 -45 -41 -26 -21 0 19 25 19 35 38 39 33 49 76 108 132 116 108 86 46 30 7 2 22 30 36 63
-53 -59 -30 9 118 225 181 -17 -29 -32 -12 -5 9 -6 -10 2 -14 -18 -14 -37 -26 -34 -51 -57 -45 -35 -21 9 22 21 12 16 28 32 48 62 86 99 101 86 65 46 37 44 62 91 92 92 95
-55 -43 -10 50 100 140 88 -46 -29 -11 -12 -17 4 -13 -10 17 -12 -7 -58 -31 -46 -56 -71 -72 -64 -52 -36 -10 -4 -11 -9 6 20 32 39 59 69 78 81 74 64 66 86 102 115 105 90 80 84
-50 -64 -19 81 135 -3 -35 -63 -53 -22 -10 -2 14 44 -13 -37 1 -29 -10 -27 -33 -46 -72 -75 -59 -46 -34 -14 5 11 22 27 33 31 41 44 45 65 69 63 55 65 84 94 94 92 78 80 71
-36 -12 81 113 54 -32 -73 -76 -47 -24 -13 1 0 8 4 -20 -28 25 8 -14 -22 -43 -52 -38 -35 -34 -17 -1 13 28 38 45 46 50 45 49 53 48 47 61 68 63 69 81 79 82 85 68 61
2 -16 95 68 -2 -67 -61 -55 -41 -28 -2 -2 28 15 -7 -42 21 8 5 -12 -34 -29 -34 -31 -35 -28 -12 7 27 42 57 54 54 39 22 27 37 37 30 23 27 34 37 30 22 32 42 56 73
7 27 48 4 1 -23 -38 -48 -8 12 10 5 34 22 10 -6 -1 18 6 -13 -23 -16 -12 -14 -8 -4 11 24 29 37 32 38 42 20 5 19 25 22 18 13 17 29 27 21 21 21 25 34 39
27 33 10 -17 -9 7 -28 -11 -3 2 19 13 1 3 -9 -9 17 5 -19 -29 -15 -8 -4 -1 5 22 30 25 24 22 20 25 26 17 16 22 23 23 22 18 27 33 32 27 20 26 35 42 59
67 69 37 15 6 14 -13 9 2 12 19 12 17 8 -6 72 80 51 1 -23 -27 -21 -9 0 30 49 47 31 16 9 7 20 24 29 33 30 25 25 27 38 36 36 38 41 42 41 48 53 59
31 55 55 14 -8 -4 31 40 56 51 29 24 18 4 27 131 120 87 38 12 8 11 -2 8 40 61 62 41 35 25 14 15 21 25 30 29 30 30 27 33 43 50 53 50 47 48 48 47 55
70 80 15 18 11 17 15 29 49 43 25 30 44 50 94 130 99 65 22 18 37 11 6 29 41 58 51 30 26 24 23 32 38 42 44 54 52 44 41 39 32 36 43 37 33 31 32 43 55
71 25 15 4 6 4 3 11 3 43 25 3 13 73 132 125 103 62 15 20 45 40 22 20 24 38 31 25 41 41 40 39 47 56 59 61 63 63 69 65 58 59 53 49 51 50 42 37 38
27 32 24 20 6 8 2 13 12 42 25 -4 14 85 119 95 71 41 13 -9 5 10 11 4 26 40 35 27 28 38 49 53 51 62 71 79 75 79 86 90 90 85 75 70 65 61 63 58 49
19 4 3 -4 -13 -5 0 -8 3 12 9 1 30 76 99 84 76 28 0 -7 10 10 18 15 21 26 28 25 27 30 37 35 43 62 72 71 72 72 73 72 76 79 84 82 79 79 74 70 62
26 5 -1 17 20 -1 -10 -26 6 16 -1 0 2 23 61 38 48 57 42 28 24 34 34 34 35 29 21 11 29 32 34 44 41 50 53 60 76 81 78 74 68 67 74 80 92 87 85 77 72
21 14 10 33 50 28 5 13 29 -8 0 4 6 -1 25 12 -8 -10 -4 -6 3 27 35 31 51 41 15 13 42 50 42 50 44 47 49 54 68 77 82 88 85 77 86 93 99 97 93 86 89
47 6 21 22 9 12 18 6 -1 10 27 -20 -52 -42 2 5 -24 -25 -16 3 29 54 72 58 62 34 27 19 36 45 49 58 54 45 48 52 74 94 117 123 124 121 120 133 137 128 132 120 116
5 4 -5 -1 24 20 10 42 50 35 12 -10 -2 2 22 23 9 7 20 47 66 60 63 80 90 60 55 33 38 46 50 69 70 74 81 76 97 109 135 150 166 172 183 188 208 195 181 162 143
4 13 -6 -8 8 25 30 38 101 113 122 115 69 47 57 72 37 33 53 81 95 66 77 91 80 85 70 74 71 83 90 63 56 54 66 84 108 123 141 148 124 153 202 241 253 232 224 229 207
3 5 11 11 13 13 46 94 100 165 166 127 87 89 84 96 74 58 50 21 10 38 41 66 106 116 101 83 97 113 114 102 99 95 81 94 94 91 97 116 129 135 162 171 226 278 289 260 286
-1 16 11 14 35 34 50 99 146 113 137 85 75 69 72 89 73 50 44 43 57 89 88 86 95 108 122 127 126 122 113 123 104 95 90 78 50 57 72 73 83 101 138 190 214 234 255 289 284
15 8 -8 -7 19 47 61 86 154 158 142 115 96 74 94 94 77 88 81 91 78 91 123 130 151 181 180 167 144 131 101 102 102 94 90 58 59 79 88 90 94 101 118 142 171 193 224 220 240
-2 4 11 28 45 60 90 87 125 141 141 108 116 121 135 128 116 104 104 113 165 231 231 197 194 203 172 118 109 114 108 52 36 27 21 31 39 60 73 96 126 146 142 132 137 162 191 189 207
25 43 43 56 70 88 68 83 100 141 143 146 143 197 182 120 84 117 158 216 283 275 248 216 234 204 159 125 88 39 29 64 86 55 20 23 48 71 104 132 176 199 205 207 206 238 321 362 380
43 58 71 91 111 94 78 81 159 172 171 177 174 169 141 98 127 180 239 251 238 252 224 202 177 136 79 25 -10 20 105 124 92 45 38 57 80 112 163 191 239 271 289 280 227 243 326 444 490
35 38 61 71 82 71 65 126 128 137 192 178 157 133 110 107 92 151 122 134 160 196 134 89 32 -8 12 140 178 158 129 100 49 40 69 106 110 158 194 208 204 212 229 224 211 173 199 253 292
24 51 29 58 60 57 69 85 61 153 211 139 121 120 117 108 148 102 82 88 91 70 49 37 77 115 145 145 142 115 93 55 45 51 82 96 142 245 288 283 260 246 250 224 212 133 122 63 45
55 42 47 45 45 22 56 74 84 120 156 104 34 58 90 96 118 126 119 110 124 151 141 135 173 180 146 110 100 92 74 53 45 56 82 129 238 285 270 255 274 304 314 302 291 260 156 17 -30
56 69 78 50 45 39 55 70 117 89 70 70 27 60 88 97 104 69 42 36 58 138 172 137 153 142 138 148 132 110 73 45 80 110 141 197 246 257 269 286 296 281 229 204 44 33 38 33 37
74 86 80 68 58 113 163 174 39 62 81 34 18 98 102 67 50 13 9 65 96 119 128 123 133 169 182 168 131 70 77 118 93 144 220 260 262 276 255 255 246 137 73 29 53 81 70 55 51

GFSSGP_con_3kmhel_006.txt.gz
Helicity
-9 -24 -42 -7 30 33 117 128 54 30 12 -34 -42 -44 -5 -20 -11 52 35 25 9 -8 -12 -8 -25 -11 19 19 14 19 27 27 20 39 63 80 93 96 106 98 80 69 62 61 61 54 79 101 102
-17 -33 -27 -0 7 63 133 48 37 15 8 4 -9 -15 -6 32 23 46 25 -5 -36 -43 -46 -31 -25 -15 -12 -6 -1 13 24 36 49 66 84 95 92 89 89 82 77 57 55 64 67 67 73 73 84
-36 -42 -6 22 12 91 119 9 37 25 -15 -34 -0 1 6 50 28 29 -17 -35 -49 -47 -45 -23 -20 -17 1 9 2 12 33 44 55 57 71 90 98 91 69 67 62 65 70 79 94 102 92 74 59
-25 -20 -32 -35 121 75 59 34 20 1 -6 -13 14 50 25 3 14 -22 -20 -23 -21 -18 -19 -22 -37 -27 -4 9 23 34 41 52 65 59 56 53 61 71 75 60 49 46 55 64 74 78 79 78 72
-36 -62 -4 54 97 55 35 10 -8 12 10 17 3 27 39 17 -16 -6 -7 -12 -10 -17 -19 -18 -35 -12 1 16 26 40 61 67 56 48 42 42 34 40 48 51 42 38 35 38 55 58 64 58 46
-35 -66 -0 56 79 34 13 -18 -25 -10 8 30 25 36 29 -2 10 2 -2 7 -7 -8 -15 -5 -9 -19 -7 7 22 35 44 42 45 47 39 38 49 50 53 45 38 31 32 30 30 33 32 37 43
-46 -23 43 57 43 27 12 -17 -5 18 26 23 30 15 12 15 -3 -14 -6 -4 -8 -8 2 3 -3 -0 -7 5 23 28 19 18 27 27 19 28 36 38 41 37 27 22 20 22 29 32 35 38 35
-7 13 38 38 14 37 10 -8 -3 -1 19 24 4 -3 22 11 15 5 2 -5 -8 -3 -0 -5 -5 4 28 50 37 19 8 13 22 27 27 34 30 33 37 19 52 41 37 30 28 30 34 35 43
17 5 37 37 25 46 9 6 1 13 31 23 16 16 5 48 34 10 -15 -16 -11 -1 -1 -3 6 24 29 20 28 31 27 22 20 28 38 22 39 45 34 71 47 45 39 30 26 27 23 7 19
15 8 69 38 30 32 11 16 20 32 27 27 20 2 18 59 46 30 23 17 13 18 3 11 5 16 17 19 14 17 17 19 24 25 28 29 49 60 52 64 66 58 53 43 36 28 3 -12 43
59 66 70 44 -15 9 23 36 31 21 16 10 16 22 49 49 33 29 26 20 16 12 5 3 5 9 7 12 4 4 -0 1 9 17 23 38 38 51 52 58 50 48 48 43 42 42 47 60 52
118 33 -20 -23 8 18 12 2 27 24 -13 1 -3 23 52 42 26 21 24 16 9 7 -4 -4 1 14 16 -2 -6 -15 -6 -0 -1 8 21 34 38 46 52 58 58 46 53 48 46 51 57 45 38
14 -9 10 13 9 21 20 11 5 17 -1 -12 1 23 38 32 33 25 17 16 13 -2 -11 -7 7 17 13 4 -10 -5 -0 15 15 15 23 22 22 33 46 57 55 58 56 48 44 43 45 47 44
16 7 2 -1 -4 1 19 -8 32 31 32 2 4 27 38 33 33 40 21 2 -15 -15 -3 14 24 28 24 8 4 10 23 25 28 26 26 17 16 24 31 36 40 43 47 48 48 47 45 46 49
3 -18 -12 4 1 5 23 7 -9 43 29 23 -7 11 22 31 37 30 16 -7 -17 -18 -1 32 46 41 34 37 29 29 29 23 31 31 25 10 5 11 16 25 32 43 52 49 46 52 52 50 57
-2 3 13 25 21 22 35 46 74 22 29 4 -4 -11 18 30 31 28 8 -12 -22 -16 19 51 73 60 54 52 40 25 32 33 38 42 34 35 27 30 33 39 45 48 55 56 57 57 61 58 52
2 6 8 4 33 29 26 37 82 2 -17 -9 -20 -32 -0 20 40 33 2 2 -0 15 53 79 90 73 72 85 63 50 43 29 55 55 54 51 48 56 70 70 71 76 86 90 92 90 98 101 105
21 -1 -10 16 32 40 34 49 52 34 44 19 -3 -12 -2 45 75 60 20 21 26 54 82 98 108 108 118 125 82 55 52 62 65 80 87 75 68 70 72 72 72 83 89 84 79 88 104 142 129
5 5 25 36 40 49 45 50 79 82 118 113 83 60 67 123 83 60 61 69 99 102 100 92 185 170 176 156 104 94 91 103 117 121 107 86 91 77 73 73 85 86 102 99 95 104 114 123 143
4 6 26 30 30 34 48 66 100 122 167 154 121 109 101 116 118 124 128 140 144 150 177 167 194 201 185 150 124 111 128 162 134 134 105 94 98 97 93 93 88 81 85 85 97 105 130 157 167
19 27 35 27 25 23 27 78 102 115 136 140 141 132 160 184 197 193 174 151 130 140 158 188 211 194 191 163 141 136 140 132 150 133 115 96 105 90 72 58 58 58 70 97 111 130 135 161 177
17 34 19 11 21 50 41 96 110 118 139 144 155 172 182 176 150 135 117 115 136 172 198 211 209 189 167 162 139 120 145 155 133 89 52 65 71 52 37 52 60 74 105 128 148 161 174 165 182
59 37 29 30 29 48 79 51 141 100 156 156 180 192 161 149 141 126 105 152 191 215 230 214 191 172 131 115 90 73 72 34 26 102 141 110 96 57 61 62 72 106 136 166 164 175 182 178 190
41 27 34 45 59 70 94 87 140 125 143 164 192 233 187 152 111 93 113 143 177 201 200 176 144 118 123 61 24 -12 -9 7 106 147 130 115 75 74 70 106 138 169 207 239 212 219 247 244 313
43 21 42 54 64 114 68 50 212 114 128 152 177 163 125 109 103 96 115 151 167 176 148 96 106 57 20 -32 -65 -25 108 150 152 152 147 110 84 69 67 114 167 218 231 228 217 194 172 169 175
39 52 68 70 72 71 45 76 129 95 140 172 149 99 72 83 76 95 133 137 130 124 125 99 81 54 77 117 160 159 185 170 159 144 101 63 47 52 128 160 205 235 219 197 190 274 343 301 206
28 52 38 53 49 30 60 67 72 107 142 171 115 53 55 54 75 111 100 93 62 58 52 91 129 132 142 145 179 167 163 149 117 89 48 30 59 128 145 182 211 263 265 280 265 275 252 308 281
47 40 29 49 59 32 45 29 25 110 76 108 93 70 40 54 93 116 114 89 47 78 116 142 155 176 167 169 179 176 156 137 111 63 57 98 107 121 161 205 211 209 192 220 197 129 97 57 48
54 60 77 76 66 42 14 20 177 74 64 65 79 82 67 93 132 127 105 81 43 78 114 155 174 161 170 182 180 145 117 85 80 103 124 126 127 141 153 151 152 179 197 107 76 26 -0 24 66
93 114 110 89 79 95 119 69 108 40 77 73 60 123 112 135 117 147 130 95 83 101 153 217 171 204 223 160 124 94 66 92 108 119 124 123 128 120 147 184 187 102 51 54 76 80 75 79 78

GFSSGP_con_3kmhel_009.txt.gz
Helicity
-4 -37 -13 -47 -9 -65 131 71 71 81 61 39 31 3 102 106 89 101 105 42 32 41 33 18 27 1 7 13 29 31 43 63 78 83 71 75 82 82 79 81 77 80 80 78 77 74 69 68 62
15 -12 -29 -41 -36 -15 81 34 26 79 71 20 12 -8 30 74 66 54 49 45 40 24 20 14 29 46 24 26 21 23 33 51 65 83 91 83 72 65 75 79 75 65 61 57 60 67 59 57 51
-9 -24 -21 -32 -67 46 100 -2 106 51 19 -6 36 37 12 64 66 112 65 27 17 10 24 31 34 36 32 25 29 30 42 64 80 85 77 59 53 52 52 56 67 72 61 56 68 76 76 65 51
-16 -29 -25 -88 100 73 32 66 44 32 22 -10 23 74 53 52 46 64 32 20 19 10 31 22 24 34 40 43 51 63 69 57 53 45 31 34 20 33 45 60 62 67 70 78 78 77 73 62 54
-65 -80 -53 22 74 32 34 37 -3 -0 26 19 -25 80 78 74 72 35 33 20 20 24 31 32 40 43 37 34 42 45 55 64 65 61 64 55 51 55 60 63 63 59 60 62 59 61 61 51 40
-60 -78 4 44 39 28 29 18 -9 8 14 40 -5 38 62 39 52 41 27 30 23 38 38 22 17 15 20 24 51 59 57 42 38 50 47 44 48 53 58 65 62 55 56 50 49 43 38 34 32
-62 -67 34 75 35 31 50 1 -16 4 16 5 12 31 39 29 16 -8 -5 21 28 29 24 22 33 35 30 32 33 32 24 29 37 37 36 37 45 52 55 59 58 52 47 39 32 28 27 23 25
14 8 54 33 3 71 54 -2 16 -17 46 49 38 28 15 28 5 -5 -0 20 20 12 36 47 19 29 26 43 31 26 30 34 34 35 32 25 24 28 32 46 70 61 52 44 32 25 20 13 11
-45 -25 29 13 11 50 32 20 6 49 28 25 19 66 37 60 18 16 14 24 26 24 58 23 27 13 4 14 25 31 27 32 31 34 28 20 26 41 57 106 84 67 57 37 17 9 1 -16 -25
-64 -19 68 34 28 36 16 1 -4 35 9 17 2 12 47 35 27 35 37 36 28 39 33 37 16 17 1 3 8 25 22 26 27 39 32 34 57 60 47 59 57 29 30 34 9 5 -5 -4 46
-27 57 93 41 25 11 -1 17 17 24 10 -23 -3 6 60 45 36 41 25 30 30 36 20 38 19 -0 -18 1 -21 -1 2 18 21 18 25 32 35 56 44 60 61 69 52 39 49 48 41 84 54
48 58 34 17 10 33 11 -4 3 33 7 -8 -8 41 68 38 35 36 10 38 19 39 27 19 18 5 -6 -27 -13 -7 -1 23 14 49 27 41 34 48 51 46 56 51 67 64 45 45 59 38 36
51 10 16 -10 -6 23 28 4 21 1 11 25 -1 41 50 51 42 37 10 -0 24 30 27 35 36 9 10 4 1 6 2 32 35 42 56 43 38 48 26 35 26 35 37 41 47 44 45 48 32
13 -5 -9 -6 -9 -1 21 -15 4 31 3 14 26 8 35 23 26 31 3 10 30 18 48 42 33 31 31 18 36 32 42 43 46 55 80 58 45 47 13 33 20 15 30 53 55 53 51 42 44
-4 -7 -22 -8 -7 2 21 7 27 62 26 12 24 11 11 30 24 32 15 11 8 19 15 75 28 77 52 50 63 61 85 41 43 48 56 53 45 43 36 27 25 24 41 45 48 61 62 58 51
16 21 10 19 23 14 28 53 79 28 16 18 25 14 13 29 28 39 33 20 13 -7 36 47 56 111 73 96 94 101 88 44 27 45 65 69 55 54 45 42 41 50 72 62 70 69 76 80 84
13 38 -1 46 28 20 11 49 82 39 4 -4 -8 41 36 10 34 46 28 15 8 15 14 44 109 88 106 120 100 116 86 32 55 65 87 132 73 108 81 66 60 77 83 91 75 68 71 79 83
39 2 15 21 68 -7 3 4 82 58 22 32 14 6 24 19 39 45 63 18 11 24 40 28 112 82 139 135 132 97 86 64 73 116 167 135 106 136 103 93 93 88 82 100 96 101 77 82 91
77 29 29 74 62 42 50 40 95 59 60 71 56 57 56 32 75 149 128 124 108 96 76 57 213 258 112 129 158 164 120 124 141 146 194 163 199 117 108 103 146 136 115 110 88 77 81 107 96
23 19 40 40 40 47 40 56 81 86 108 110 108 104 118 151 182 181 158 143 190 217 297 279 254 195 181 202 263 162 131 156 124 137 176 97 133 75 87 151 170 129 120 95 84 79 102 114 128
36 66 61 62 27 7 13 65 84 94 102 119 181 189 159 173 173 165 161 163 137 130 150 203 229 237 263 257 217 214 155 152 178 209 143 128 89 101 125 131 144 127 105 97 105 118 126 140 144
34 61 32 18 12 5 23 48 144 138 139 140 159 170 159 143 140 138 128 118 120 151 193 225 247 240 223 265 227 153 136 169 175 112 102 136 76 131 126 135 123 109 66 67 85 138 206 177 157
100 40 24 22 21 41 37 20 183 93 136 140 188 162 151 169 161 146 122 113 127 139 177 193 187 200 170 151 86 42 111 105 91 112 199 156 138 164 145 126 116 72 37 67 97 130 143 158 180
24 15 15 16 40 63 106 51 75 95 191 146 137 141 160 172 130 106 88 79 121 165 162 137 134 123 75 15 36 95 159 142 150 147 161 200 184 151 138 119 115 51 41 117 161 159 238 318 204
15 5 37 47 53 60 95 40 157 171 148 184 124 131 136 135 104 74 65 116 165 141 109 88 74 75 84 156 135 117 106 118 119 159 198 175 141 140 118 117 76 76 120 162 256 283 279 273 243
16 21 55 59 76 71 68 41 149 135 113 125 125 115 100 108 87 84 86 108 124 120 99 98 68 69 83 117 134 124 134 154 191 225 159 101 93 93 100 75 104 135 209 227 227 234 253 227 177
27 36 27 38 52 47 50 94 91 109 82 113 97 65 93 93 98 95 80 70 97 108 100 93 46 58 110 174 176 182 170 178 174 138 78 107 85 79 108 117 127 171 235 293 234 165 138 103 80
16 37 17 46 55 55 74 38 118 93 62 114 29 70 57 38 42 85 67 85 88 108 123 97 99 115 169 218 233 236 167 151 130 110 108 109 106 134 138 160 189 204 221 164 122 100 76 68 72
50 44 45 54 89 86 86 67 131 150 160 141 89 51 52 37 67 50 79 110 114 129 126 162 196 252 202 185 194 140 155 140 136 104 135 201 152 109 139 167 144 127 122 84 78 86 57 71 74
60 95 93 82 100 104 92 64 146 116 95 22 31 74 87 70 41 60 76 137 154 166 208 221 259 119 129 124 141 137 132 107 115 192 202 133 129 132 97 88 93 58 70 68 66 85 103 99 109

GFSSGP_con_3kmhel_012.txt.gz
Helicity
25 75 96 55 7 -38 -45 102 87 86 64 54 104 98 93 123 122 153 124 79 157 33 38 64 35 31 42 57 64 66 60 61 55 51 58 57 59 68 74 77 78 81 83 85 82 77 66 62 53
24 133 -18 7 -5 -50 46 92 114 202 125 82 67 32 92 74 14 52 99 25 59 93 57 69 59 49 55 70 67 60 63 63 52 54 47 46 59 63 60 63 67 81 85 77 68 65 61 60 63
62 124 -38 -51 -43 -7 152 86 142 31 5 36 39 105 116 95 133 145 71 74 95 97 46 69 79 83 90 80 69 62 68 68 72 70 62 61 50 45 55 62 69 74 74 63 56 54 57 63 67
-11 7 -13 -95 -43 69 39 89 57 74 38 -21 73 91 145 60 141 109 43 49 101 42 61 59 62 69 68 71 68 75 79 75 74 77 75 68 57 54 58 60 69 69 66 54 50 42 43 37 33
89 -52 -61 -41 80 53 59 54 29 72 -4 22 6 95 176 150 104 57 56 59 88 51 35 44 57 65 78 86 90 85 82 75 60 52 47 46 41 43 52 58 58 54 51 48 38 32 26 24 25
-43 -44 -20 4 99 67 47 22 4 63 19 51 39 122 170 91 79 69 60 73 78 68 36 40 48 59 71 75 71 67 59 42 37 41 41 35 35 38 50 61 67 64 63 55 45 38 32 26 22
-5 -19 -9 110 64 76 67 20 -16 13 39 30 32 135 112 84 61 23 55 75 58 54 58 37 34 48 50 45 41 39 34 32 41 38 30 28 23 32 46 64 64 64 60 47 33 22 18 12 9
127 71 82 26 2 81 75 -28 41 7 106 80 37 50 113 169 13 81 75 54 54 62 62 47 38 24 28 -9 21 25 30 29 27 16 19 23 9 4 25 48 44 44 31 23 12 -1 -9 -10 -19
58 131 36 24 11 100 54 17 18 73 56 84 75 37 175 150 57 32 41 32 50 67 45 44 58 43 54 18 0 1 16 16 22 11 21 33 1 37 36 52 50 26 4 13 14 -13 -5 6 11
-33 15 105 66 43 43 16 14 42 -8 30 31 42 65 151 107 54 53 34 36 58 90 17 64 29 35 -8 28 36 9 7 -18 -9 24 16 42 64 37 27 81 69 37 24 14 12 32 10 21 36
-24 45 67 111 67 27 27 37 22 -14 -13 8 -32 13 129 67 39 48 38 46 61 62 32 86 67 17 -9 -2 -33 12 17 31 20 96 49 44 27 64 65 72 54 69 66 37 61 53 58 58 53
17 28 24 92 74 30 22 25 6 50 41 67 91 80 132 76 57 39 34 81 47 81 110 171 36 16 3 -2 10 18 43 22 41 48 75 49 41 61 56 50 32 29 36 39 43 49 51 46 72
49 33 71 54 17 51 53 21 42 25 68 80 33 69 95 62 60 35 6 21 57 66 136 147 138 26 19 23 38 47 44 63 45 82 103 70 49 71 60 35 28 33 32 40 63 62 45 60 62
41 12 4 -11 10 7 4 -14 -2 -16 53 34 25 45 68 64 58 56 3 16 28 48 113 187 187 42 46 43 75 65 77 51 60 120 87 76 62 71 52 49 44 36 36 52 70 70 99 98 108
6 -8 -15 -19 -9 -4 10 4 -22 68 41 31 58 21 25 60 26 74 46 3 36 55 97 170 175 161 108 87 80 80 120 64 78 110 91 80 61 73 68 57 52 58 73 86 95 92 115 107 111
16 32 -17 -7 -43 -5 -3 -3 55 96 79 29 47 63 13 41 52 79 55 2 12 11 184 157 104 203 145 88 96 75 151 114 14 81 96 138 129 110 99 85 84 89 95 103 110 106 99 105 101
-18 18 -15 -15 -2 51 34 37 81 50 37 8 -18 69 45 -7 78 97 92 53 27 24 53 49 208 193 152 152 70 127 135 81 121 104 162 244 157 208 145 118 102 98 112 116 99 100 114 126 115
81 6 22 8 95 9 10 43 45 96 62 15 18 -21 69 76 29 107 74 40 68 63 109 82 176 135 130 183 139 102 93 65 110 173 211 228 156 209 172 143 144 127 136 137 151 127 119 113 102
114 111 62 72 101 35 -5 21 102 123 4 33 12 23 58 150 223 308 236 192 145 119 204 308 295 221 233 220 207 267 269 301 290 225 209 183 217 193 117 95 137 119 195 176 155 156 139 117 91
76 80 33 74 54 29 4 -21 148 126 95 80 91 128 146 186 175 204 285 401 402 293 228 172 253 330 357 326 283 208 279 227 157 177 243 270 224 129 75 93 173 199 149 142 144 134 114 99 81
31 78 101 84 39 -5 17 8 182 156 90 188 222 148 202 221 211 175 205 230 216 220 203 190 194 213 263 371 340 357 237 241 205 158 132 184 189 120 153 186 150 148 126 116 100 98 99 122 108
81 84 43 21 19 -4 83 16 112 130 158 165 199 234 216 189 175 162 153 127 121 133 168 186 194 197 186 235 175 138 117 99 135 205 212 162 129 223 216 153 143 144 151 121 114 156 153 154 145
103 36 29 20 16 25 3 24 177 136 135 144 202 183 204 220 208 198 145 123 106 90 123 160 129 135 121 118 106 94 127 130 127 118 128 179 284 194 158 161 156 154 131 128 139 159 196 224 206
29 17 20 0 10 59 -24 36 132 71 163 136 172 184 172 121 113 127 72 47 53 48 67 85 62 78 77 52 130 105 66 71 134 148 207 199 152 150 141 139 116 96 84 134 205 217 248 225 215
20 37 46 47 45 42 84 47 153 141 196 177 124 178 174 141 166 144 159 167 119 99 66 54 126 114 105 128 188 205 227 280 277 213 195 154 108 105 81 61 62 100 177 229 286 288 264 207 145
5 4 34 57 82 67 22 54 202 199 165 184 183 126 53 64 54 63 68 62 68 122 130 113 143 95 118 146 223 299 316 256 186 195 157 114 107 90 56 122 155 267 279 272 252 205 166 135 116
4 43 12 45 54 56 14 130 187 148 79 88 79 30 54 38 48 65 50 61 140 152 144 163 161 154 193 256 243 264 298 267 196 162 110 74 122 133 144 125 181 192 187 177 162 131 145 97 105
16 16 22 63 66 76 49 54 119 61 49 54 34 138 107 119 91 96 108 165 161 181 169 199 267 302 337 310 263 238 213 222 158 85 78 217 182 115 128 133 135 159 129 105 99 85 78 85 87
64 86 70 49 87 108 106 93 83 104 149 215 137 81 139 156 149 171 172 170 206 214 201 199 309 335 286 301 235 177 166 118 118 158 228 225 133 123 105 124 114 108 109 112 90 62 60 65 76
88 102 74 118 110 163 164 89 94 108 133 174 96 84 93 222 241 216 160 162 144 214 237 318 311 234 239 252 213 157 141 190 212 211 203 145 94 83 93 99 124 134 135 116 91 86 76 88 90

GFSSGP_con_3kmhel_015.txt.gz
Helicity
22 68 74 47 30 3 78 65 184 48 231 88 -5 34 71 102 81 152 75 111 94 103 79 96 80 71 74 78 78 66 48 38 47 57 64 78 83 84 80 75 72 73 79 78 76 76 75 70 59
33 72 46 30 8 41 111 134 129 114 44 144 98 11 150 142 132 130 119 66 70 90 94 86 83 71 72 74 75 63 56 61 60 67 82 83 73 66 60 52 41 49 51 51 51 53 55 60 59
45 53 50 -38 25 82 66 97 88 67 25 56 140 239 92 68 82 87 151 164 100 88 81 78 91 88 92 82 76 78 74 64 70 77 79 66 53 46 40 39 42 44 39 31 26 18 16 16 17
71 56 65 -46 41 47 132 85 76 77 145 119 89 103 226 116 100 111 148 140 100 63 69 75 79 81 77 75 78 77 76 79 71 61 46 42 42 43 42 46 44 39 37 29 24 16 15 4 -0
52 40 -74 47 95 74 56 38 55 56 82 122 145 132 88 95 36 158 92 19 69 48 45 45 43 53 67 80 90 87 72 56 39 32 32 39 47 45 52 48 44 40 34 29 24 17 12 11 11
-79 24 28 117 118 50 94 16 33 58 59 67 121 145 44 76 149 136 74 37 34 30 16 15 33 53 73 75 62 49 43 33 31 29 35 42 38 40 49 47 43 40 31 21 14 5 3 9 10
-5 11 110 99 -11 112 154 91 8 -51 46 50 83 83 102 171 84 120 49 20 43 19 1 -13 4 29 35 32 27 28 19 21 16 24 34 19 22 17 21 42 39 36 22 16 3 -11 -6 10 15
-0 33 169 123 24 126 69 112 42 90 137 -10 43 90 185 110 77 106 70 48 13 2 -4 -19 16 12 -30 -28 -6 -0 9 9 -8 10 12 11 14 -0 9 26 16 3 6 2 -5 -8 6 9 23
-9 114 36 17 66 97 76 119 61 66 135 139 101 168 175 138 160 114 64 30 33 -3 -1 2 12 -3 -17 -40 -29 -18 -12 -11 -22 -1 1 -7 5 10 13 32 30 7 21 10 -5 10 5 -2 -1
51 82 37 85 46 27 13 67 35 84 79 134 182 225 204 157 126 88 57 53 105 86 85 72 50 3 2 -10 13 -18 -27 -43 -44 -27 -0 -8 5 29 30 47 45 18 20 11 3 16 18 9 28
-25 5 34 150 24 -5 66 32 30 31 55 115 131 131 109 85 76 69 36 68 121 127 137 113 52 59 29 48 15 -1 -30 -39 -11 -4 53 32 56 68 72 53 30 34 19 38 31 31 42 37 54
56 57 39 64 112 116 81 26 10 10 35 106 174 160 108 51 28 15 1 59 124 180 224 164 120 88 45 55 55 33 44 67 64 75 91 73 63 72 78 58 28 10 31 29 39 45 34 30 41
57 55 83 64 96 159 121 16 37 37 51 83 154 162 127 83 44 9 32 87 121 236 229 223 136 130 69 74 65 110 81 86 121 109 93 91 80 64 44 30 20 14 29 42 46 48 37 51 58
67 95 54 17 64 58 43 31 30 39 65 90 130 106 104 112 97 33 17 97 144 229 224 247 197 74 75 92 68 96 100 90 114 93 80 89 78 54 50 49 48 43 48 49 52 50 50 44 61
48 27 22 10 10 -8 6 14 -29 23 102 124 107 115 104 90 96 97 30 122 133 140 481 615 391 6 10 97 105 107 85 105 85 95 95 95 115 104 118 101 83 76 71 62 56 53 58 58 59
5 -13 33 -2 17 -36 33 -21 -7 88 96 110 97 77 87 85 101 92 66 93 170 278 356 458 150 363 40 28 85 161 144 85 111 140 208 267 281 201 175 143 129 127 114 90 80 62 81 77 81
-27 10 -18 -3 56 14 31 52 81 63 48 36 67 85 20 57 128 132 111 146 142 118 245 209 191 97 60 45 100 121 124 100 125 190 235 252 267 224 185 162 155 168 143 124 112 87 89 72 67
22 19 39 92 39 34 2 -18 87 66 62 64 41 3 47 220 361 431 387 307 246 231 177 166 81 -31 -6 110 212 245 266 265 242 241 342 359 318 280 200 161 137 152 125 110 81 81 85 92 101
66 67 58 82 83 49 18 21 125 175 97 155 173 168 375 461 429 508 494 388 265 183 204 281 306 318 293 342 301 301 322 318 360 437 292 218 201 160 162 149 161 186 149 93 84 86 108 117 111
48 70 71 27 35 41 99 43 92 204 238 205 146 186 235 284 304 382 423 447 315 287 291 234 249 304 372 333 335 322 289 271 218 162 180 218 226 265 317 265 218 192 146 129 94 92 97 110 125
122 74 104 83 48 5 26 105 227 236 309 458 263 146 123 130 204 245 248 240 282 229 159 133 133 150 223 253 246 245 236 214 211 177 158 168 246 245 224 210 201 161 149 135 114 108 133 124 105
76 70 61 48 43 40 40 122 223 262 337 423 401 356 251 159 124 105 104 187 221 184 120 74 38 72 119 129 140 146 141 149 124 117 191 241 218 213 183 159 125 110 100 114 126 136 136 125 114
32 28 18 35 32 58 52 65 186 302 306 267 255 222 170 192 144 83 45 66 55 64 62 55 67 82 91 66 58 53 71 111 198 236 214 188 181 149 137 132 120 104 95 84 64 72 102 109 115
36 75 77 53 73 67 46 46 245 341 265 326 225 176 214 157 115 92 95 58 4 -8 -21 -7 44 78 67 114 185 240 289 292 265 242 211 165 100 92 104 102 76 61 89 108 108 112 122 129 133
25 58 58 79 83 70 39 108 50 170 182 205 300 290 198 135 108 88 85 59 43 36 25 61 117 133 177 200 304 322 330 364 362 298 212 149 97 97 95 69 44 56 105 132 155 180 172 162 151
30 14 36 47 62 28 36 112 182 298 334 259 169 61 75 32 48 88 72 82 96 127 178 241 199 262 290 293 304 328 340 343 313 242 169 137 168 124 84 60 85 103 103 106 127 136 118 97 100
-4 27 15 47 18 50 69 102 134 82 134 82 62 51 14 34 79 146 250 235 236 269 225 238 249 256 276 295 326 312 269 238 238 158 239 213 140 95 61 64 97 104 95 93 98 126 117 98 94
33 25 42 41 55 39 93 91 57 82 153 159 172 109 117 209 330 299 276 272 271 219 132 155 193 221 205 234 238 212 169 102 181 276 230 180 126 73 88 99 83 88 97 101 104 110 96 92 86
39 83 69 67 116 101 53 105 30 97 123 145 174 197 207 264 220 140 154 168 156 86 103 133 147 142 173 197 151 123 129 221 253 201 219 196 121 152 72 61 105 115 126 111 83 64 56 65 79
55 78 118 127 87 139 154 37 62 215 231 231 203 193 207 206 160 171 179 147 99 67 99 123 139 165 147 106 133 148 164 310 238 238 258 243 144 73 100 142 148 160 130 90 75 67 75 69 53

GFSSGP_con_3kmhel_018.txt.gz
Helicity
26 44 41 46 80 46 103 69 43 200 196 99 102 137 133 116 104 90 42 56 89 106 116 82 87 74 59 58 62 68 62 54 59 63 66 78 81 72 64 52 47 46 46 48 49 47 54 57 62
14 52 68 42 42 71 105 57 154 50 -48 -26 39 112 165 109 113 86 85 32 93 138 90 62 76 77 67 73 77 69 60 55 55 69 88 82 67 50 34 30 29 29 25 17 17 14 18 25 24
37 38 48 9 7 62 56 46 -4 10 -3 18 48 107 80 34 1 -17 22 53 104 107 68 66 80 66 70 76 71 62 56 61 80 78 69 54 48 38 31 35 38 29 25 17 14 9 15 9 11
53 51 47 36 87 43 59 61 240 163 111 100 45 131 32 -21 -14 42 41 33 114 82 62 69 73 64 74 78 73 65 69 66 58 45 42 44 47 43 43 38 26 18 11 10 6 9 10 11 11
66 43 -6 181 218 100 71 78 68 85 116 110 44 19 5 47 162 82 36 74 94 66 62 60 55 64 68 68 73 68 50 40 35 38 38 40 34 35 31 20 15 11 7 7 11 8 16 24 27
8 -21 69 27 234 177 63 47 151 222 193 107 94 73 33 46 150 31 42 42 34 42 28 23 37 46 53 61 48 36 38 31 28 24 16 22 13 9 3 4 1 0 -4 0 -9 -3 17 29 48
3 34 48 42 51 152 55 1 108 86 68 49 9 44 32 60 61 28 9 37 27 12 8 -10 -9 7 24 24 26 30 16 0 4 -3 -3 -4 -15 -12 -14 -10 -12 -14 -14 -27 -29 -18 3 13 20
-29 23 101 109 180 74 19 114 114 112 78 83 86 12 35 76 46 26 30 44 5 -17 -22 -25 -33 -30 -18 -16 -10 -20 -30 -16 -18 -14 2 1 -19 -27 -29 -25 -25 -17 -23 -38 -34 -41 -24 -20 -17
19 43 100 82 53 11 43 159 120 42 46 38 -11 42 107 86 103 108 85 44 25 -6 -14 -41 -18 -27 -33 -42 -48 -32 -32 -11 -6 -1 -2 -12 -28 -22 -19 -16 -32 -22 -23 -50 -45 -38 -14 -24 -21
30 57 58 1 -47 39 66 84 66 105 139 144 196 145 133 148 172 155 115 55 19 9 -23 -26 -2 -12 -11 -24 -14 -22 -48 -44 -27 -23 -12 0 6 -5 -3 -11 -14 -21 -14 -32 -27 -25 -16 -10 17
33 -13 19 33 10 24 69 111 59 140 30 76 111 115 119 168 164 151 103 56 45 40 11 -20 19 11 21 24 -7 -14 -17 -31 -15 -5 -3 18 19 31 3 4 4 5 2 13 6 3 12 8 12
-6 -33 44 46 28 65 43 88 48 22 19 92 124 107 106 142 162 114 83 63 114 116 92 28 39 30 34 41 31 19 13 7 -6 14 42 73 70 65 56 60 46 43 40 28 30 33 27 21 18
46 37 70 67 106 66 64 70 41 16 123 149 154 120 81 93 85 15 53 85 193 202 158 117 87 85 78 81 83 76 58 61 39 59 77 91 87 96 117 102 78 85 78 58 54 46 30 14 5
49 52 47 106 117 100 81 43 67 29 159 197 215 126 92 89 58 -1 34 121 244 248 230 211 176 119 108 101 83 123 164 134 91 90 92 105 123 149 184 166 140 121 93 74 72 64 55 37 15
31 37 11 5 11 28 68 37 -1 84 164 191 154 136 133 115 105 74 36 116 240 363 220 298 217 148 116 122 93 95 168 145 114 134 141 184 185 216 224 200 196 164 138 122 110 93 80 63 45
27 52 39 10 -24 -1 27 6 -21 51 163 135 112 140 117 97 87 11 -9 58 280 418 342 369 272 205 165 68 87 126 121 133 126 193 244 282 272 270 249 227 183 119 109 122 112 87 44 55 56
32 21 47 21 15 4 28 21 15 58 100 78 96 107 78 117 129 144 116 184 326 440 494 361 203 110 111 70 111 115 190 197 246 317 350 342 294 269 241 197 156 144 127 128 52 31 55 75 78
30 55 36 49 -11 13 33 40 119 -32 42 54 80 233 296 328 337 362 343 275 312 401 431 337 162 -23 43 108 115 233 284 320 311 311 307 327 299 246 198 162 168 161 156 136 114 90 93 91 94
12 8 90 134 50 14 43 152 135 147 200 264 348 437 412 482 487 494 470 405 391 369 378 281 91 -30 105 182 248 331 299 308 360 348 323 240 170 195 209 213 184 184 178 158 146 105 101 84 51
25 78 110 105 80 45 143 265 238 255 289 306 361 424 340 453 452 453 380 371 250 245 140 119 131 186 246 235 267 253 237 260 232 227 247 301 262 178 143 176 180 183 179 171 129 95 72 66 80
149 99 82 46 39 54 172 214 243 334 370 348 336 349 290 245 269 227 174 75 115 123 110 107 102 112 131 139 143 144 121 117 143 184 161 147 133 148 158 167 161 144 124 100 101 124 149 127 94
60 75 86 79 81 75 74 181 225 299 363 314 314 278 261 184 109 57 51 52 52 16 -6 -4 -1 19 42 72 96 93 86 100 116 121 115 135 131 124 122 129 118 120 120 135 101 93 83 90 116
26 47 43 55 63 65 116 178 247 247 259 243 201 146 67 -29 -60 -57 -18 -4 31 26 -1 5 16 7 19 39 50 57 61 104 189 222 259 249 228 242 217 191 184 170 129 125 122 111 108 83 81
77 77 102 101 110 118 150 150 212 271 281 281 161 175 20 -40 -5 9 1 37 34 4 2 30 45 58 36 97 122 142 185 239 275 269 251 293 206 257 244 191 134 115 106 97 88 110 136 131 152
56 51 67 84 98 122 79 116 135 157 241 217 211 101 68 53 36 45 91 44 36 65 80 80 141 156 189 237 263 266 277 270 260 240 256 144 176 199 173 100 65 43 49 69 78 113 147 166 161
18 23 32 43 40 40 96 108 102 172 201 137 115 95 55 83 143 123 176 190 206 225 222 195 170 157 167 183 205 219 196 156 115 90 112 133 102 115 61 40 23 31 54 71 80 103 131 156 203
8 22 18 38 27 62 78 139 86 127 163 279 238 106 200 272 272 322 294 279 258 230 206 172 143 124 146 148 141 121 91 65 88 156 188 155 169 128 115 59 80 79 61 56 80 119 137 158 144
10 1 3 2 40 102 111 123 132 137 167 152 200 230 243 249 291 296 264 212 159 119 83 108 57 85 111 128 135 134 96 91 128 203 166 185 205 165 114 106 77 71 73 86 115 133 142 157 123
-13 -3 16 38 45 80 164 159 109 126 163 255 268 286 240 262 256 267 247 190 142 115 63 100 140 123 122 129 119 91 94 119 189 193 198 218 226 240 159 257 130 70 78 86 102 99 145 142 107
18 29 40 50 54 85 99 151 52 147 216 209 150 187 208 268 287 261 146 97 81 120 166 166 128 135 121 99 97 122 131 180 198 214 222 236 187 178 157 164 136 94 89 109 111 125 148 141 112

GFSSGP_con_3kmhel_024.txt.gz
Helicity
3 7 15 74 92 49 107 138 97 65 111 71 94 82 62 63 90 91 3 -1 25 14 -10 -6 32 65 72 65 71 77 66 60 51 44 42 50 45 30 25 28 29 34 40 45 45 45 46 45 39
-3 -1 51 61 106 149 86 65 165 114 11 50 70 84 164 48 10 38 36 104 76 19 6 9 38 59 53 56 73 69 50 44 39 28 34 25 16 15 20 24 22 32 42 47 44 44 49 51 45
17 39 77 83 65 103 75 87 106 64 151 20 78 48 26 58 35 102 92 107 69 40 19 12 36 46 55 73 70 49 43 43 25 23 9 6 7 13 19 21 17 30 37 39 40 44 52 52 46
82 88 89 21 46 89 80 85 121 84 79 39 9 97 17 30 -1 19 58 76 81 38 6 8 34 54 69 55 52 47 52 34 15 -3 4 6 9 10 10 9 12 21 32 36 43 48 57 55 38
97 95 59 66 66 60 72 92 77 81 104 6 -79 -124 8 51 45 71 72 61 46 12 0 11 31 45 44 54 55 53 38 13 -5 -12 -10 -7 -8 -6 -3 2 10 10 15 15 18 18 19 20 15
125 50 92 115 143 106 139 141 114 45 45 -68 19 91 25 65 31 30 37 19 -11 9 4 5 18 34 42 49 51 30 14 -10 -16 -21 -21 -16 -17 -16 -9 -6 -9 -6 4 7 9 11 5 6 5
93 59 100 89 154 229 282 78 101 186 -9 72 22 61 50 78 3 27 11 -2 -25 -12 -3 -9 1 23 41 41 18 13 0 -11 -20 -24 -25 -27 -27 -26 -17 -6 -6 -10 -9 -4 2 10 6 -1 -7
97 92 101 103 169 264 205 219 5 -10 -31 79 41 -10 19 -17 -7 30 -3 -23 -38 -33 -34 -11 10 20 12 -2 4 9 -9 -17 -22 -22 -12 -10 -13 -24 -25 -16 -19 -17 -16 -13 -3 8 9 8 2
94 90 86 57 91 163 208 90 -12 58 100 65 26 30 18 78 40 16 -31 -46 -42 -55 -40 -16 -9 -14 -8 -13 -15 -5 -20 -22 -21 -10 1 -4 -16 -20 -22 -24 -22 -9 -4 -4 7 20 24 15 9
64 59 38 10 70 42 37 -37 -19 47 89 63 82 128 138 69 34 32 -9 -13 -44 -45 -43 -29 -27 -32 -30 -36 -26 -31 -36 -34 -19 -3 -1 -1 2 3 4 6 7 32 42 51 65 56 36 19 1
16 68 4 21 -35 -1 -26 -18 10 114 18 7 76 101 64 53 -2 35 -13 -16 -42 -36 -47 -51 -43 -45 -42 -48 -40 -40 -35 -18 -12 -2 6 21 31 27 42 53 48 54 71 66 63 52 35 25 10
39 24 -21 -42 -11 13 27 34 14 53 -18 8 60 95 34 30 -4 10 22 -5 -11 -4 -41 -27 -28 -34 -55 -43 -30 -27 -14 4 5 10 30 43 64 80 81 87 75 82 90 106 99 74 51 43 33
93 -14 -7 13 41 57 136 20 13 -26 25 70 61 90 52 35 10 3 47 6 5 -9 -30 -33 -25 -38 -40 -24 -7 -9 -8 7 24 41 61 75 85 95 106 142 146 151 149 137 115 107 74 42 21
-16 11 28 26 103 126 99 33 17 -29 57 87 110 69 57 59 38 -27 -29 -9 13 -5 6 -4 -22 -29 -14 -14 1 9 8 21 59 86 93 106 106 127 184 218 211 181 159 135 106 91 56 36 9
47 53 81 124 97 98 102 56 11 15 62 83 46 56 10 -14 -14 -3 -2 14 40 53 97 93 92 24 10 3 -1 -1 17 71 120 126 142 153 170 209 223 223 199 175 131 125 134 128 110 82 46
57 47 35 57 76 94 59 20 48 25 114 57 55 57 58 55 30 -34 -45 6 79 182 215 268 298 120 142 130 118 -22 82 134 172 187 187 201 234 246 223 197 142 133 91 76 111 89 65 49 80
68 23 41 23 37 29 45 45 74 54 103 132 111 120 108 103 102 53 15 70 199 269 382 458 431 308 232 102 248 115 137 230 248 227 218 200 201 154 102 175 75 68 94 115 83 64 53 76 124
36 41 39 27 18 82 57 47 45 101 102 127 150 164 183 154 138 130 168 256 350 395 507 547 487 363 205 235 208 194 219 193 174 160 124 164 190 142 204 169 172 183 139 119 92 84 77 71 89
40 42 44 24 50 85 27 43 57 129 183 146 174 196 225 227 202 222 247 282 363 403 486 436 354 165 104 123 120 125 115 135 102 100 147 161 188 201 190 175 160 119 91 41 34 45 90 72 80
68 54 36 97 137 88 88 99 100 157 152 120 152 202 219 238 252 214 211 221 204 192 130 77 59 64 48 41 24 46 45 50 102 151 200 204 189 166 147 124 86 72 62 102 101 89 55 51 112
94 74 55 67 126 154 110 110 131 146 173 193 208 175 129 114 120 97 97 24 -11 -18 23 19 -4 25 18 49 73 86 94 114 139 183 189 176 170 149 134 133 137 122 118 134 114 139 146 144 152
35 53 65 82 75 81 124 80 113 143 197 192 164 138 99 111 70 46 30 20 38 49 67 60 25 27 48 63 72 90 93 127 182 219 208 175 157 178 146 151 157 172 162 160 133 140 154 170 187
56 73 86 93 106 107 145 133 141 213 194 148 103 79 84 73 33 30 64 65 28 6 26 62 58 50 55 78 108 159 193 204 186 189 174 187 194 182 172 176 182 160 120 90 80 95 111 118 126
53 88 121 95 86 102 143 171 121 190 174 168 99 75 80 96 69 47 145 78 71 38 100 79 98 95 100 136 171 191 206 191 192 176 179 177 174 158 157 135 128 87 89 101 83 111 110 94 89
85 104 89 84 106 72 140 161 52 43 124 135 79 66 128 101 37 102 82 63 55 112 119 154 145 137 135 161 174 170 166 161 159 159 169 177 180 175 117 120 110 137 121 101 105 97 92 108 112
86 83 78 -11 3 32 94 67 107 21 80 109 72 120 104 89 73 115 116 155 181 187 218 192 183 134 121 138 133 136 126 131 123 123 143 139 142 124 130 158 168 158 142 144 142 145 129 118 78
41 56 53 52 46 9 64 79 78 124 194 243 217 169 131 109 102 201 214 219 230 267 224 202 151 107 81 39 72 99 96 94 103 107 116 143 156 178 187 202 224 214 180 121 154 176 102 103 95
40 35 37 54 18 29 20 59 93 113 174 249 247 193 172 198 249 238 247 271 300 277 206 175 121 66 38 33 127 119 127 122 116 129 142 154 168 192 208 233 229 194 154 169 181 117 144 99 92
54 27 47 28 35 45 34 23 57 165 191 252 213 204 231 273 254 278 347 355 324 275 221 141 144 132 89 161 151 166 152 152 150 147 140 138 156 159 194 233 230 207 195 156 163 134 114 121 135
31 31 41 51 38 65 70 38 41 59 169 255 241 260 245 250 331 366 334 310 266 186 200 188 126 85 169 156 152 153 151 147 142 129 117 124 136 157 176 207 203 162 139 121 126 128 133 162 153

GFSSGP_con_3kmhel_027.txt.gz
Helicity
25 15 11 33 52 84 139 153 101 97 104 111 138 136 96 131 134 139 26 -2 68 36 6 -0 30 50 56 57 70 79 75 62 53 55 68 64 42 33 35 34 30 37 46 50 47 46 50 47 41
25 11 15 52 86 78 69 63 190 74 41 91 113 88 122 157 96 47 -41 -47 120 99 25 3 16 37 43 55 60 73 61 48 50 53 40 24 20 23 26 30 27 31 42 46 52 54 48 37 37
28 18 45 67 88 46 50 75 222 246 186 58 115 24 98 171 43 37 -20 114 91 52 10 2 13 26 38 41 54 57 42 41 41 19 11 13 15 19 23 13 10 23 36 44 50 50 42 31 25
52 72 75 67 61 62 64 92 169 213 408 161 133 91 -16 -28 -20 -5 87 28 38 19 -0 4 14 25 35 46 57 48 47 28 1 1 7 6 10 11 8 5 20 32 36 38 34 30 29 23 15
83 71 82 89 80 70 70 130 145 99 13 -57 -31 15 -27 33 35 91 96 32 35 -2 -14 -4 8 27 38 48 53 45 23 4 1 3 -10 -7 6 13 17 17 14 18 28 33 29 21 14 12 9
102 91 112 65 77 113 121 153 213 136 -32 -56 -23 36 15 52 59 46 29 21 1 -9 -18 -8 14 32 42 52 50 30 13 -0 -4 -16 -12 -0 7 4 6 5 15 20 22 22 22 22 16 8 7
92 97 106 80 89 167 195 174 124 34 -0 -88 2 13 63 75 56 26 21 1 -30 -28 -11 -0 12 25 41 50 29 6 1 -4 -15 -14 -12 -4 -1 -0 1 4 1 -2 10 23 28 29 19 6 1
99 100 114 149 227 177 166 127 50 -11 -89 -13 8 -22 55 71 30 9 -21 -34 -39 -29 -8 -3 9 23 25 17 -3 -9 -7 -14 -14 -14 -6 5 9 11 15 -1 -6 -15 -11 15 31 34 30 29 16
72 77 94 82 110 125 114 95 -20 22 -54 -19 -20 16 48 96 37 2 -22 -60 -58 -36 -16 -3 13 5 3 -5 -18 -17 -19 -21 -14 -9 4 8 10 19 17 7 -5 5 13 35 64 70 64 41 28
69 68 44 12 59 96 49 156 12 -28 17 -14 42 87 88 49 13 -5 -37 -43 -35 -18 -13 -12 -10 -0 -10 -27 -27 -31 -24 -26 -19 -7 7 15 26 21 20 28 40 69 71 95 102 96 76 53 19
17 56 33 4 31 -2 -52 -74 -50 -21 -49 -16 37 79 56 33 -19 -25 -41 -52 -34 -7 -8 -15 -17 -23 -31 -36 -35 -29 -18 -14 -7 4 11 26 32 32 40 56 71 102 102 87 94 96 81 60 25
-0 24 -4 -109 -89 -53 -41 51 7 -10 9 10 71 127 66 23 -4 -17 -23 -19 -33 -24 -29 -25 -34 -23 -32 -28 -24 -14 -11 -2 11 23 32 36 48 66 89 106 113 121 109 122 126 107 85 83 55
42 36 -21 -38 -97 2 24 -4 -22 -19 15 34 70 43 28 2 -16 -38 -61 -69 -62 -26 -18 -18 -16 -20 -24 -12 -13 -6 5 14 28 43 60 63 82 102 113 121 132 143 141 144 143 113 74 78 64
-5 11 -0 -40 24 70 11 5 -2 -17 11 22 52 35 20 15 -0 -32 -53 -44 -35 -21 10 21 19 14 10 4 6 3 3 29 53 70 83 96 100 115 129 137 132 129 134 128 102 117 59 88 77
-14 30 17 45 69 62 37 40 -1 8 3 28 16 3 -0 -34 -48 -11 -54 -53 -21 6 62 118 128 58 49 46 40 30 -1 25 76 84 117 146 145 136 116 118 148 154 194 172 91 116 89 102 76
51 51 46 85 63 47 3 7 21 51 -16 30 20 23 18 -18 -37 -47 -51 -43 3 58 134 193 242 193 180 156 128 -12 -88 27 79 135 145 149 136 129 152 215 188 155 179 114 123 111 87 81 86
79 26 29 82 100 72 19 24 89 73 8 49 55 61 52 33 34 39 33 23 74 104 193 289 353 364 292 125 144 46 69 34 67 99 122 131 140 147 232 210 175 163 145 148 120 107 84 85 99
12 36 27 21 47 102 87 56 74 70 46 73 90 101 93 71 75 70 82 129 162 208 298 397 416 378 206 10 81 83 92 95 96 125 129 148 166 163 153 164 132 127 142 134 112 88 84 67 84
43 54 52 73 52 82 67 42 54 72 84 77 72 94 109 123 122 118 128 146 213 226 277 284 332 243 115 97 76 67 44 84 106 104 147 152 159 159 156 139 144 128 118 88 80 72 105 128 134
51 63 63 71 88 61 44 59 59 78 87 76 63 79 100 138 167 176 163 151 147 137 157 153 85 82 39 30 -5 24 67 82 116 134 182 179 149 137 142 146 131 129 142 158 152 134 94 96 127
98 69 33 50 99 96 42 36 50 83 99 96 92 84 111 123 114 100 89 83 49 28 2 2 39 31 9 -4 11 66 118 126 136 166 172 162 161 167 170 145 135 146 144 146 127 131 123 124 155
84 60 35 40 60 43 65 32 65 84 114 116 117 104 113 118 102 90 21 -9 14 10 5 19 27 17 -2 12 35 70 85 108 161 179 183 198 194 184 184 163 150 153 145 136 115 109 116 127 185
4 61 72 73 85 75 91 58 67 120 120 126 128 136 143 113 125 87 19 29 45 44 43 85 97 83 79 70 83 111 153 181 202 202 195 177 156 154 156 152 169 178 169 120 94 67 91 128 149
14 104 117 101 82 27 105 114 78 131 121 149 139 158 144 150 126 75 47 28 24 38 88 141 87 119 120 130 148 165 175 184 204 186 169 168 167 158 147 149 150 161 141 117 102 95 112 125 119
70 96 35 37 73 51 104 107 98 105 77 135 129 124 130 108 84 60 52 53 134 193 169 158 174 202 172 187 164 153 155 168 164 165 167 155 145 135 131 141 159 167 159 141 128 108 118 147 152
74 74 75 3 14 4 47 10 23 -1 91 100 113 105 101 69 50 57 85 122 148 157 186 234 218 195 171 179 149 138 172 164 142 122 111 110 113 123 142 171 178 158 163 179 127 117 145 148 125
52 64 67 66 34 11 33 38 35 87 149 165 236 226 157 87 90 106 118 188 198 226 236 221 216 191 136 141 126 133 128 130 136 121 114 118 126 142 142 136 132 159 196 181 148 171 164 159 135
42 61 36 51 8 18 21 26 36 32 84 137 195 189 155 142 142 145 205 263 280 251 223 221 180 147 108 114 115 117 149 137 118 118 130 145 142 125 122 125 156 186 227 175 153 162 119 117 108
56 49 63 46 34 19 12 12 19 31 102 158 149 158 159 137 155 214 287 326 302 257 231 208 147 94 135 115 105 158 157 136 127 137 137 141 128 114 125 136 145 180 190 159 104 100 99 113 109
48 37 38 39 27 62 58 26 24 5 32 70 111 159 158 162 221 283 303 298 277 254 215 146 76 136 118 128 177 153 134 134 147 148 135 116 106 109 116 133 148 179 142 107 110 127 127 119 138

GFSSGP_con_3kmhel_030.txt.gz
Helicity
16 16 13 24 24 36 59 78 144 104 134 122 115 188 237 372 232 196 58 59 44 36 35 24 16 9 26 53 57 50 43 47 62 51 45 41 36 39 48 41 35 34 32 34 39 39 38 36 35
29 23 16 53 26 34 38 95 122 204 162 179 193 144 223 227 107 66 94 16 7 34 74 25 15 13 35 45 42 41 45 59 60 36 35 36 41 47 35 29 21 21 28 38 42 37 33 41 45
25 24 41 34 15 19 55 81 140 163 175 195 273 114 157 219 75 16 -19 -25 58 50 58 29 28 21 28 40 43 40 50 59 41 29 31 35 35 28 20 11 16 26 34 35 39 43 42 31 28
34 53 52 10 11 80 68 101 143 145 187 187 81 155 36 29 100 123 10 59 69 42 27 27 25 23 37 39 36 39 61 46 28 25 26 26 20 17 16 11 18 23 26 27 24 22 15 10 8
51 76 40 19 46 69 73 107 92 119 108 63 -24 34 28 -32 -91 65 -10 105 -1 2 13 11 2 33 36 32 35 56 41 18 18 22 17 12 16 15 12 12 14 19 18 14 12 12 11 8 9
51 91 31 11 55 77 91 57 79 49 32 24 85 17 -29 -10 4 49 21 -18 -11 7 12 17 14 38 27 30 45 47 21 20 18 11 11 10 14 15 16 14 11 12 10 15 15 22 24 27 23
55 52 33 59 73 92 137 75 56 54 -1 -47 -35 2 21 33 4 10 3 28 3 -13 12 14 18 25 28 33 46 31 23 14 -0 2 4 16 21 23 18 13 7 1 11 18 31 40 43 47 35
87 79 53 68 44 85 102 75 91 132 39 19 4 -30 45 48 42 55 17 14 -1 7 17 9 18 9 15 34 32 16 8 -4 -1 2 12 24 23 18 12 14 14 7 26 40 57 59 57 48 40
72 51 34 80 49 85 96 146 13 -7 -18 18 21 -11 42 112 40 16 -10 -22 -4 11 6 5 6 17 23 23 21 8 -0 1 9 11 15 1 11 14 23 42 46 49 65 76 77 73 62 20 32
40 16 53 42 17 -3 104 124 45 19 7 -1 17 49 102 54 35 1 -14 -16 -20 -4 -0 5 17 22 22 13 8 1 -2 -4 4 8 10 14 18 27 43 61 74 81 74 82 90 86 60 48 47
26 21 61 14 22 -9 29 119 36 -125 -28 -14 -1 94 49 14 -24 -28 -29 -38 -33 -9 21 17 25 28 11 11 3 -4 -7 -0 10 19 20 31 22 28 36 47 53 58 55 69 85 91 97 72 44
-6 13 20 11 30 5 2 51 -31 -45 12 11 20 82 45 9 -23 -26 -25 -7 3 10 23 30 33 21 17 -2 -3 -2 4 19 26 34 31 28 32 45 47 58 66 63 75 84 97 121 102 87 68
-13 2 -15 -83 -90 -12 21 1 -16 -14 18 15 45 35 12 -4 -12 -20 -10 -0 -1 -3 10 15 22 13 8 11 11 23 32 44 47 50 60 39 47 76 78 90 85 84 89 109 101 122 117 86 91
-0 -0 -27 -38 -18 -19 -24 -19 -22 12 -2 29 25 -9 -18 -6 1 -1 -22 -18 -9 7 18 28 24 19 23 34 25 32 34 33 48 57 72 50 52 97 98 84 85 98 144 167 136 135 109 76 93
-8 26 12 -21 -39 2 -19 -24 -9 61 37 11 1 -18 -36 -58 -59 -52 -42 -23 -0 22 52 56 60 46 40 54 72 53 33 38 26 73 69 98 92 91 87 97 118 174 213 179 165 120 108 109 100
24 14 -1 45 27 17 -29 23 12 50 -17 9 24 -6 -21 -33 -39 -41 -31 -9 21 53 79 126 137 136 173 212 173 67 12 13 -11 53 68 84 114 123 142 161 148 179 177 165 152 133 109 96 79
41 9 5 22 81 19 -16 25 -13 51 -11 -9 17 28 24 9 -1 -21 -13 13 49 76 127 175 234 288 309 288 164 -159 -5 57 40 34 67 117 157 154 156 180 193 169 154 155 130 107 90 86 101
-20 17 -1 25 66 13 37 16 42 17 -14 3 18 43 57 49 36 21 26 57 73 113 141 190 252 324 259 198 -10 36 36 58 52 64 100 109 132 153 158 176 170 139 148 135 109 90 92 83 110
12 -0 36 44 79 41 32 46 47 30 34 32 20 29 54 60 53 69 81 85 128 156 167 144 191 203 124 86 42 43 33 38 55 71 103 126 146 163 167 169 154 130 136 123 111 114 130 105 118
18 32 73 62 36 26 34 13 21 21 39 46 28 31 46 73 88 110 115 143 143 140 121 104 92 55 42 28 44 21 34 33 68 93 127 151 169 192 197 173 160 143 150 148 142 135 114 114 142
46 22 27 37 77 70 33 25 23 49 63 70 70 67 66 69 99 133 138 101 76 54 48 26 17 42 48 57 50 44 56 64 82 126 164 201 208 209 194 159 165 157 145 145 122 143 118 149 116
42 62 26 21 14 30 16 15 80 66 73 74 92 83 98 103 123 124 113 73 53 47 34 31 56 77 78 53 56 60 82 94 144 174 212 212 184 160 156 163 140 124 112 117 121 127 117 111 121
60 42 29 12 -6 2 -8 -4 121 85 73 101 141 151 138 150 141 132 103 70 33 17 16 56 114 133 116 99 93 106 144 169 180 192 195 175 168 148 147 128 118 110 101 112 136 154 147 128 144
42 9 19 2 5 -11 50 36 48 64 47 126 157 151 150 142 133 117 92 68 103 108 124 134 155 138 146 132 140 168 181 166 169 187 177 172 155 147 133 111 114 129 137 152 170 160 131 133 137
-4 -53 -23 -12 -2 2 68 15 -5 123 104 92 130 139 135 136 114 102 87 81 102 130 138 130 141 185 186 186 175 175 166 173 162 178 177 146 124 104 106 130 130 150 160 170 169 148 94 95 112
-14 3 -4 8 15 12 42 -3 47 45 39 57 90 108 119 97 94 91 83 89 102 140 143 160 198 201 198 196 214 176 162 140 163 161 116 100 104 121 148 143 139 130 132 143 153 123 87 82 112
30 12 87 56 46 -1 6 22 6 37 34 71 140 178 162 112 111 102 103 105 151 159 198 217 210 229 218 215 151 144 133 145 148 133 115 120 119 134 130 112 108 109 126 143 130 83 81 91 122
61 66 31 26 3 19 22 24 9 29 56 83 137 154 124 121 133 137 126 146 187 204 255 255 249 236 242 174 121 101 134 146 129 109 115 128 129 121 116 109 109 121 133 129 92 102 73 91 94
58 39 52 47 41 37 41 33 35 27 33 57 85 119 117 120 137 140 156 193 238 250 297 281 252 255 217 141 111 133 117 125 109 117 136 145 125 109 98 98 99 108 121 120 104 80 102 110 93
68 33 22 32 27 40 39 22 34 21 21 41 59 91 85 112 145 164 200 249 280 298 287 291 265 201 165 102 109 96 134 116 120 136 133 120 100 93 88 94 95 104 121 108 107 120 152 119 92

GFSSGP_con_3kmhel_036.txt.gz
Helicity
9 5 1 30 36 29 18 15 149 196 165 291 233 339 147 192 182 212 10 300 264 175 115 88 78 59 62 68 69 75 67 60 64 73 62 44 43 40 39 28 22 24 28 30 31 29 26 28 31
13 46 16 24 31 57 9 153 201 218 182 185 406 172 280 286 110 133 322 177 146 170 88 82 77 71 59 78 68 72 56 60 68 61 48 50 45 39 32 23 19 19 26 28 28 27 26 27 28
17 52 31 21 -9 35 17 104 32 56 46 -16 52 150 207 215 215 162 94 104 146 114 106 73 64 65 86 64 71 68 64 72 57 49 51 45 36 36 34 22 23 21 23 28 29 28 29 31 47
28 24 22 19 8 1 67 50 120 61 44 140 117 122 158 215 234 94 73 166 117 94 77 69 62 82 90 69 72 79 82 65 45 54 50 41 35 32 31 30 22 24 26 20 18 23 18 24 36
18 57 16 6 -27 -33 49 151 196 302 173 60 4 41 109 126 120 76 84 85 93 149 118 60 65 71 72 76 71 81 75 47 56 56 46 38 31 26 26 25 21 20 22 19 16 9 10 11 18
1 4 35 -10 -61 118 50 152 208 206 40 42 106 86 93 48 211 70 60 80 65 133 123 76 73 62 96 90 71 79 54 50 61 53 46 36 31 25 24 21 19 20 21 23 11 -1 -7 -8 -8
-24 -20 -6 11 20 26 82 152 236 95 28 52 53 122 48 4 57 79 59 73 167 269 88 64 53 92 92 84 82 65 46 59 55 53 42 28 16 13 16 22 21 24 23 21 12 1 -5 -7 -7
5 13 42 21 12 106 111 150 113 58 52 59 52 42 52 123 164 133 122 142 123 119 26 10 41 53 94 100 82 56 49 56 50 35 7 -6 -6 4 10 25 29 33 32 32 26 14 12 18 -3
2 35 32 19 42 180 192 97 -17 8 56 122 85 49 155 118 161 185 62 126 195 67 -44 -31 -3 12 55 77 60 42 34 33 15 -6 -20 -30 -27 -15 37 43 41 41 37 37 33 24 15 66 41
14 32 16 22 11 -7 -49 90 23 50 30 28 32 34 112 56 90 89 -81 -82 3 -2 -39 -14 -49 -10 33 51 1 -11 -15 -27 -29 -22 13 -12 10 48 46 34 41 30 32 32 10 5 49 65 65
-5 35 15 19 115 -27 -78 -56 98 91 101 44 45 81 38 51 18 1 -41 -37 32 -67 -28 20 34 -13 15 14 -30 -28 -52 -40 9 1 24 32 39 32 50 14 14 4 9 36 47 48 108 84 44
13 2 12 28 -20 30 -14 -26 227 115 -9 39 54 63 59 5 4 6 18 46 -6 79 110 104 75 63 77 11 -37 4 65 118 71 38 11 28 37 36 76 121 91 58 95 80 114 143 151 98 43
8 44 10 92 62 86 73 142 110 -48 -44 9 121 46 23 19 18 -2 13 -13 37 64 81 74 60 80 9 5 106 146 60 76 35 13 38 115 146 143 172 169 134 135 204 160 174 126 98 97 85
-8 38 86 53 14 12 90 135 35 128 57 38 62 56 28 40 16 11 5 51 73 88 85 66 49 15 17 186 169 132 83 64 47 38 57 61 90 120 127 203 193 157 138 123 133 110 108 99 76
31 28 57 -1 -4 96 173 -143 -60 -22 49 19 16 32 34 0 45 72 103 141 120 71 87 45 43 13 211 172 191 177 102 43 57 71 143 120 134 148 177 143 132 112 113 129 131 117 115 91 75
52 30 9 17 28 50 168 -27 -51 -10 49 11 26 56 36 66 77 72 136 60 117 145 85 106 77 209 242 236 164 110 85 125 132 -25 -6 137 128 144 138 125 114 103 84 106 136 134 111 60 46
23 45 10 14 5 52 73 -17 -24 -15 30 43 -7 30 38 45 83 98 96 48 80 165 135 118 172 275 257 129 137 234 176 56 31 16 15 86 90 100 92 82 93 99 111 144 153 116 77 76 69
27 1 20 -34 42 5 86 28 39 25 11 34 51 45 53 48 62 83 47 70 56 188 220 135 278 240 204 131 129 108 92 37 32 24 81 53 66 61 54 98 101 83 113 158 143 110 68 55 65
16 34 -5 8 27 -1 92 0 73 42 30 46 65 62 87 83 135 151 82 70 92 299 294 203 259 186 162 123 124 96 74 69 71 91 51 46 70 62 93 128 79 65 153 179 127 145 138 114 100
11 24 31 42 11 -21 10 -5 97 76 50 45 75 104 134 140 116 131 91 93 174 297 296 295 246 160 107 106 79 83 100 80 61 85 67 94 62 85 104 154 186 246 188 134 161 190 150 148 183
36 7 58 10 34 -6 63 -4 64 86 27 13 96 93 128 139 180 118 126 149 163 314 366 337 213 137 50 34 103 139 117 116 135 132 93 130 99 138 162 172 184 169 179 185 175 158 163 223 164
18 114 5 13 22 -6 52 -20 100 58 13 20 45 95 181 147 168 167 113 128 167 347 318 259 163 48 10 102 132 133 109 110 93 93 168 161 156 166 149 199 190 172 153 135 138 153 194 196 196
-2 27 58 6 -1 10 4 -97 184 91 55 39 27 75 115 116 150 211 157 157 294 278 221 112 26 8 96 135 128 89 114 237 312 371 346 225 143 139 128 120 179 194 184 173 168 166 192 250 254
26 -20 -14 11 23 158 141 58 107 101 100 -20 36 44 58 158 247 225 223 224 143 121 58 6 20 190 267 180 184 156 218 296 272 211 198 162 220 250 285 331 312 257 217 198 182 183 228 235 213
-5 -23 15 80 -22 -33 3 49 60 133 34 87 -5 137 108 207 159 120 159 71 121 153 119 184 205 299 215 203 229 283 335 361 363 331 319 313 229 287 286 275 225 184 165 148 139 140 170 219 215
90 -5 38 19 26 71 39 -16 60 168 136 103 180 240 172 154 144 170 221 265 252 180 154 183 159 284 243 247 271 294 367 336 383 422 360 212 242 247 217 175 167 148 149 142 133 149 167 196 240
40 29 31 -9 16 -20 -7 21 110 90 87 82 193 161 144 130 162 201 196 239 237 176 173 147 202 264 276 264 372 384 392 442 386 279 239 145 234 177 207 186 170 157 149 134 122 133 135 173 200
37 50 26 21 20 13 10 -23 176 54 49 27 126 157 131 146 155 171 200 232 238 177 198 168 211 287 333 414 423 380 395 347 298 312 194 202 180 183 158 157 152 142 131 118 122 165 184 176 139
9 3 22 36 23 36 33 46 48 54 46 33 25 181 183 195 176 191 207 217 243 221 257 230 222 283 485 511 426 468 419 371 288 195 169 201 189 153 156 143 138 121 116 182 164 163 176 207 222
88 31 -4 55 33 58 53 38 46 36 23 44 22 67 201 195 178 201 212 265 285 299 303 290 246 354 442 418 466 524 355 241 139 253 153 202 186 159 144 139 120 117 174 187 177 147 166 204 228

GFSSGP_con_3kmhel_039.txt.gz
Helicity
14 27 48 58 86 95 52 32 100 106 148 206 112 24 85 125 173 172 64 130 234 232 189 162 137 89 80 68 65 66 72 70 73 77 60 56 43 34 27 29 33 40 46 44 33 29 34 28 35
16 41 85 85 69 68 47 82 40 63 41 98 171 140 169 139 120 147 285 171 204 242 236 207 123 87 69 64 62 63 69 73 81 76 48 50 41 34 42 47 47 47 45 41 33 33 38 46 59
22 36 73 70 46 66 -5 34 45 37 117 129 99 91 93 118 87 201 224 205 228 224 174 152 121 100 70 61 70 68 68 73 71 58 51 47 46 48 57 53 52 48 44 32 30 39 56 82 89
48 65 67 43 -8 52 16 80 87 152 50 69 66 119 117 150 124 149 208 205 271 220 160 128 103 75 64 62 66 76 76 61 61 52 56 51 55 51 46 37 34 32 29 25 27 28 33 46 55
65 93 69 39 2 -13 84 287 269 198 90 52 83 117 106 141 141 200 215 277 340 212 138 91 71 80 52 62 82 87 74 72 62 53 52 51 49 45 38 34 29 27 27 29 21 9 6 15 24
80 76 79 24 12 28 190 194 223 179 79 170 135 154 55 98 174 225 181 142 146 98 80 94 111 68 7 79 73 77 79 58 49 47 38 46 46 37 36 28 26 23 27 21 9 -3 -5 -7 16
44 73 61 76 51 32 153 236 128 87 108 163 62 88 65 63 148 236 221 178 368 269 165 143 117 -19 46 66 67 93 64 44 37 37 31 26 20 21 22 25 25 24 26 22 18 18 20 9 4
60 57 124 70 68 90 135 72 95 7 6 41 85 98 61 62 160 196 122 46 103 83 100 -15 -35 23 53 37 57 77 48 17 18 18 -9 1 17 25 27 28 30 34 33 34 34 45 55 27 19
12 75 109 70 12 3 3 14 179 94 11 99 153 171 203 92 152 169 171 202 258 147 8 -67 17 30 24 28 47 52 18 7 8 9 8 0 -5 8 21 37 40 34 35 30 25 58 65 55 38
68 55 50 -21 29 -2 -42 93 129 114 56 128 115 119 108 95 138 136 137 261 193 18 -83 -96 -10 0 0 -11 -1 -18 -16 -21 4 -12 -23 -38 -11 1 13 24 38 32 33 35 42 74 71 74 39
74 49 50 27 1 -15 -7 72 35 120 10 97 103 44 67 39 75 68 49 11 -63 -154 -47 -59 -20 -15 0 -7 -33 -25 -17 -17 -7 -5 -20 -39 -15 17 43 34 3 44 24 56 102 136 107 83 73
50 36 97 3 33 27 64 77 63 32 53 32 86 89 60 0 -22 1 35 -41 -160 -182 -50 -30 -21 -35 -22 -45 -24 -13 -23 -30 -9 -19 14 39 62 65 79 88 103 108 155 171 161 136 129 145 112
5 30 53 -25 31 169 176 36 71 110 128 90 65 67 2 -3 6 4 20 -14 -92 -109 36 47 21 11 -24 26 26 52 30 71 68 97 108 128 170 205 147 125 176 194 185 214 167 141 146 128 109
5 40 97 101 178 72 131 30 -46 47 23 38 26 18 -5 5 20 26 -18 11 21 67 93 112 94 22 103 133 201 172 126 106 131 126 120 129 157 151 132 178 224 199 168 164 148 140 129 118 94
83 34 22 82 147 51 89 52 -63 -29 9 31 15 -2 -17 18 33 36 9 122 160 118 72 83 34 93 190 234 239 142 133 141 210 88 85 113 134 190 204 185 168 145 112 127 143 142 136 129 111
50 45 46 3 173 20 64 35 62 10 21 0 -35 -40 -43 61 54 98 134 158 150 97 68 30 68 188 216 178 163 186 176 162 178 148 88 96 137 182 175 141 128 115 116 117 128 118 123 99 76
25 79 25 13 106 86 29 -8 27 -64 -7 39 16 -28 43 80 160 170 211 219 196 120 103 95 182 187 183 208 191 173 184 152 115 24 -24 31 46 106 157 106 100 136 137 150 117 96 80 76 56
58 77 58 17 113 138 72 -10 -39 -19 79 74 84 59 86 120 154 150 199 203 214 190 165 255 259 188 198 223 238 178 133 114 60 33 62 77 99 87 79 88 91 128 139 125 99 88 90 66 45
48 59 96 8 -1 196 133 26 24 8 57 101 96 120 122 157 137 151 142 262 304 261 248 323 293 239 256 238 202 148 120 53 33 53 95 96 86 115 112 103 74 93 119 104 109 109 110 59 60
32 62 60 84 40 97 68 58 100 36 39 153 148 157 149 189 233 206 178 313 379 355 423 360 306 200 171 187 134 122 102 69 91 100 109 109 94 115 131 143 168 170 162 171 157 133 109 100 96
138 7 95 46 15 0 29 17 119 -10 24 85 166 221 258 315 301 286 236 296 374 394 494 386 306 197 172 132 150 177 123 167 142 133 153 121 149 149 88 104 136 182 157 132 118 114 125 125 119
45 20 43 -54 2 13 30 19 67 -15 17 28 158 221 302 309 342 315 206 296 326 390 364 327 274 189 95 90 194 216 166 189 150 166 173 156 179 133 87 105 116 175 132 129 118 117 128 165 156
-24 31 29 14 37 77 52 42 30 -18 56 14 37 184 284 297 390 355 300 252 331 407 330 338 225 113 97 99 207 195 200 174 207 249 241 187 138 134 152 294 290 267 234 209 184 170 173 177 196
81 19 26 22 10 19 -23 92 -1 44 136 161 -38 -27 114 187 307 358 295 387 371 323 290 243 179 100 86 133 212 221 284 385 428 409 334 306 326 379 350 288 327 280 253 207 173 172 172 174 193
9 6 60 66 51 -48 37 78 149 95 22 145 168 -14 92 219 299 334 398 380 304 240 229 208 155 103 159 305 342 339 364 384 405 429 506 488 383 384 351 270 254 198 167 169 170 162 160 159 190
20 -20 29 21 -23 -24 75 22 -1 57 26 33 52 13 79 219 242 294 317 273 263 187 116 144 134 234 285 363 396 443 448 502 542 534 496 456 430 365 421 251 222 200 171 153 138 135 146 165 197
19 33 12 62 47 43 14 16 154 147 90 84 83 126 225 247 248 269 279 295 286 291 214 218 293 350 396 397 383 430 484 529 509 472 420 407 289 308 356 291 211 172 144 129 139 156 184 182 173
29 31 72 72 42 20 29 -2 49 82 41 56 105 190 195 203 215 279 340 350 379 363 337 265 263 336 362 408 421 464 469 430 410 406 445 262 442 217 277 222 197 156 127 147 186 155 145 160 162
37 32 64 63 59 25 67 51 16 32 28 20 131 210 227 239 263 297 333 363 346 308 241 229 268 338 433 503 489 511 475 437 350 339 454 479 257 234 202 168 140 125 125 174 149 134 112 168 199
58 28 46 84 49 63 23 27 45 46 38 44 36 138 230 285 312 322 357 394 399 386 339 279 281 371 464 522 575 590 511 402 326 312 428 259 242 210 179 151 137 120 149 157 153 158 152 165 166

GFSSGP_con_3kmhel_042.txt.gz
Helicity
31 28 44 87 103 105 62 33 32 58 122 90 76 74 131 153 129 123 120 73 142 109 134 169 177 168 135 112 80 75 73 74 78 103 95 72 60 47 50 48 45 44 54 63 69 70 82 110 142
27 37 79 89 95 77 29 25 59 54 76 67 63 25 67 80 66 76 153 102 102 169 178 195 205 199 145 91 79 66 68 73 94 93 80 67 65 51 55 52 53 59 68 79 81 86 90 121 153
34 48 74 80 50 21 29 4 26 60 20 39 74 98 63 49 27 81 137 165 192 241 245 181 195 181 126 89 75 66 67 83 98 65 59 56 52 50 55 56 58 55 58 65 88 110 114 116 125
63 88 96 73 -1 9 54 51 56 73 82 128 70 91 101 129 134 98 172 229 269 285 235 216 166 167 118 78 70 61 66 91 83 59 55 49 54 60 61 56 50 43 43 53 69 80 84 104 125
83 75 84 33 14 9 27 99 127 92 96 64 37 51 87 116 170 230 202 207 247 277 217 172 123 116 102 58 54 56 66 68 65 57 54 48 49 47 44 38 33 28 30 39 46 46 50 45 75
87 78 74 9 22 7 46 122 89 76 101 90 76 64 55 109 175 186 231 257 383 340 167 117 109 77 79 34 32 37 53 59 64 53 48 47 37 29 39 39 34 32 34 49 51 54 67 73 48
38 57 19 11 55 29 22 120 83 105 120 64 79 88 71 142 137 229 270 371 193 151 154 251 205 136 37 -15 18 43 53 49 56 30 28 18 23 35 42 50 56 55 51 45 43 50 43 37 43
28 39 41 51 108 39 -21 15 3 33 3 115 46 35 52 72 144 181 214 325 501 529 398 317 212 100 -43 1 27 41 40 24 -0 3 33 24 24 43 52 53 48 54 53 62 68 64 61 37 44
30 39 19 67 72 22 -43 27 36 94 216 197 155 95 127 179 151 156 155 124 7 -16 26 77 -18 -54 -15 19 5 -15 -27 -31 6 14 20 24 21 33 42 38 54 59 56 85 94 90 81 64 44
43 35 23 13 -6 -42 34 23 56 114 196 178 166 110 134 183 150 128 127 207 274 218 -90 -48 -75 -77 -25 -13 -25 -27 -32 -3 23 21 11 22 31 25 20 29 60 60 92 103 107 124 129 94 64
25 25 31 25 9 25 -5 50 60 127 192 48 44 79 110 130 75 70 126 -10 -8 -111 -80 -95 -55 -49 -2 -18 -43 -53 7 25 10 -2 10 38 28 41 17 59 69 75 88 107 147 136 128 137 108
51 92 48 52 61 20 10 52 58 51 72 29 60 92 158 116 34 23 -4 -123 -58 -91 -127 10 13 4 -12 -21 -44 -32 22 10 18 29 25 7 45 55 72 91 72 87 139 183 185 166 150 120 101
47 90 12 41 66 15 54 89 102 139 97 134 108 114 81 88 62 -52 -32 -19 -129 -51 -47 -30 5 -7 -20 -31 -48 -14 29 18 69 110 88 80 55 59 107 141 156 191 186 170 175 152 149 141 116
46 3 68 79 39 50 58 34 104 18 76 84 35 34 44 72 69 -15 -32 9 -41 -45 -59 -39 -7 -45 -15 11 12 12 29 91 112 101 118 143 137 166 185 200 217 223 194 178 161 136 135 122 101
77 59 128 107 3 4 1 56 17 -6 13 34 14 49 21 80 67 57 -0 23 2 -32 -28 16 27 11 37 36 35 51 102 106 121 123 134 154 150 171 192 222 220 189 171 173 158 141 127 119 101
72 47 42 -8 -47 -12 -7 14 26 20 45 23 37 37 68 82 58 32 5 8 23 41 78 72 65 89 79 122 141 134 132 153 138 133 137 143 156 177 197 206 221 189 182 165 141 120 130 119 86
63 30 17 -51 18 81 -4 -9 -4 15 81 4 -9 27 50 74 92 124 76 38 36 84 148 191 173 182 201 199 189 173 165 175 141 138 142 123 114 135 171 195 202 174 155 126 120 128 86 43 21
37 71 58 -26 42 51 5 6 27 54 97 22 -18 22 108 136 166 182 189 103 83 113 163 181 167 199 230 228 220 201 199 181 143 127 87 100 135 166 160 158 157 133 146 146 127 86 43 18 19
43 52 27 37 48 101 93 3 51 128 118 36 16 64 149 170 163 170 210 194 134 116 173 208 216 220 255 263 255 213 195 163 114 72 59 78 137 143 148 154 149 148 155 114 63 44 52 63 69
43 117 80 59 18 172 64 50 18 132 136 124 84 120 184 191 228 171 220 226 205 200 171 184 185 224 228 249 223 213 182 112 54 46 79 97 157 163 166 157 145 113 94 77 110 103 101 87 61
90 17 136 75 6 20 59 -23 -25 -17 153 87 99 165 232 300 324 286 276 264 248 287 260 230 202 218 215 212 234 263 202 164 130 136 113 132 170 152 167 133 113 86 119 109 133 127 102 99 86
88 77 206 41 25 36 46 32 35 20 20 106 102 145 262 271 309 377 378 385 394 363 327 286 252 236 178 189 295 260 215 257 189 189 155 191 182 163 179 195 205 157 185 142 160 136 114 107 100
15 -3 3 -15 19 32 69 51 6 17 2 39 126 189 271 368 424 462 424 404 409 473 426 329 284 213 122 162 252 220 190 218 227 214 222 239 204 265 275 246 255 302 291 247 196 184 169 116 137
-18 4 28 51 36 33 41 12 -11 64 129 147 147 216 236 298 331 329 413 395 436 446 380 327 265 224 153 160 195 217 211 238 286 267 284 270 337 383 389 352 288 225 311 292 207 161 186 178 175
-0 47 57 48 42 -18 58 41 36 33 4 91 164 175 161 232 277 327 450 443 386 387 342 332 264 191 208 183 179 204 242 291 286 320 379 409 464 464 378 265 336 311 299 234 151 160 186 196 172
45 37 44 31 12 7 31 15 13 38 45 8 3 67 139 127 237 323 435 393 308 304 333 311 283 221 224 201 206 262 331 399 414 423 464 519 476 426 453 464 321 180 106 152 148 128 128 147 155
49 53 36 93 63 47 40 71 52 41 55 21 62 89 88 140 217 275 330 276 272 315 252 230 233 209 253 279 358 429 514 508 549 553 520 503 441 523 294 378 499 264 148 138 150 135 131 140 111
20 13 70 81 41 24 46 69 28 42 6 14 19 69 88 131 123 154 217 234 179 208 228 222 239 267 300 354 440 477 469 519 513 472 404 384 410 413 446 415 280 195 166 122 118 115 123 115 95
83 55 63 71 83 29 45 58 -0 -6 -10 -0 -24 38 90 103 146 152 172 208 240 254 308 315 328 355 395 451 483 505 487 426 402 406 380 373 601 418 323 179 166 172 138 115 129 126 118 110 100
73 30 64 83 76 99 54 33 27 8 35 41 12 25 94 154 217 244 271 301 319 341 375 365 356 423 421 508 546 549 552 514 498 469 490 401 365 308 218 213 223 183 129 93 122 111 124 114 127

GFSSGP_con_3kmhel_045.txt.gz
Helicity
45 54 65 110 117 122 77 39 29 37 55 60 37 42 58 103 108 110 68 137 201 214 143 161 163 178 181 159 135 149 125 93 98 112 128 116 95 85 74 64 66 66 69 93 109 106 108 126 76
41 56 97 97 118 102 46 13 54 39 44 50 97 80 107 91 97 71 143 148 189 213 187 176 166 190 186 158 124 123 92 82 90 108 104 96 69 69 62 66 60 70 77 88 111 120 119 92 69
46 69 103 98 82 23 25 28 21 46 89 45 28 74 69 89 76 104 104 199 195 177 181 163 186 190 185 147 108 96 78 73 76 82 81 84 59 57 60 66 64 64 69 81 107 113 141 106 58
59 93 102 77 21 11 19 50 33 66 48 40 41 52 40 37 -21 54 101 146 175 193 203 183 217 182 149 117 70 61 57 56 62 63 65 67 51 53 59 58 58 77 91 102 124 99 94 93 73
87 79 88 47 6 21 33 11 33 87 59 77 38 28 42 71 84 108 153 149 228 230 243 218 165 150 93 108 57 40 31 50 54 57 62 53 46 47 50 55 68 83 85 82 88 93 70 55 51
91 65 54 23 29 44 28 14 46 32 -15 9 33 48 43 69 95 168 187 167 119 334 278 244 146 151 76 57 41 22 44 55 66 59 50 38 41 49 73 77 74 64 66 68 60 93 95 76 61
65 59 19 34 56 60 39 25 19 35 39 18 46 95 75 101 148 164 204 295 411 483 372 356 283 184 96 43 28 30 71 73 28 8 25 39 54 72 70 73 78 80 65 58 52 54 68 66 62
42 37 6 41 57 87 12 -12 28 88 67 193 115 54 88 109 206 273 316 266 227 219 341 338 282 263 100 35 21 48 57 13 14 21 42 54 54 44 55 60 84 76 71 81 84 76 79 80 72
20 45 30 29 84 35 2 9 65 91 141 153 112 116 135 168 262 273 274 258 226 432 301 236 241 239 6 -40 25 27 15 9 -29 46 57 60 47 45 43 61 86 95 96 103 107 101 97 84 79
25 39 11 25 47 66 33 57 90 107 134 172 177 180 169 121 153 178 205 226 130 146 142 226 258 196 -14 -54 -21 -8 31 50 71 39 49 38 58 55 64 92 129 119 105 125 147 134 120 91 53
-3 39 27 10 35 42 43 31 44 105 76 66 91 70 81 78 74 146 172 164 201 182 12 8 -156 -112 -44 -8 14 9 11 24 74 36 60 65 71 87 85 94 73 76 108 130 152 144 113 101 94
28 44 71 42 11 57 31 11 18 36 54 100 44 69 37 12 24 23 34 52 42 -49 -199 -244 -168 -84 -3 -7 -33 -36 -27 28 30 30 46 68 88 83 81 76 87 106 131 193 163 124 117 130 93
71 36 20 12 16 42 23 0 14 102 100 120 63 83 33 -7 -28 -39 -71 -77 -129 -146 -133 -13 -1 -9 -8 -28 -30 -35 -42 37 0 14 23 48 47 81 79 83 115 147 170 188 167 154 142 130 107
-11 38 19 0 8 10 22 20 24 80 108 152 122 52 33 -11 16 13 -31 -79 -20 -16 14 14 12 -7 -5 -17 -12 -31 -9 17 31 45 40 42 67 90 111 148 171 203 211 188 181 166 144 130 99
-1 54 67 11 -11 10 43 24 1 61 88 34 39 40 23 -6 57 -5 0 8 -2 -6 33 9 16 6 15 -5 -22 -1 6 48 70 72 78 93 124 149 176 199 221 231 241 209 177 157 145 124 100
46 31 57 4 -17 -49 -10 17 10 85 111 78 57 17 16 44 66 2 -4 -2 2 40 2 -9 -2 12 9 -2 1 42 54 62 93 84 104 135 159 211 253 261 276 238 200 158 153 140 132 114 99
49 25 35 26 -14 15 9 -19 66 83 124 117 122 61 28 34 18 15 -7 2 13 31 5 -17 -9 17 13 20 34 83 89 108 109 115 124 144 199 244 271 262 208 176 168 151 125 121 86 78 52
60 17 7 -30 1 -10 30 6 119 110 126 117 121 101 72 68 74 49 31 0 7 30 11 25 29 42 46 87 132 155 144 145 144 150 143 174 189 214 245 227 198 184 177 152 112 88 87 20 7
50 24 14 -10 -5 11 82 16 89 64 110 100 76 88 60 64 70 56 34 21 25 6 65 98 121 114 165 199 226 199 175 184 182 156 150 156 146 216 224 206 191 165 155 105 110 93 38 -10 30
45 39 46 42 15 1 36 33 15 85 92 172 120 80 85 59 68 88 55 59 79 90 112 165 205 211 203 237 237 205 220 181 174 167 154 143 181 185 169 178 167 158 159 157 120 47 23 80 41
31 33 74 27 47 22 36 48 -4 91 78 31 117 126 84 177 160 178 155 152 132 121 153 207 211 231 224 246 257 252 288 233 242 224 190 152 139 127 150 167 177 173 152 116 96 73 98 111 76
42 23 8 60 30 43 19 19 12 26 124 114 123 201 173 171 203 243 224 199 219 209 183 184 190 257 238 258 272 306 309 273 181 170 153 173 149 149 180 216 222 194 145 165 169 109 119 93 92
50 37 44 14 33 32 59 48 17 10 -26 100 169 207 221 228 269 295 289 265 246 221 243 230 230 215 230 244 242 253 233 178 159 206 217 208 202 230 262 245 212 237 275 286 209 155 194 132 136
14 22 85 60 70 40 35 42 -4 12 37 53 100 191 284 341 303 259 258 248 281 312 305 304 322 265 190 243 222 218 218 147 183 210 241 256 286 307 323 344 351 342 281 261 175 286 293 138 140
19 73 62 64 66 -8 44 40 3 -16 13 69 168 194 274 347 437 355 355 325 348 389 350 315 303 247 205 243 241 268 165 164 166 224 289 334 357 378 390 400 379 364 514 234 296 419 349 227 139
24 30 49 31 22 23 45 -9 3 3 36 44 29 68 203 349 429 423 341 387 452 418 333 301 271 212 213 224 245 251 140 194 242 278 330 417 455 519 552 549 571 218 224 399 380 303 200 224 140
44 39 40 66 61 55 36 31 43 39 56 52 50 67 99 149 218 315 340 395 399 352 334 251 260 216 223 245 287 267 230 295 363 402 520 487 599 647 503 668 304 331 422 212 227 111 208 168 127
40 36 80 102 67 41 35 45 26 58 71 42 29 19 11 38 92 170 273 304 302 327 262 271 240 225 238 291 322 296 354 419 473 499 546 646 712 481 433 524 396 305 233 158 189 218 168 131 95
90 84 104 79 89 77 71 41 6 18 31 38 24 7 16 22 42 68 108 177 226 256 276 251 228 241 246 302 339 395 457 529 550 503 523 498 481 537 404 325 249 292 232 212 245 213 164 155 165
162 141 104 122 98 105 86 36 40 11 8 21 6 23 12 2 31 57 74 147 185 179 187 227 261 280 293 362 448 448 477 454 526 533 535 533 544 404 304 317 333 284 277 284 250 160 182 208 217

GFSSGP_con_3kmhel_051.txt.gz
Helicity
44 36 39 58 60 100 112 95 69 57 27 51 48 78 78 77 59 82 40 61 147 226 226 182 152 160 169 189 201 182 149 136 136 162 146 132 115 97 89 73 71 63 41 21 28 33 42 52 62
33 39 54 61 79 90 92 64 47 53 54 64 81 98 114 72 82 38 38 18 163 202 192 151 181 169 155 142 136 120 104 115 130 135 134 141 123 111 103 84 72 57 55 38 35 42 43 54 49
34 46 43 65 75 57 72 49 58 44 22 51 68 89 88 53 49 32 20 44 181 182 189 174 220 189 151 120 115 124 126 138 148 150 143 145 136 104 99 70 57 41 39 39 36 40 52 57 47
25 45 54 60 38 37 21 50 26 31 37 29 24 73 51 42 33 28 21 61 164 200 194 240 248 232 197 138 151 161 164 160 133 136 123 143 127 92 72 56 61 51 29 29 38 46 52 57 57
40 46 52 60 38 25 38 36 12 33 39 47 -9 26 45 15 44 70 90 78 182 198 229 277 295 249 153 147 170 178 158 140 136 129 126 130 95 78 53 48 58 62 51 39 34 44 60 70 68
38 38 34 18 2 29 35 13 28 4 17 11 -2 -7 31 11 76 90 114 193 156 218 253 275 239 231 199 177 114 163 137 114 148 110 117 100 78 67 54 41 45 63 65 59 66 60 62 63 59
31 34 0 2 25 34 36 12 6 -21 2 31 21 -13 60 79 76 120 141 220 303 282 374 257 379 283 231 201 83 95 101 136 128 94 99 85 81 67 52 46 56 60 60 60 73 83 55 47 63
34 32 -16 13 26 65 28 33 -5 4 33 42 55 -16 66 107 130 147 189 247 267 269 424 550 433 329 285 130 86 66 126 136 112 89 120 95 74 71 70 65 45 58 78 94 87 72 84 71 55
40 29 -4 31 20 29 18 2 38 29 43 50 46 45 66 240 187 231 247 252 318 383 367 564 566 721 178 127 61 87 110 68 103 92 103 81 61 65 58 70 89 98 96 98 111 113 105 80 61
41 7 19 15 43 48 82 31 35 50 52 38 36 97 155 173 170 169 168 184 193 279 698 975 354 249 465 324 102 71 60 47 70 85 94 122 85 72 57 81 117 113 134 130 132 120 84 41 13
20 10 35 67 22 61 61 27 27 50 7 15 47 104 143 152 134 134 154 218 286 302 224 175 198 446 350 317 220 137 -38 51 59 65 104 90 71 54 60 63 70 88 101 79 95 93 60 44 21
15 28 29 20 -11 18 8 29 27 14 25 26 82 89 95 46 62 88 133 157 144 157 183 250 288 183 367 289 -11 -32 16 53 51 96 77 68 61 49 56 65 78 81 75 105 112 91 67 47 38
29 -12 -42 1 10 17 27 20 14 16 43 82 67 50 -3 5 37 55 86 39 74 58 63 35 46 54 50 -167 -147 -6 26 28 58 21 -16 40 47 45 72 79 85 102 112 124 115 91 62 58 45
-6 -6 0 -19 18 37 29 15 -5 -11 46 68 63 1 -4 5 27 71 73 42 4 7 -3 -114 -226 -227 -184 -145 -43 26 40 7 -27 38 48 36 36 63 85 100 117 134 143 142 108 87 72 62 67
16 18 17 2 13 3 -3 9 -33 -11 38 51 39 18 -17 14 17 35 46 44 20 -67 -134 -196 -26 -13 -12 -38 -43 -45 -10 15 39 45 30 27 28 71 97 123 148 159 152 147 122 114 99 94 85
23 42 25 15 4 -14 12 56 3 48 27 20 40 8 -9 10 -2 -4 4 -8 -57 -47 -3 -1 -12 -11 -22 -37 -53 -61 -71 -56 -46 -31 -24 -25 15 84 102 150 170 170 181 154 151 124 115 105 93
43 26 9 31 14 -13 38 61 18 68 30 -1 21 52 -15 8 18 10 21 27 18 19 21 16 7 10 12 2 -10 -31 -42 -13 17 31 20 14 52 91 116 149 173 197 181 185 148 130 109 111 106
62 33 1 14 -5 -8 32 123 40 99 74 63 31 5 -18 26 36 30 34 46 69 56 34 48 40 36 37 22 -16 -32 -48 -38 7 20 20 39 72 97 123 161 192 192 187 176 152 148 153 127 123
68 23 -7 0 9 14 13 14 19 86 87 80 64 48 36 26 54 52 42 46 67 83 65 35 32 22 -5 -19 -19 -24 -10 2 13 37 25 53 88 121 147 193 208 191 185 186 191 190 158 149 153
63 46 11 17 58 -1 21 1 -6 102 126 131 104 69 61 35 41 43 36 47 73 88 82 60 50 30 20 14 23 26 50 35 53 71 81 90 92 141 178 201 205 201 227 228 201 174 193 181 113
43 42 41 40 42 -2 -4 15 23 23 32 58 55 58 24 39 40 57 73 70 62 79 91 75 59 44 37 38 68 112 100 80 91 101 104 104 101 150 167 180 200 224 227 239 216 220 201 140 91
12 28 50 16 5 12 23 20 35 20 47 65 89 46 37 11 -9 -10 53 72 84 49 36 42 49 67 69 94 107 149 138 137 127 168 138 125 122 166 204 217 238 251 266 250 237 233 183 148 88
12 38 55 55 45 21 35 5 33 37 13 64 110 112 37 34 30 22 29 55 74 66 97 98 85 96 96 114 129 149 141 142 168 200 139 149 171 201 237 260 274 267 255 274 265 255 194 175 124
36 58 90 83 53 27 37 30 7 9 17 2 19 85 116 44 34 20 8 23 40 73 100 120 122 104 111 130 152 156 131 176 211 213 200 189 208 215 234 250 259 278 290 290 308 352 163 163 105
56 73 57 39 47 22 58 38 5 29 -3 2 8 0 53 119 63 42 26 63 70 107 129 129 152 156 165 163 165 186 182 179 251 233 224 261 231 231 242 284 315 360 407 392 364 210 159 143 103
47 45 53 28 32 41 54 -1 10 21 10 13 7 2 -19 45 66 88 89 86 104 123 149 176 186 169 184 214 200 205 164 196 237 265 218 226 206 194 285 338 366 352 404 352 264 206 128 136 179
54 66 57 82 73 45 40 23 10 32 15 37 65 57 24 8 27 37 48 104 144 162 170 200 194 183 183 228 230 200 210 230 198 224 223 243 236 251 321 356 478 464 383 270 319 225 148 240 210
63 76 91 95 34 21 42 28 13 29 37 44 50 57 36 43 46 30 43 57 77 87 122 123 137 122 124 139 175 185 179 189 196 200 236 250 226 260 302 451 440 397 306 244 215 264 366 240 115
61 65 100 71 77 39 33 31 12 -6 18 29 15 -20 -20 3 24 28 41 54 59 68 95 118 106 87 90 101 130 148 152 164 208 210 231 251 273 395 402 398 355 401 355 169 271 421 168 110 160
72 60 80 86 53 86 80 64 59 25 17 11 5 5 -11 -7 8 15 11 12 9 21 28 34 38 56 90 136 159 156 178 185 205 220 261 315 312 310 367 380 299 348 258 541 328 142 103 139 116

GFSSGP_con_3kmhel_054.txt.gz
Helicity
29 16 12 14 29 55 19 47 87 40 35 71 92 90 91 143 104 128 71 -14 73 133 196 163 194 178 187 194 197 197 186 176 158 142 135 114 101 77 53 38 25 28 11 27 36 40 45 36 30
26 23 11 47 45 19 11 76 25 104 65 46 62 71 46 108 78 104 34 7 28 130 153 194 197 186 184 177 180 176 173 170 158 136 139 133 103 93 64 54 30 12 13 26 28 32 35 36 32
19 7 -1 24 23 12 38 74 88 70 49 4 50 96 85 106 60 31 28 23 67 181 143 214 202 177 164 176 181 178 176 174 153 146 151 127 105 98 80 68 56 31 21 28 22 31 41 41 38
17 22 14 5 -5 40 40 46 62 27 34 19 41 77 56 68 72 70 22 41 73 119 148 221 226 204 192 180 169 174 186 176 167 150 144 122 99 101 77 59 49 39 39 31 32 37 40 43 34
12 8 1 3 19 17 25 39 36 8 36 45 11 53 59 51 54 79 40 31 78 97 195 271 266 233 189 143 147 163 175 163 161 173 144 106 98 106 92 60 48 49 41 33 38 43 45 42 34
14 -1 3 5 17 15 26 45 5 3 20 42 25 31 68 65 54 85 127 134 90 169 238 311 322 259 157 171 146 145 157 188 178 154 165 95 103 96 85 71 65 58 46 46 42 41 41 41 43
-22 -7 1 -19 18 24 45 21 -3 -14 -2 25 35 33 44 86 83 100 124 138 172 227 266 402 336 250 266 182 146 142 131 195 180 111 159 103 104 80 81 76 76 78 63 47 50 46 46 48 36
-3 -11 -26 -2 26 26 26 22 4 -30 16 25 37 37 16 64 91 144 194 186 230 270 311 385 433 362 221 233 158 164 173 199 155 145 125 112 99 80 85 79 72 77 75 70 58 55 49 35 29
17 -18 -2 22 37 43 21 35 28 13 32 28 47 87 95 136 77 144 177 216 210 329 486 575 491 677 737 360 102 84 121 127 130 120 110 73 36 47 13 80 78 83 78 80 84 67 49 43 38
15 -9 21 16 35 44 37 44 13 4 23 46 58 76 107 109 106 118 122 167 203 276 377 496 647 464 280 208 264 56 36 43 78 74 77 45 38 36 51 70 101 100 103 102 77 42 -0 -23 9
27 20 20 19 14 29 60 26 14 -30 -1 61 76 86 93 113 124 105 123 148 206 270 429 493 587 488 657 551 275 169 22 148 34 56 49 33 61 58 52 55 54 64 73 48 39 16 40 31 14
27 26 4 49 4 30 10 24 19 2 72 69 100 105 81 57 51 58 144 177 242 253 300 519 588 141 198 264 338 246 126 -84 -80 23 15 66 59 40 33 32 38 43 33 57 33 64 68 36 27
35 15 4 1 -3 -8 18 12 16 35 33 105 83 34 23 15 53 74 115 154 166 219 311 302 250 286 236 115 118 -37 -117 -40 -5 -2 45 48 42 42 35 46 34 58 63 57 87 74 41 27 29
-8 3 11 5 17 17 11 33 1 18 32 81 39 27 29 12 28 39 57 50 60 105 145 102 82 59 107 148 31 -122 -58 -24 7 24 13 28 34 40 43 44 66 80 73 89 80 64 43 42 41
-23 3 16 20 13 2 -17 30 4 49 52 43 31 36 17 26 30 17 25 28 24 5 -3 -49 -58 -135 -140 -119 -86 -54 -41 8 -0 -5 11 30 40 30 49 75 81 81 98 104 94 72 54 57 70
-1 3 24 46 5 5 10 22 33 66 51 22 18 26 -5 13 29 -0 -13 10 -19 -34 -38 -64 -82 -109 -3 28 -20 -29 -59 -24 -7 45 55 53 42 43 52 60 73 102 99 109 119 63 78 92 88
37 25 9 57 36 -14 2 41 28 63 64 45 39 23 -14 22 19 -19 -18 -8 -14 -17 -10 -2 -11 -11 -14 -26 -50 -53 -38 -27 -45 -42 36 41 30 34 45 50 86 129 142 137 113 99 103 107 95
14 20 11 27 14 -23 26 53 33 85 72 62 13 28 26 30 12 7 21 12 -5 9 34 39 14 4 -4 -18 -32 -39 -31 -67 -48 -14 4 35 -20 24 33 57 113 141 141 152 139 141 134 123 116
2 -30 -21 51 34 5 13 27 -5 71 71 70 77 3 -15 14 18 12 21 55 49 49 46 38 31 13 -5 -23 -44 -58 -57 -37 -28 4 21 31 43 40 50 78 120 145 149 177 182 163 161 152 127
12 -11 -5 28 43 26 17 33 24 36 43 43 57 71 46 45 31 29 36 53 69 82 70 52 47 39 20 -14 -33 -37 -23 -13 -6 19 27 42 62 67 89 102 116 134 190 197 192 174 173 161 133
12 -14 16 26 49 21 10 36 12 -0 14 20 24 23 42 65 54 42 51 60 51 54 59 48 38 25 14 -7 -9 -3 -7 6 34 33 39 85 70 85 85 107 125 165 216 233 197 180 158 164 167
-4 14 28 28 18 -0 34 17 31 17 8 27 15 25 29 36 43 33 44 47 58 47 32 24 8 7 7 15 6 26 24 17 33 51 79 91 90 93 89 119 162 196 221 224 201 191 182 190 183
17 24 32 27 -0 10 11 6 34 23 12 21 28 27 35 45 48 45 63 63 66 37 27 12 16 17 27 43 36 47 39 27 50 99 90 103 125 126 142 165 205 214 213 212 207 209 193 300 290
40 33 25 28 28 -0 15 20 17 26 17 18 7 28 32 27 43 37 38 26 30 30 38 38 45 63 76 89 93 89 86 90 126 122 120 109 138 150 174 202 216 197 190 213 229 280 317 274 194
5 36 26 25 22 12 45 22 17 21 30 26 37 25 -12 6 19 9 9 23 33 51 58 51 59 81 89 111 105 106 103 107 123 113 174 152 168 202 210 209 149 160 193 310 375 292 279 211 220
30 28 32 28 23 30 37 6 27 54 17 14 28 23 13 14 -8 6 15 20 33 60 78 86 99 105 121 129 123 118 114 100 122 127 119 170 186 255 170 180 179 267 255 317 308 314 295 189 170
50 59 56 71 59 38 27 14 -0 36 24 16 30 20 28 19 16 -1 -12 -11 3 21 51 66 77 88 113 127 98 109 113 102 128 122 135 130 198 258 268 269 324 170 274 386 500 441 295 183 133
31 69 68 70 63 54 48 30 33 41 32 29 49 50 39 34 25 24 19 -11 -17 -2 24 32 49 40 64 84 79 80 72 71 99 137 152 149 250 298 290 296 184 214 416 424 362 350 368 266 169
65 43 80 77 78 74 62 38 38 28 24 42 20 30 39 34 29 44 55 59 45 45 46 32 40 43 67 80 71 63 69 56 108 180 203 231 257 232 232 209 349 372 482 422 457 259 236 170 54
-10 23 14 36 72 71 76 29 44 38 28 39 29 21 25 33 35 36 46 57 70 75 80 79 89 86 68 72 73 87 125 132 152 187 200 228 217 187 174 312 379 367 387 357 276 312 135 52 74

GFSSGP_con_3kmhel_057.txt.gz
Helicity
27 23 18 4 28 41 -4 -10 14 72 27 45 144 43 37 30 39 101 74 30 23 145 136 168 203 198 188 168 162 157 156 155 127 111 99 84 81 64 54 34 43 46 46 34 23 23 30 27 20
1 15 10 -24 28 -16 40 41 98 44 98 57 47 22 -3 31 116 88 -58 -45 59 118 184 218 241 199 182 159 163 159 152 139 121 113 101 93 77 53 37 33 30 34 31 21 22 28 24 19 13
-8 -9 -20 25 27 -9 -1 137 62 72 57 37 28 37 75 112 101 117 93 43 160 164 214 243 274 216 170 147 167 160 145 137 121 122 116 105 80 60 39 28 24 29 31 24 23 21 19 16 8
7 25 14 -1 -35 15 42 29 41 24 26 12 25 38 124 109 80 91 85 61 111 128 223 249 286 193 190 193 175 152 138 138 141 125 131 129 93 81 74 40 38 47 31 25 26 23 22 21 9
3 -12 -7 23 4 24 49 33 47 36 -1 45 20 69 80 82 85 90 103 48 51 101 266 269 416 200 215 183 150 135 144 158 140 134 136 139 112 105 104 78 60 63 32 27 29 29 21 14 6
-10 19 -19 7 26 31 32 47 24 1 9 50 -8 68 79 66 110 100 123 186 189 147 303 428 403 228 181 187 162 152 156 152 138 140 145 144 155 123 118 101 83 57 44 34 26 18 17 20 16
-12 -25 -19 11 22 23 47 39 1 -2 -2 37 60 16 91 75 98 112 112 154 143 214 278 481 325 237 208 181 161 172 155 150 148 187 176 159 154 133 106 89 70 58 48 38 34 31 26 23 5
-27 -10 -2 17 12 70 65 15 12 22 14 63 45 43 85 82 86 106 110 137 177 195 319 688 523 247 200 203 214 134 93 133 161 190 168 168 136 117 98 93 80 65 51 42 33 36 24 11 7
8 -2 5 14 17 62 48 40 21 51 35 10 79 93 97 99 86 104 140 133 241 252 325 308 362 373 227 263 268 194 66 131 137 135 104 118 87 73 48 86 83 80 67 50 40 22 8 9 -15
13 3 5 40 20 13 15 -16 13 14 61 47 120 62 81 84 72 66 90 109 145 379 403 448 332 325 421 430 359 77 63 61 98 62 76 102 67 22 42 78 88 91 84 54 25 -11 -8 -5 6
14 -16 5 10 23 33 23 17 40 15 5 26 62 98 89 112 117 120 106 156 204 250 309 587 677 622 657 749 444 107 74 98 137 111 112 51 74 65 45 51 53 51 46 21 6 -13 -20 31 27
10 24 -1 -12 29 40 22 36 7 -7 93 107 161 96 71 85 76 67 102 138 257 315 402 399 488 544 674 534 279 198 193 176 135 108 45 69 44 39 38 30 28 22 7 20 7 32 40 41 37
25 3 -8 -10 -17 -2 23 9 34 85 56 130 107 45 45 56 41 84 124 177 200 264 329 479 558 592 655 561 378 461 277 215 91 16 -38 14 4 12 11 -17 27 11 40 34 34 55 46 36 27
-18 -16 -12 -1 0 -13 -9 33 18 84 92 58 45 66 55 20 50 64 86 152 160 223 337 389 437 357 194 241 222 209 122 22 -131 -84 -33 29 24 36 8 47 16 43 47 57 60 56 38 31 31
-20 2 -5 0 30 20 4 40 57 94 79 58 78 82 26 19 33 40 40 59 130 167 206 201 67 83 84 54 1 -97 -112 -109 -99 -55 -25 46 20 -5 15 34 44 64 54 66 60 74 52 43 45
32 42 23 46 74 31 15 90 -3 78 56 69 90 37 32 0 27 46 25 55 101 111 92 40 5 -71 -78 -63 -182 -189 -66 -23 43 11 -26 -22 -16 -22 33 48 58 57 74 73 76 71 47 58 62
48 27 26 4 30 49 5 61 5 44 43 74 64 44 0 13 16 29 25 42 63 16 -40 -53 -54 -118 -155 -130 29 9 -26 -51 -33 -45 -61 -38 -9 39 45 44 31 72 71 110 97 72 78 92 79
-8 10 62 105 25 3 15 30 56 60 66 64 61 56 71 45 35 42 34 31 32 0 -1 15 -12 -26 30 -6 -38 -70 -59 -45 -65 -66 -48 -20 -7 30 30 15 35 89 109 99 100 126 112 96 102
-58 15 -24 124 10 -33 -2 -7 67 39 57 50 79 60 76 85 61 63 12 21 26 54 55 41 28 17 11 -12 -22 -35 -48 -56 -52 -48 -35 -1 0 1 44 -33 61 104 86 130 131 158 154 124 128
-6 -14 -19 32 60 6 -3 13 59 67 50 51 73 74 28 84 71 54 45 39 42 66 67 51 49 42 14 -8 -21 -28 -28 -16 -15 -20 -6 21 55 85 47 19 77 109 134 146 163 167 166 127 140
6 -30 -24 0 13 33 22 40 83 33 46 58 52 70 95 78 85 55 44 46 44 40 43 42 36 44 21 1 0 -9 -23 -14 20 21 34 28 41 145 131 90 120 112 131 167 141 163 172 156 168
-9 34 -8 29 3 2 84 5 14 32 40 59 49 37 80 64 78 80 58 59 58 51 43 24 12 12 20 -1 -30 11 16 20 29 38 63 88 130 138 210 85 94 79 138 220 181 178 150 141 203
-43 25 18 -6 12 32 49 -4 69 -5 24 59 48 50 32 79 56 67 81 74 74 51 48 28 12 7 5 22 7 17 23 18 33 58 88 116 99 125 156 168 156 143 240 217 193 158 159 174 204
-24 10 2 -5 -5 -8 7 29 71 -13 -9 39 38 43 38 35 79 64 56 47 48 43 40 40 30 28 20 40 76 33 64 46 51 74 188 140 162 146 118 118 215 250 248 179 154 160 168 280 323
14 1 -4 21 15 9 35 41 22 48 35 24 20 20 50 23 57 72 72 61 35 46 63 49 47 46 61 73 83 89 51 65 53 68 165 125 138 185 182 170 220 248 226 134 163 276 288 269 279
60 -18 6 -10 18 30 46 15 12 93 79 18 2 36 55 35 44 56 58 72 54 56 65 58 54 45 53 77 52 58 36 36 74 78 89 121 185 208 274 263 251 221 171 282 325 202 240 309 346
-24 27 -9 -38 17 51 20 14 57 49 49 25 18 15 42 28 35 60 59 55 61 48 72 74 47 46 53 83 94 150 61 77 107 101 144 208 202 253 204 233 262 358 477 210 209 369 323 329 252
-54 -6 8 -12 13 14 10 26 71 30 38 54 24 43 37 43 45 41 20 61 46 57 55 71 53 53 81 104 116 133 133 150 125 145 198 235 197 209 211 354 374 376 218 206 330 370 410 383 325
37 1 -9 1 -32 29 47 22 95 47 27 28 35 38 46 44 41 40 39 40 42 43 70 88 52 55 83 62 164 172 182 133 111 169 156 180 222 185 206 274 316 233 319 395 435 374 330 278 185
26 17 24 -1 22 -3 30 46 5 12 32 46 36 48 69 51 42 42 44 62 93 120 124 120 87 68 73 99 175 192 193 258 264 231 237 268 208 218 230 257 233 306 413 291 298 292 254 215 115

GFSSGP_con_3kmhel_060.txt.gz
Helicity
-2 15 23 19 33 52 5 18 24 22 93 133 80 120 49 102 83 42 9 -27 -121 30 17 138 209 212 179 159 142 125 106 95 103 102 96 83 64 48 64 71 70 47 38 35 36 35 32 25 14
7 19 41 -32 31 -5 23 27 12 80 -12 17 26 71 13 42 39 68 -28 -40 -42 134 93 126 213 252 223 177 137 114 99 98 107 105 102 80 70 62 65 70 62 39 33 34 35 31 26 18 2
-23 -10 -4 3 5 21 -20 42 35 29 29 69 40 39 56 219 276 55 63 57 147 219 162 184 258 211 206 174 137 114 112 112 112 116 101 77 74 67 62 63 52 38 36 28 24 20 14 10 -3
7 25 28 -17 -28 -43 -27 29 -11 22 46 67 34 106 153 137 30 93 114 60 145 209 248 223 269 223 180 159 137 120 115 112 128 123 91 79 68 73 67 67 54 41 30 23 19 17 12 11 -3
22 -26 2 9 20 47 22 32 29 42 56 63 42 45 138 2 39 110 139 177 74 227 275 294 247 262 214 164 142 128 128 133 139 124 100 86 76 84 78 65 56 39 28 24 20 14 14 13 14
-39 2 -24 4 9 49 -4 39 51 30 153 98 45 37 44 122 67 108 167 176 145 206 229 409 286 211 183 181 152 157 151 156 158 139 113 129 111 97 87 75 66 47 35 21 19 15 16 15 11
-24 -34 -23 -30 -18 47 48 80 22 52 97 39 -8 92 115 26 36 103 116 112 119 231 333 -7 195 327 244 162 172 204 188 193 189 172 161 188 173 127 91 81 63 45 30 23 18 15 12 16 13
7 -23 -25 25 -17 33 70 -5 52 111 -71 12 -51 18 30 33 55 77 127 95 112 140 172 274 255 221 65 108 126 152 268 249 186 165 173 191 142 123 91 77 63 43 36 28 22 10 6 6 4
-9 -15 16 26 -22 38 33 18 26 10 133 -28 131 79 64 94 83 95 98 113 145 142 200 238 313 253 359 433 139 171 130 154 129 131 129 140 71 82 78 75 67 59 45 20 7 -6 -17 -21 -22
41 1 14 -5 -4 -27 11 49 36 61 76 150 38 24 63 87 93 124 78 90 155 229 251 251 282 221 300 244 335 334 206 148 75 80 116 122 80 76 75 78 74 68 38 3 -14 -16 -18 -0 -19
18 8 -43 -31 16 -15 -35 7 7 11 119 57 -6 63 91 117 131 108 122 133 180 250 318 374 390 286 257 220 265 215 262 119 18 103 142 114 102 56 56 71 61 41 28 -9 -15 -13 -22 13 30
26 15 11 8 -26 -19 -37 3 36 -1 -3 -43 -13 140 134 101 88 112 109 152 237 354 433 473 540 516 488 531 546 468 233 67 114 60 94 61 62 17 32 64 30 5 -15 -16 -11 24 24 44 28
8 27 17 -14 1 -28 -1 1 10 153 -91 -5 110 94 71 91 128 86 69 150 219 302 431 448 496 466 642 561 534 581 207 133 150 102 133 21 59 10 34 14 6 -7 -14 1 33 45 33 33 29
-41 -44 -26 65 61 43 14 97 158 126 150 25 63 99 65 76 88 54 48 109 214 234 279 349 417 541 683 739 586 301 254 291 333 114 45 -30 -20 15 8 -19 -2 -17 66 37 51 46 30 12 47
-6 -11 1 108 12 14 88 119 37 119 48 11 88 76 67 63 47 22 33 86 149 199 265 353 451 479 505 396 338 215 355 274 43 23 -114 -59 -42 7 25 37 7 29 54 72 48 89 41 56 22
-17 40 62 206 132 1 -47 68 109 53 -10 32 162 123 67 12 88 53 28 57 93 122 123 158 173 146 150 129 161 24 -71 7 -152 -202 -116 -69 15 31 22 -2 -2 98 77 84 83 86 54 39 55
22 45 40 148 34 63 67 82 134 -22 29 51 112 103 27 14 102 66 75 76 38 22 3 -17 20 61 76 30 -117 -194 -233 -245 -157 -32 -32 -37 -34 -28 -25 5 83 87 84 106 79 85 41 80 87
-6 13 7 67 56 43 5 -5 198 -24 -4 117 151 65 89 87 138 71 78 32 25 -14 1 8 -18 -50 -92 -204 -105 -4 -10 -39 -57 -50 -50 -41 -12 -21 60 63 69 92 108 147 123 99 98 126 107
-9 -46 -26 132 65 72 20 -10 89 93 40 70 185 140 134 117 174 38 153 41 38 -4 -39 -34 -59 -83 -108 -87 -44 -58 -50 -72 -83 -79 -55 -21 -16 -5 28 70 42 132 169 184 121 136 151 117 165
-5 -36 -24 57 64 55 2 -11 32 174 22 71 127 154 122 116 204 70 131 157 136 72 20 12 -44 -37 -29 -12 -18 -28 -16 -30 -38 -54 -33 42 50 3 26 49 77 134 179 136 184 167 178 153 182
-5 -12 -48 -55 51 40 17 18 32 63 23 65 95 157 91 148 239 126 117 101 178 131 68 56 43 12 -14 -40 10 -19 -27 -21 -5 2 -7 62 93 82 87 140 182 176 146 152 201 221 191 189 207
-19 5 12 -10 -19 -18 65 21 65 46 42 75 94 133 207 124 162 188 119 84 104 169 126 93 73 26 -4 -52 40 44 42 50 74 61 58 130 149 121 97 147 159 290 284 233 219 229 163 199 240
-18 18 11 -43 -38 -37 -6 72 24 54 10 33 91 33 193 164 125 175 174 147 90 110 162 103 48 46 60 19 -59 11 64 75 48 71 117 270 233 147 131 159 195 247 301 259 341 311 227 129 133
-27 22 19 -8 -27 -28 -18 88 40 90 -16 27 136 60 99 185 196 173 138 99 112 102 123 103 49 43 43 94 21 13 70 117 90 108 138 263 267 191 138 155 187 231 272 347 376 247 294 282 164
14 6 -5 21 -40 57 19 3 98 134 36 4 11 59 100 162 203 189 186 137 124 153 169 134 87 56 28 5 102 123 76 93 92 55 151 212 255 207 176 169 171 233 311 344 349 354 338 324 219
22 6 -6 24 32 -91 98 41 17 41 29 6 57 8 72 75 173 204 215 208 129 150 179 164 149 108 49 37 69 123 109 145 136 142 2 185 209 175 225 173 266 317 351 348 360 548 416 306 239
-34 59 -19 -21 72 -0 10 -33 52 90 74 73 27 23 11 16 64 179 165 244 249 185 178 178 135 104 59 77 159 191 124 64 127 134 76 162 176 354 334 343 357 352 328 402 395 321 262 298 354
-16 -76 29 3 19 23 -8 -7 110 51 50 65 23 54 66 57 12 9 118 193 246 244 204 184 155 75 81 84 232 283 257 111 111 128 188 250 352 374 362 314 302 309 336 373 312 318 389 378 302
50 -8 2 -10 25 33 4 29 275 84 40 20 51 53 53 63 57 58 41 79 194 228 228 239 170 96 91 131 278 331 250 191 212 199 236 260 311 336 297 279 312 292 297 288 302 313 315 325 263
-40 53 10 43 76 -2 29 6 -16 16 -27 61 35 56 64 68 53 56 29 39 80 175 207 271 265 177 99 158 226 227 314 237 200 275 298 286 301 287 297 293 308 340 369 394 340 293 255 236 198

GFSSGP_con_3kmhel_063.txt.gz
Helicity
7 7 17 37 125 152 52 -1 117 18 58 5 18 58 12 161 231 115 -70 -109 68 139 147 62 66 125 143 143 147 134 117 106 89 84 93 107 98 97 91 87 79 72 64 60 51 43 38 40 39
-4 23 40 79 145 79 26 65 155 83 -34 -15 7 23 78 79 88 11 -30 -39 -65 -28 65 78 254 96 155 145 132 121 105 92 81 89 103 118 115 104 95 85 69 59 51 45 42 39 32 37 50
-13 1 49 55 52 61 102 114 93 0 13 70 70 82 63 110 140 174 100 -149 -9 -9 50 216 43 121 140 128 115 112 116 101 89 98 107 116 106 111 89 69 55 43 39 37 34 28 28 37 57
6 14 0 37 48 87 201 163 52 70 86 49 53 120 53 50 25 86 65 86 67 29 120 111 120 182 187 157 169 160 127 108 95 107 99 106 103 104 86 59 48 42 38 30 27 25 26 35 77
-6 -13 39 58 92 165 113 72 41 103 65 67 21 43 83 69 46 68 69 102 167 173 170 134 227 224 226 188 165 171 137 112 99 103 99 109 111 97 81 61 50 36 26 24 21 25 32 37 74
31 35 22 47 72 120 56 59 -4 93 104 78 28 -60 42 118 78 61 62 82 211 296 296 256 318 228 205 183 187 198 166 119 104 105 91 114 117 96 89 70 47 35 28 27 27 28 36 44 71
84 68 39 -4 21 63 76 68 2 39 84 89 -26 -3 25 43 74 32 76 71 253 277 271 235 197 82 506 435 309 271 240 200 129 116 101 117 120 103 93 67 41 38 29 21 24 21 32 48 89
1 108 -73 -25 55 50 46 49 43 70 89 52 -43 -6 34 41 29 53 63 95 175 203 158 131 194 221 66 -62 235 126 170 182 206 210 162 173 140 118 94 66 47 31 29 20 13 8 37 52 100
-15 -42 -12 67 92 11 40 59 18 173 225 151 8 100 72 118 104 88 97 94 121 120 135 205 328 274 225 194 299 135 72 154 173 218 248 209 164 133 102 43 23 39 15 2 5 5 14 57 88
7 79 99 120 -8 24 37 14 -41 92 150 30 97 80 48 54 112 98 120 127 135 164 199 206 278 264 238 156 113 148 133 135 151 158 166 186 166 109 86 62 17 29 8 17 -5 17 23 48 55
18 117 81 16 -13 18 -42 50 -22 33 56 -6 -13 133 67 171 139 112 118 170 192 155 199 224 265 247 207 198 208 187 272 265 310 158 198 98 131 91 66 63 24 9 11 7 2 -8 14 39 53
36 71 59 25 5 12 -9 146 22 -40 -4 24 57 84 106 147 138 120 126 147 211 276 320 308 306 230 208 261 189 192 254 174 136 87 88 71 74 56 71 19 11 33 3 -5 -7 -18 15 36 33
-88 1 -11 22 5 78 52 59 84 24 10 78 22 47 69 160 102 96 95 123 230 322 326 365 339 393 307 331 248 322 348 152 141 110 90 54 29 35 -4 6 19 22 3 3 -8 18 6 19 32
-38 -76 -72 -36 36 41 46 -29 -4 -12 65 91 94 66 203 150 89 78 61 93 198 255 316 356 357 321 442 364 514 382 388 304 237 190 142 99 44 -24 -27 -30 19 5 -4 -10 16 20 8 19 40
-127 -74 -60 -8 42 131 119 47 77 41 136 144 44 126 249 91 56 50 41 76 181 216 227 323 329 353 457 513 505 407 454 448 198 364 272 -45 -68 -68 -51 11 10 5 -4 7 56 25 30 38 39
-82 -41 -2 17 161 96 171 107 42 90 164 90 8 68 217 61 77 45 35 65 114 168 159 212 363 436 389 384 336 470 187 204 377 366 -51 -55 -89 -60 -25 11 24 0 80 92 77 75 59 40 54
-39 48 106 141 111 88 175 103 211 107 123 109 -40 4 137 153 101 53 30 43 24 74 134 169 187 178 164 137 86 103 72 117 53 -63 -82 -152 -109 -68 40 33 6 55 114 107 102 71 58 51 73
18 72 80 102 52 132 77 120 194 179 130 191 48 -14 235 234 107 66 60 29 17 18 41 63 47 60 63 32 38 48 -57 -164 -105 -25 -94 -101 -75 -29 -2 23 11 93 115 118 117 87 85 67 125
66 38 -9 -2 77 126 86 81 179 163 126 124 11 111 191 248 110 100 60 36 33 8 -1 3 1 0 -21 -76 -123 -147 -182 -234 -189 -151 -91 -47 -56 -21 26 49 85 87 121 148 149 137 107 109 166
59 19 11 -21 120 66 3 41 185 191 40 9 82 239 190 175 209 112 59 50 18 12 14 4 -22 -42 -82 -83 -117 -126 -114 -153 -167 -112 -73 -32 13 27 39 73 69 114 181 188 184 196 206 152 159
11 -26 11 -4 36 17 45 -13 179 40 -38 93 175 215 186 342 291 187 123 102 85 2 -21 -22 -42 -67 -119 -92 -77 -72 -71 -79 -59 -69 -70 -19 51 57 73 51 41 100 182 269 258 205 225 193 168
-28 1 -7 -36 41 15 35 10 41 72 36 99 212 232 222 332 300 255 214 165 146 43 5 1 -32 -40 -50 -21 -21 -20 -1 8 -6 -4 7 32 81 110 108 110 102 181 227 242 230 258 271 301 319
12 -31 48 20 0 18 -92 14 4 4 46 152 226 184 188 293 371 319 312 253 141 144 96 60 22 6 -1 -5 -12 -13 7 46 49 52 61 72 117 139 137 140 170 235 252 259 268 297 312 410 363
9 -8 24 43 27 -40 -32 -40 -59 29 58 74 138 262 242 228 328 282 235 246 172 134 120 109 117 44 7 -2 -26 -49 73 77 82 88 82 104 166 186 170 169 200 245 264 245 293 345 400 402 358
78 58 22 59 25 0 -39 -110 -72 166 120 155 184 279 219 120 240 274 222 201 211 206 180 142 131 107 30 -22 -25 -15 48 129 148 169 198 249 243 228 195 212 191 198 250 248 308 353 365 400 430
80 79 97 59 33 -6 -44 -11 -9 18 29 -21 77 116 203 172 198 313 328 257 234 225 233 203 163 127 90 41 3 -8 48 48 164 233 150 273 278 263 248 257 186 201 212 275 317 334 396 399 333
10 59 24 37 74 3 -27 29 18 -31 1 30 17 32 202 217 218 267 319 323 252 221 256 296 206 151 112 90 75 66 60 69 225 294 302 248 221 206 266 263 237 193 252 298 308 324 373 279 213
-15 46 37 51 78 22 -9 15 13 144 54 50 102 105 79 150 227 266 312 303 288 307 302 281 265 238 175 119 79 75 151 129 188 333 263 169 143 154 304 330 324 330 311 283 315 324 289 290 261
87 -15 31 44 69 76 30 9 4 92 62 35 63 82 84 55 83 93 291 328 299 316 364 344 286 229 210 181 135 85 100 146 356 288 140 74 118 277 372 343 328 299 300 281 292 289 256 282 291
107 134 51 126 35 64 113 17 11 50 13 7 44 58 108 146 63 25 112 140 213 297 358 395 336 278 264 216 167 251 389 202 287 142 232 317 284 289 316 318 293 297 301 298 317 319 283 326 265

GFSSGP_con_3kmhel_066.txt.gz
Helicity
37 49 46 79 108 91 48 4 64 115 18 51 37 -7 -19 21 38 39 20 -35 31 90 27 103 182 215 158 126 167 160 139 127 125 137 131 147 160 170 159 144 130 116 101 91 96 104 100 77 55
40 47 54 77 94 100 68 27 86 77 6 63 81 57 87 60 108 52 3 -86 -86 15 49 88 175 290 424 72 135 142 114 107 108 115 118 140 160 169 150 133 111 94 78 76 76 82 76 55 40
39 16 55 33 49 92 40 114 68 36 127 47 81 91 71 40 38 58 54 88 -98 64 162 189 186 145 357 328 56 155 141 128 116 118 128 133 149 153 132 114 97 80 67 65 61 71 72 62 36
54 46 31 32 74 96 204 197 143 149 80 103 22 97 75 74 76 53 22 30 5 -0 88 96 257 284 258 204 305 150 121 99 105 103 112 108 130 127 113 98 87 71 61 52 60 90 109 104 67
32 44 62 79 92 134 216 180 -8 42 36 71 17 54 10 11 51 71 59 95 106 101 186 146 159 138 124 123 119 162 161 114 117 117 114 101 114 114 113 93 83 67 58 61 77 121 140 133 99
80 51 72 15 36 138 89 32 6 67 10 23 55 21 27 127 56 131 101 84 146 201 291 433 428 221 171 84 224 189 180 192 141 123 111 95 113 118 107 90 78 67 64 67 86 130 136 105 86
131 68 23 23 76 125 36 87 84 35 27 36 33 71 65 52 4 85 49 128 210 255 268 266 182 203 98 55 243 245 293 153 151 116 113 115 129 117 113 93 81 76 66 68 82 114 140 111 61
72 5 -17 61 113 111 40 85 75 57 37 52 53 89 79 -41 42 24 54 89 197 253 268 211 204 6 -326 -167 172 386 110 115 137 148 162 158 150 127 114 85 82 72 62 68 68 119 161 178 101
10 29 75 104 95 82 40 80 74 40 60 59 91 56 75 32 26 54 40 72 102 133 178 196 173 235 97 99 -31 83 145 168 203 207 191 186 171 143 103 66 57 37 38 46 99 116 141 179 129
22 31 31 110 146 105 63 28 13 46 82 79 67 61 88 45 67 14 44 72 84 77 139 194 206 222 177 191 126 207 22 135 198 225 222 181 131 108 83 52 59 62 65 49 80 87 92 120 93
8 14 79 116 97 51 84 87 26 96 76 -13 7 82 107 68 65 55 43 86 123 145 175 187 201 186 184 156 44 -97 40 174 177 154 183 143 144 113 90 71 70 30 64 35 46 34 61 77 73
83 31 102 84 84 66 29 49 99 67 50 30 -31 63 81 98 66 83 81 93 104 170 199 211 151 149 120 73 -3 15 71 155 175 163 125 146 153 105 54 13 20 31 34 47 11 31 32 59 78
133 17 -65 -5 8 77 69 86 69 32 -3 -10 141 30 69 74 93 86 54 85 134 209 265 264 208 159 152 121 89 108 164 262 251 252 169 76 83 22 38 -10 10 40 18 30 34 6 9 42 66
-10 -2 -48 -56 -8 32 47 112 137 31 -28 48 89 49 94 97 136 127 94 86 154 234 226 263 208 156 140 84 161 206 259 233 263 163 159 136 88 44 22 31 7 25 18 16 20 -1 22 26 37
-22 -65 -128 -46 -21 11 152 157 160 88 93 137 103 173 135 148 120 94 87 105 125 208 229 313 221 188 168 194 314 229 351 262 281 229 108 123 31 8 1 -6 28 -6 19 44 36 27 26 23 16
-37 -26 22 16 37 78 180 151 87 91 137 212 109 196 118 44 65 68 90 138 115 170 153 146 198 151 161 241 233 416 311 358 265 179 135 113 11 -3 -18 11 -19 -22 54 47 26 44 30 21 22
10 20 42 29 163 70 161 86 43 55 117 213 131 136 60 43 63 64 73 91 87 101 146 125 128 201 219 242 329 337 289 347 244 172 111 171 134 -11 16 -11 -29 44 46 67 70 60 77 57 38
94 86 76 55 46 102 101 70 66 78 129 171 143 130 103 114 95 86 84 88 54 60 118 127 213 226 199 193 208 199 287 227 189 196 274 187 -49 55 51 -4 22 50 103 95 95 105 84 71 64
-49 -16 41 58 89 130 62 142 100 168 143 148 85 119 182 105 78 76 74 73 63 33 53 76 69 71 119 148 61 -11 -39 58 96 180 95 51 -14 -54 -33 24 31 84 119 119 128 127 92 74 112
-11 -3 19 30 59 63 39 66 51 207 122 174 109 82 220 143 151 81 69 62 65 50 22 10 20 41 28 12 -91 -83 -45 -98 -93 -53 -82 -88 -60 -69 -69 -32 -1 80 130 125 140 172 155 117 163
-22 14 42 79 20 48 66 2 69 75 148 85 54 63 221 262 222 120 96 75 65 39 12 -13 -7 -7 -11 -27 -39 -47 -42 -133 -242 -242 -256 -157 -81 -73 -49 -5 85 60 132 110 141 171 182 149 180
-5 21 18 34 67 42 23 -71 12 51 73 118 51 128 190 248 246 153 124 102 70 37 13 -18 -20 -23 -51 -58 -55 -54 -95 -129 -250 -228 -198 -143 -89 -47 13 29 28 21 96 107 167 217 238 232 212
8 29 3 21 15 72 32 42 -57 66 28 97 135 140 175 258 299 270 171 133 83 67 31 -9 -30 -53 -55 -59 -70 -73 -67 -95 -151 -172 -129 -98 -80 -27 27 49 54 80 122 130 163 251 272 281 268
51 53 59 53 54 1 42 21 -154 -48 67 135 249 156 242 276 273 249 219 109 75 82 48 13 -1 -54 -56 -31 -12 9 -20 -78 -82 -86 -60 -53 -31 25 60 86 108 119 164 195 242 253 250 276 308
41 71 62 63 50 9 30 -25 -33 -28 24 156 339 255 229 282 293 264 241 198 133 142 109 62 37 -12 -13 15 25 7 -28 -52 -55 -12 18 24 34 73 89 162 150 135 152 226 276 283 273 295 292
131 123 98 71 25 -47 17 -19 -49 -11 19 48 255 231 280 281 282 341 355 290 224 235 220 163 137 70 52 52 23 -8 -33 -72 -49 -21 43 74 84 78 138 198 199 193 200 226 253 255 263 304 305
140 124 115 122 124 29 -66 -26 -2 -33 18 46 52 91 211 293 298 285 340 352 324 268 298 270 245 188 134 110 60 27 -12 -13 -26 23 80 128 181 184 176 199 232 241 231 206 246 258 261 279 246
116 117 140 182 100 20 -15 -74 21 1 11 45 37 64 68 165 198 222 288 343 352 326 303 297 295 280 247 188 129 88 52 27 35 102 195 260 270 185 95 145 149 244 247 251 253 245 242 268 267
178 113 131 115 163 72 31 10 12 8 35 52 74 45 59 107 156 206 238 267 344 337 290 314 303 256 245 201 169 148 108 118 180 260 257 241 308 88 41 148 200 251 266 298 299 257 304 301 289
105 104 121 144 179 173 114 -19 13 24 -7 35 37 51 44 60 92 125 191 263 311 297 294 308 331 269 199 147 104 172 311 288 287 333 278 124 55 -71 3 145 187 282 290 313 315 340 314 342 327

GFSSGP_con_3kmhel_069.txt.gz
Helicity
27 25 31 51 75 70 134 37 37 20 69 3 -8 70 82 63 29 6 88 108 58 51 17 93 243 194 284 403 315 185 139 162 176 196 201 172 164 169 173 167 174 181 161 141 106 86 84 82 70
19 29 34 36 116 202 168 1 15 26 58 40 69 46 79 49 1 16 135 69 59 -12 27 67 143 234 298 378 411 165 89 149 150 152 134 123 138 155 164 163 158 150 133 127 104 72 46 23 38
14 14 42 61 131 218 193 103 118 92 17 28 87 89 55 50 32 80 121 139 48 -5 59 96 128 208 239 313 347 375 159 135 161 175 131 126 138 156 164 156 144 132 135 114 87 61 38 37 62
41 41 34 74 113 56 106 156 117 68 5 50 74 57 46 70 95 106 93 64 65 47 106 154 109 125 247 171 222 379 261 90 177 160 141 119 128 149 159 154 148 143 138 122 85 51 48 50 58
49 54 56 60 60 50 110 126 33 51 18 58 29 58 76 79 122 139 118 101 35 80 91 101 172 269 324 434 194 336 418 150 175 165 142 121 129 156 165 163 160 157 155 138 87 68 74 65 53
108 66 57 88 129 117 88 15 43 40 23 45 37 62 51 54 83 41 61 128 119 164 225 298 407 364 300 228 187 236 209 69 166 169 137 130 132 155 161 160 147 155 158 124 81 82 74 56 33
107 74 72 82 145 111 33 100 70 60 77 79 62 82 115 48 110 62 89 214 222 270 359 414 433 273 164 -116 178 224 359 193 90 169 164 143 139 150 146 141 134 156 161 139 111 87 58 52 39
92 33 107 60 127 100 5 129 87 83 63 89 88 101 73 139 140 53 94 199 219 249 275 286 280 170 273 -65 -90 129 183 88 132 271 225 199 163 138 133 124 121 147 165 185 139 81 35 36 35
56 64 168 91 88 17 60 138 118 81 78 87 129 94 112 136 112 72 93 134 176 178 129 127 176 208 244 122 -4 141 82 196 229 300 258 213 180 127 113 99 97 129 179 210 158 89 43 38 22
105 91 94 42 92 134 56 113 138 139 78 94 112 93 96 131 128 120 112 169 120 131 133 88 112 161 232 188 148 50 159 96 142 222 209 235 162 130 128 112 115 128 152 187 159 102 86 67 20
57 13 53 35 57 108 89 147 137 92 136 101 129 94 62 116 122 129 117 133 112 85 95 107 109 130 129 179 236 189 16 20 187 206 199 194 185 170 148 146 122 122 134 142 134 104 84 38 34
67 13 34 -11 1 61 124 160 77 141 130 134 89 119 73 52 77 96 89 68 83 91 75 102 127 120 107 129 157 -16 -48 -47 37 214 129 142 175 188 131 98 64 73 92 66 129 126 78 86 54
96 44 18 3 -9 42 149 103 84 156 43 174 159 96 57 17 67 96 91 76 70 140 118 126 139 113 110 79 15 -93 -41 -13 191 135 87 92 152 111 84 69 73 84 8 110 82 71 61 86 63
42 25 20 -23 18 93 164 92 184 143 230 177 180 81 32 55 100 87 53 79 96 130 163 127 109 105 92 55 22 30 31 144 155 68 164 113 98 73 70 51 60 19 62 66 24 28 51 52 49
34 -45 -124 -23 29 68 145 138 221 135 209 143 140 91 91 74 54 40 39 61 103 109 158 156 134 177 69 40 72 44 62 128 110 179 173 128 64 78 37 44 45 4 77 46 55 49 39 35 43
32 -18 48 -16 34 49 91 74 91 163 191 147 157 131 172 61 22 47 53 67 69 105 135 103 114 190 41 50 148 110 124 176 192 176 192 91 101 86 66 37 -5 50 80 42 38 38 38 26 21
89 26 25 -58 -5 -39 35 42 32 148 178 159 158 136 156 134 94 76 82 74 68 80 87 15 147 118 76 117 247 253 276 257 204 223 212 112 186 65 58 16 19 88 68 32 45 53 58 25 12
109 65 94 79 17 30 57 92 49 90 163 103 165 116 134 161 115 102 107 76 75 74 71 73 86 85 148 127 188 264 329 300 180 179 168 186 165 100 42 21 67 62 46 60 53 70 65 52 53
97 95 56 15 62 56 137 58 58 57 122 102 151 135 93 100 82 101 112 115 102 104 110 97 53 64 117 131 184 198 349 347 280 262 173 120 54 66 17 55 70 82 75 53 76 89 75 92 94
83 105 27 -28 51 84 13 18 13 96 107 161 145 176 120 106 135 104 92 116 122 128 97 42 50 102 21 54 69 139 138 161 214 223 133 179 179 179 29 82 53 58 84 100 125 138 129 106 137
89 120 74 67 61 104 48 16 -3 3 70 37 75 114 93 132 147 155 122 96 96 86 86 21 -7 20 60 50 9 -43 -29 18 -93 -11 -52 103 151 10 -54 -24 20 52 116 111 117 126 137 136 144
40 93 64 56 104 114 58 66 12 -22 1 30 55 93 126 81 100 161 163 136 123 83 50 31 5 -7 1 -9 -17 -83 -96 -49 -31 -60 -56 -4 4 -75 -90 -37 14 104 28 21 73 126 157 194 182
47 76 95 74 89 124 99 121 2 -34 -55 45 78 102 107 101 142 136 182 168 98 105 80 39 33 11 -19 -21 -42 -50 -69 -88 -80 -113 -191 -162 -135 -144 -79 -51 -35 -26 14 33 49 97 139 194 231
39 93 112 115 158 43 51 94 24 74 -11 -50 108 153 120 157 147 122 100 122 125 81 88 64 49 19 -8 -27 -31 -29 -34 -63 -80 -137 -223 -254 -231 -151 -85 -53 -37 22 57 86 133 133 199 226 264
165 151 143 143 214 67 37 73 36 71 43 20 56 164 182 157 175 148 148 151 158 167 120 96 80 44 19 -12 -29 -26 -30 -19 -45 -97 -182 -201 -190 -189 -108 -47 72 -12 40 95 157 184 210 263 255
180 192 197 112 112 31 84 25 22 28 40 5 -1 125 167 191 178 205 212 211 197 189 183 155 135 75 64 37 -10 -30 -36 -32 -27 -50 -72 -127 -115 -93 -70 51 71 120 190 207 143 115 193 220 220
97 187 121 160 138 50 35 52 37 -24 -40 -48 -25 22 93 155 189 191 206 220 261 261 239 224 175 131 116 107 63 30 5 28 9 -62 -66 -62 -36 16 41 84 107 144 174 191 143 215 201 231 241
120 126 170 236 160 68 34 56 44 19 -8 -23 44 63 70 88 138 168 188 195 249 265 277 261 211 160 121 106 94 64 49 25 13 -48 -5 34 39 48 94 67 29 65 123 209 210 227 234 233 247
194 113 152 150 209 135 34 6 27 44 83 6 25 63 108 138 164 216 245 225 265 253 302 332 281 240 172 162 149 111 65 48 63 38 95 168 187 177 176 159 154 26 129 177 178 232 235 249 266
110 133 175 186 213 209 185 36 52 22 122 55 50 69 86 91 187 238 247 282 303 308 340 368 353 308 297 256 267 201 148 112 76 75 203 278 261 200 113 -144 12 39 100 136 222 305 300 303 272

GFSSGP_con_3kmhel_072.txt.gz
Helicity
42 42 42 57 102 131 169 251 31 71 57 23 7 26 43 42 25 36 39 69 58 79 160 203 202 185 222 234 318 266 222 318 283 234 229 240 239 201 191 191 184 175 148 121 98 77 61 67 78
43 41 58 52 114 169 247 80 107 57 46 34 34 31 62 38 39 43 76 111 98 149 103 113 141 162 160 217 282 269 314 289 201 211 229 225 216 179 183 177 172 160 128 101 73 67 61 72 81
41 37 65 106 140 189 220 86 102 103 51 35 17 38 77 55 66 105 132 145 125 107 93 96 165 179 182 204 188 178 251 294 255 185 199 185 179 151 150 164 168 144 111 85 63 62 88 74 76
51 46 50 113 141 79 91 135 128 44 22 33 43 44 88 85 109 82 110 123 131 88 158 193 239 300 278 325 339 116 119 412 288 167 152 149 172 138 126 147 152 141 110 68 51 35 47 72 79
49 58 81 116 163 81 90 93 27 24 1 43 94 79 93 83 89 71 43 120 93 120 161 211 367 435 353 417 334 334 116 304 324 157 154 171 186 149 114 145 160 137 94 67 71 59 65 73 65
93 74 88 149 220 130 70 34 26 45 35 59 82 108 96 126 91 93 64 101 111 181 247 230 277 347 322 360 341 78 74 208 336 347 166 227 203 171 133 168 153 125 84 76 75 71 57 42 28
92 88 80 181 208 173 109 12 20 34 72 60 121 108 146 141 107 130 146 151 133 174 296 268 268 243 281 236 205 82 112 277 273 330 157 218 225 205 185 171 128 120 101 96 85 57 42 28 19
96 96 107 172 195 202 21 49 63 71 61 148 168 91 129 123 150 182 175 185 153 170 246 274 211 113 101 76 44 192 118 255 270 257 138 292 317 216 167 141 131 108 96 58 43 40 34 30 15
91 95 123 148 146 92 56 84 87 118 119 156 172 151 151 148 180 215 180 153 165 177 172 199 176 119 27 124 107 128 133 166 179 113 256 236 280 247 183 162 146 124 92 48 46 59 40 31 10
123 100 106 96 75 99 58 79 75 131 154 145 144 207 213 182 169 155 143 132 141 125 99 66 48 42 72 185 155 80 237 415 284 200 217 294 312 211 248 185 165 145 122 85 44 61 62 48 15
126 80 41 56 67 45 74 70 107 164 162 179 153 189 229 206 170 89 86 108 122 114 98 79 90 116 140 173 150 168 85 108 247 185 189 323 246 272 257 222 182 166 143 117 82 59 44 -1 2
144 34 54 11 12 43 69 76 122 253 227 192 175 189 190 162 131 95 67 80 82 91 85 109 101 119 136 136 156 124 123 173 193 141 170 267 250 196 208 181 145 122 96 78 42 7 36 38 41
153 64 60 11 -19 12 82 128 138 235 195 192 172 178 158 123 141 106 85 64 65 72 84 97 99 103 117 98 139 196 252 262 21 41 166 212 170 151 176 136 107 131 79 84 72 86 76 62 36
128 124 37 8 7 34 83 72 162 165 179 198 166 125 112 152 133 91 68 40 41 72 79 115 105 99 78 90 113 113 71 -22 33 104 138 150 119 123 175 102 143 82 68 69 22 76 74 39 28
121 60 12 11 12 2 101 43 181 182 129 180 139 95 110 111 118 70 65 57 65 96 133 133 60 112 69 98 70 52 81 163 191 257 175 195 161 154 96 172 61 64 71 -15 129 89 61 49 46
106 109 69 60 52 21 65 27 47 66 170 146 122 76 105 106 89 91 75 48 57 100 98 134 101 109 152 97 84 118 145 191 221 233 192 182 220 216 102 33 45 62 11 6 81 48 50 60 43
133 94 79 44 8 68 0 33 32 38 93 116 129 101 92 109 99 126 107 56 51 69 128 168 58 125 138 124 105 126 132 170 173 263 221 168 202 103 40 52 31 31 5 17 84 46 51 41 38
149 119 100 113 45 27 73 84 83 98 105 102 112 122 103 91 109 144 128 65 44 67 133 90 34 122 113 105 198 145 116 148 89 97 195 121 78 60 28 39 54 32 22 59 86 46 39 46 38
121 106 99 74 51 68 26 1 71 25 82 103 110 149 127 102 119 153 115 82 55 99 128 61 65 79 106 156 179 133 121 130 102 51 84 169 108 125 109 66 39 42 42 60 60 58 52 61 66
134 101 77 29 46 89 37 -25 -5 3 35 149 137 147 120 157 150 171 135 81 79 89 89 81 46 27 47 95 117 157 229 271 282 229 182 228 189 108 126 48 36 37 73 64 69 77 88 68 103
138 125 128 87 116 78 125 112 27 -27 12 22 63 96 128 180 186 182 168 95 98 87 103 112 79 66 51 44 188 245 207 343 441 274 288 297 200 122 47 50 62 66 80 80 69 102 107 105 98
112 144 98 97 152 112 104 -33 84 -32 -71 -13 30 66 119 151 163 193 167 104 101 79 78 67 61 78 51 102 124 68 60 125 139 150 255 150 52 83 89 69 57 56 56 35 100 99 141 153 142
75 106 92 126 168 133 106 128 66 61 -22 -39 -12 74 116 163 188 205 201 119 89 79 81 74 52 34 38 97 96 56 83 -7 -38 70 55 -51 -84 -40 -61 -41 -17 26 36 21 -43 124 132 141 182
82 82 106 173 172 125 134 178 60 72 61 35 -71 -27 116 175 174 152 168 172 124 89 75 66 61 26 4 26 -7 -15 -16 -14 -32 -41 -29 -98 -118 -84 -16 -7 -57 4 43 14 67 84 141 158 160
162 179 195 190 180 172 116 165 125 64 39 61 72 14 14 124 226 205 215 191 194 166 131 97 82 48 16 -10 -28 -52 -80 -95 -66 -41 -55 -104 -141 -151 -60 -37 -26 13 59 103 137 147 146 166 158
135 201 247 163 163 119 149 107 64 25 -12 18 49 36 2 64 154 199 221 207 214 217 219 193 134 90 62 14 -54 -73 -81 -106 -143 -183 -163 -168 -174 -99 -140 -156 -36 11 86 104 135 184 147 122 119
180 204 157 142 71 62 82 132 84 62 20 15 23 17 9 64 84 156 171 216 217 239 256 250 206 138 137 80 41 -29 -57 -60 -100 -128 -170 -188 -181 -176 -192 -152 -106 -14 70 44 72 68 107 92 41
159 106 175 255 148 94 112 104 99 36 99 55 38 47 13 43 48 93 118 171 193 225 272 273 244 200 194 191 146 111 59 30 10 -4 -24 -43 -39 -18 -10 -35 8 31 77 68 75 79 166 118 230
177 149 181 150 177 113 72 59 47 4 49 86 58 29 5 4 34 102 151 164 194 225 268 289 281 244 227 206 214 196 164 130 95 65 42 37 27 43 46 65 62 58 124 145 119 109 126 154 236
153 143 148 153 160 137 125 128 138 72 19 53 71 36 27 35 37 63 126 202 223 245 275 308 316 310 274 283 298 252 227 208 157 176 139 171 119 130 115 143 97 109 227 277 124 87 170 187 222

GFSSGP_con_3kmhel_075.txt.gz
Helicity
34 40 37 60 65 92 148 269 111 78 62 17 13 19 21 18 24 36 56 41 46 80 113 113 193 218 146 175 197 240 266 277 279 243 233 219 216 235 231 204 189 160 142 132 108 86 80 79 86
45 35 47 73 81 111 201 147 101 60 38 41 33 18 18 39 47 61 82 75 86 127 118 140 178 173 176 156 185 226 247 315 296 313 226 200 224 248 204 185 160 141 129 119 94 89 87 84 87
33 28 59 99 101 130 186 105 94 73 13 10 19 20 34 51 71 91 87 84 97 185 168 112 193 206 102 127 120 168 205 227 297 300 252 230 222 228 198 170 133 115 105 103 104 89 83 74 79
31 53 80 101 113 143 134 108 82 58 5 -3 16 31 54 62 84 102 71 106 136 175 197 187 297 326 195 233 149 99 155 180 242 276 260 220 217 195 195 154 124 88 91 114 102 84 67 76 77
63 66 90 98 138 139 83 92 51 60 43 34 48 47 61 82 100 82 87 124 151 148 206 288 266 301 274 185 255 295 187 143 135 237 202 193 180 214 191 152 89 96 89 76 82 62 61 75 84
79 69 81 106 159 136 101 52 57 59 26 53 52 75 85 112 93 60 56 141 126 163 191 292 215 227 291 389 272 337 246 292 258 70 213 193 197 198 238 204 140 126 105 81 71 59 67 70 66
69 89 68 119 173 176 144 35 78 93 82 47 100 102 115 79 90 95 109 153 142 210 217 246 257 223 269 265 230 228 310 67 196 187 178 218 202 231 272 217 162 99 88 75 60 65 66 57 42
81 116 90 128 191 182 113 72 63 72 56 86 116 106 124 119 136 128 151 177 170 160 181 216 250 271 262 277 105 58 96 177 166 227 248 265 298 282 272 218 130 70 68 68 60 64 47 24 28
82 116 63 135 192 151 81 81 75 47 56 96 140 179 171 191 163 153 163 138 126 139 118 137 191 187 155 81 26 35 21 155 163 243 422 388 335 287 197 176 114 77 83 80 70 54 40 39 34
122 106 71 143 140 118 71 73 74 63 66 93 173 221 221 179 159 177 107 70 49 78 97 92 54 -22 73 15 48 54 57 177 278 396 413 397 359 265 229 186 128 86 88 82 65 60 51 18 17
130 91 105 138 88 50 74 85 76 52 64 130 150 191 190 183 163 123 90 61 53 26 14 13 38 66 60 75 106 147 68 192 290 446 501 351 342 285 264 230 168 90 75 56 51 45 9 11 -4
120 56 95 73 89 131 95 85 34 91 116 171 142 168 173 182 160 118 83 74 63 78 65 69 74 73 84 100 147 164 191 313 412 306 378 314 296 265 231 196 176 99 35 23 -10 -6 -7 -8 38
132 81 89 50 41 24 65 25 17 134 182 215 198 157 152 180 162 108 67 57 75 67 81 87 91 82 96 97 138 183 206 435 512 372 450 219 197 243 215 193 138 105 32 7 42 24 54 12 68
83 70 64 38 -5 24 27 11 26 87 75 150 180 156 172 134 129 100 60 35 43 23 67 92 105 122 128 109 114 194 235 315 270 336 332 187 225 239 210 131 123 113 33 12 37 21 31 13 65
91 71 29 7 52 98 39 43 63 70 90 92 98 148 153 119 113 103 83 47 44 50 66 100 85 135 114 94 125 163 314 371 339 272 328 141 175 202 122 74 61 89 66 80 67 53 -35 73 66
94 92 64 88 129 137 104 20 43 18 49 61 88 109 129 120 90 97 88 56 59 65 78 102 112 91 119 87 121 146 285 203 171 141 65 140 180 113 73 63 43 88 40 85 85 -29 61 70 51
112 68 84 68 119 134 130 90 26 43 62 69 84 101 96 103 96 89 97 73 72 57 77 116 55 128 130 124 85 81 196 193 198 179 147 175 157 90 176 71 108 132 109 57 27 4 68 43 28
123 116 106 85 132 206 180 78 26 10 58 58 64 124 105 101 85 105 96 89 72 66 83 124 49 134 141 92 99 108 158 179 267 197 161 135 209 138 84 180 217 79 67 17 -5 24 39 23 30
98 79 92 85 88 135 143 100 44 30 103 67 62 115 141 95 71 106 91 84 75 72 102 98 54 101 111 89 64 118 107 115 235 283 156 182 210 162 230 219 35 29 48 21 6 43 46 45 47
105 95 79 40 59 82 83 66 11 51 78 50 41 81 125 128 100 118 122 82 77 79 93 69 5 75 40 59 57 103 112 161 155 266 276 201 218 105 178 63 48 64 62 48 21 58 50 56 52
79 67 65 57 87 71 98 76 128 98 44 43 32 44 78 127 137 132 135 100 78 69 85 84 67 76 72 135 177 170 221 199 191 186 335 238 100 111 66 54 53 46 63 44 39 53 58 62 71
91 65 67 63 86 64 131 43 88 67 31 42 5 48 69 86 108 134 139 106 93 43 64 58 86 111 97 119 144 129 175 192 123 128 154 175 144 115 132 118 96 44 47 36 53 57 76 88 84
78 72 31 59 90 106 82 126 56 42 33 31 4 14 52 113 123 130 132 113 83 52 39 65 77 112 88 87 96 128 105 84 117 128 165 204 179 157 88 51 78 -11 6 25 62 93 92 83 118
77 136 103 122 135 112 100 148 23 60 67 44 40 24 0 68 112 94 93 115 83 54 39 53 83 75 74 75 80 112 61 30 88 179 123 99 88 47 1 -34 -53 -28 38 23 17 60 78 104 112
136 100 99 117 165 138 106 98 79 56 94 -10 25 95 41 46 102 151 124 147 108 99 74 32 58 59 76 86 65 15 -27 35 79 134 127 111 70 7 -15 -8 -3 10 57 51 59 54 52 88 103
106 126 205 96 87 99 114 57 33 9 -14 -19 8 39 31 25 80 122 135 130 130 117 123 81 62 58 59 78 59 17 -25 -21 2 47 62 52 63 42 10 -7 -19 -21 -23 1 -2 24 46 70 95
151 174 93 146 148 102 102 113 79 3 4 21 16 26 36 22 67 80 81 105 113 121 135 142 108 78 66 64 52 31 1 -16 -36 -34 -41 -43 -29 -24 -25 -25 -50 -57 -63 -59 -15 38 42 59 81
119 111 159 177 124 91 107 88 58 49 10 22 48 62 55 30 36 51 47 70 84 95 117 113 122 128 107 98 77 48 42 19 -12 -43 -52 -45 -83 -92 -90 -61 -24 -22 -54 -43 0 46 45 62 100
151 169 184 163 189 145 85 109 53 -10 -44 18 82 73 78 29 27 32 9 11 74 106 129 132 123 130 136 132 123 104 98 83 54 22 2 6 -19 -7 17 26 18 19 65 78 71 55 57 44 69
159 132 121 151 149 167 163 125 117 53 30 11 53 43 55 24 5 30 43 62 90 114 132 170 174 160 181 181 168 130 81 117 129 116 94 92 68 74 59 67 71 103 176 229 159 160 201 185 103

GFSSGP_con_3kmhel_078.txt.gz
Helicity
31 17 14 19 7 38 96 143 169 81 61 26 14 18 29 9 51 61 53 61 23 34 57 72 145 136 131 132 123 167 189 196 248 235 205 176 162 132 109 143 125 101 89 119 107 119 116 114 109
35 31 20 32 5 20 131 130 100 72 22 18 20 27 19 41 39 50 62 65 51 51 90 111 177 170 144 119 114 155 166 201 239 230 238 201 187 159 149 179 145 124 113 124 110 115 102 106 130
37 16 26 26 39 32 95 111 109 74 13 15 21 1 20 38 55 85 87 81 63 78 103 194 185 193 129 107 77 115 160 182 221 201 267 237 199 193 189 223 209 156 130 109 113 108 93 93 119
43 47 49 21 73 124 100 101 111 100 50 11 11 45 35 56 88 136 100 80 109 126 105 175 182 191 212 189 213 50 136 199 204 203 268 230 199 169 204 228 199 135 112 105 99 92 87 112 129
36 46 40 30 89 153 108 132 103 118 105 59 29 58 38 85 133 124 83 70 87 139 146 155 190 224 237 168 117 33 61 94 159 182 230 230 197 184 205 177 180 117 120 118 102 87 94 114 116
54 51 40 51 117 145 122 114 104 115 95 64 69 28 37 115 87 113 119 113 120 160 125 182 114 111 153 201 109 49 98 185 158 99 152 180 187 169 193 140 163 149 121 117 98 87 79 85 82
15 46 30 48 104 131 160 99 126 124 68 64 67 35 72 75 129 134 123 130 136 157 113 141 103 177 223 250 135 172 226 230 231 314 76 124 149 173 173 128 197 165 123 108 84 68 69 62 60
49 62 54 46 96 88 165 130 109 91 76 79 55 36 46 109 135 140 126 141 144 173 131 140 119 166 128 144 213 229 213 227 268 230 262 144 143 182 237 212 182 205 165 102 75 63 72 67 63
73 61 27 40 96 100 141 108 104 73 60 76 75 44 116 141 123 114 122 146 149 138 132 120 112 181 155 186 237 226 261 152 149 213 182 181 235 171 164 163 158 188 162 107 89 84 81 82 61
58 55 16 47 89 136 114 85 80 57 55 39 50 90 105 123 111 106 114 96 69 67 61 90 79 52 122 127 158 156 153 94 50 152 279 202 299 145 132 192 159 176 154 112 94 78 61 15 21
67 28 31 38 59 91 74 52 83 30 -0 5 20 59 116 106 118 126 90 78 58 58 84 88 94 73 33 84 64 83 47 67 60 169 224 550 299 194 114 243 145 145 124 83 57 42 -2 16 -0
49 27 10 5 50 44 67 52 35 7 -4 37 39 57 109 94 119 127 96 65 54 55 56 77 85 78 73 82 90 110 99 110 195 298 403 551 405 153 186 248 108 104 93 67 33 -1 17 5 -2
37 22 36 -8 11 10 40 41 5 25 -2 71 60 81 102 92 102 105 97 75 42 32 34 44 65 71 65 70 109 132 154 156 386 591 540 420 219 225 206 233 127 90 75 39 29 20 -2 19 14
58 26 25 13 -14 24 44 23 69 42 59 80 57 57 75 79 96 98 80 83 57 29 28 27 38 59 59 83 143 164 231 474 609 579 511 399 288 257 142 189 140 131 69 36 26 -0 15 34 36
68 33 25 33 7 27 39 47 59 5 56 46 47 50 66 60 82 87 75 78 77 52 58 58 62 64 77 111 160 170 204 430 831 499 481 395 230 97 205 155 148 123 58 41 44 6 18 31 42
42 46 30 69 31 79 83 32 66 49 44 40 62 67 83 72 77 79 76 64 69 59 63 70 76 77 108 95 93 157 181 305 413 292 258 311 85 137 172 160 141 177 122 73 10 2 25 63 48
55 33 47 44 50 96 97 36 105 66 34 28 66 65 70 96 88 94 77 70 60 58 82 86 108 108 79 60 82 133 266 348 419 302 212 175 106 142 97 215 195 117 40 36 35 29 53 43 39
45 19 32 32 83 49 85 56 53 67 39 33 81 61 58 79 106 109 89 69 72 77 86 118 156 45 77 60 105 161 233 372 336 201 237 337 174 150 156 62 103 46 63 127 104 64 42 21 34
70 53 36 60 125 74 17 -27 83 62 92 60 98 63 55 70 109 122 113 92 75 76 99 134 72 29 81 59 59 139 240 187 145 162 131 34 -45 115 86 101 1 2 58 74 95 72 36 26 30
47 39 23 38 89 76 40 -22 56 58 70 43 39 71 55 60 127 123 122 107 73 77 87 114 20 41 12 15 11 151 147 126 139 132 81 94 30 91 57 21 97 75 168 178 67 41 34 34 38
38 35 30 38 69 47 -24 -22 28 65 87 62 55 48 43 62 95 110 115 105 80 81 74 86 32 26 1 -10 71 147 227 226 292 252 230 127 93 101 49 71 134 187 232 43 78 59 34 36 48
45 27 37 35 59 67 126 37 85 85 43 53 35 55 33 42 69 83 97 120 86 80 64 58 59 69 47 65 92 97 159 177 261 281 268 325 190 126 104 84 80 205 30 28 32 34 25 11 39
38 77 41 24 54 58 71 91 44 110 1 9 13 26 38 21 53 87 64 92 99 86 60 31 64 83 123 111 84 73 41 120 234 295 354 301 268 154 167 266 107 92 39 23 18 28 14 27 28
88 64 57 81 99 81 46 144 23 35 9 15 34 32 45 21 31 58 64 85 99 91 77 46 55 69 107 153 144 146 91 104 94 190 209 229 276 248 189 108 91 108 15 -11 2 13 19 25 53
76 87 137 116 140 77 121 100 31 31 6 10 15 52 70 12 21 56 107 108 108 103 83 55 67 80 92 107 126 158 154 73 102 103 89 134 188 177 180 -46 -52 -53 -104 -78 -101 -63 -39 48 36
6 76 195 149 104 74 104 33 56 26 -4 20 32 20 9 21 15 55 93 103 78 88 78 71 55 83 93 108 108 104 103 70 42 46 71 157 162 175 52 19 -27 -79 -79 -117 -126 -86 -1 52 73
108 119 68 118 138 101 101 81 43 8 13 4 -4 1 13 16 5 45 68 69 73 62 74 84 58 55 71 87 78 90 89 64 39 55 81 127 131 120 88 34 24 -34 -41 -68 -81 -40 21 54 46
63 47 129 127 132 96 82 57 96 79 4 49 45 45 33 16 17 45 77 54 39 43 48 57 56 62 64 66 60 65 88 73 52 88 115 126 125 101 118 91 44 36 17 -14 -37 -63 19 40 66
85 88 91 104 72 78 87 84 78 -15 6 7 45 52 65 45 21 41 48 39 32 34 40 38 58 72 78 69 73 69 80 99 83 111 131 120 108 105 102 87 63 58 65 63 69 45 63 85 139
46 38 45 117 89 65 92 87 32 54 82 19 23 52 27 39 13 25 48 45 38 37 43 69 78 80 92 107 105 101 86 96 97 86 119 140 136 133 118 96 80 74 65 69 89 115 189 215 292

GFSSGP_con_3kmhel_081.txt.gz
Helicity
15 7 0 15 19 46 -15 65 37 43 26 49 59 30 27 60 25 58 46 23 43 57 173 66 91 61 121 111 135 126 119 146 191 182 157 129 87 79 77 68 89 105 66 82 95 103 96 95 97
6 5 5 8 29 13 31 121 73 25 43 74 28 26 24 -7 80 60 20 52 54 58 79 78 103 114 131 125 134 126 123 143 170 159 152 122 94 94 92 91 87 134 81 88 98 105 109 101 123
-28 -15 -14 49 39 8 40 87 36 46 44 56 26 32 20 38 80 65 102 62 62 71 88 113 142 165 116 113 146 146 150 162 158 153 149 135 112 100 114 131 115 156 100 88 98 111 118 122 138
20 27 24 34 10 61 57 56 40 35 50 43 25 11 71 80 57 78 110 61 61 59 115 165 142 115 133 142 99 105 103 89 154 149 148 171 140 136 153 134 141 147 129 93 106 120 116 128 113
-2 -3 11 63 7 72 75 63 49 15 42 34 42 -3 53 95 86 89 89 79 87 77 107 124 136 113 99 156 107 89 76 95 72 178 173 182 171 200 188 180 147 112 153 139 119 102 113 119 86
26 4 20 18 37 108 61 57 34 21 21 42 31 19 24 146 82 96 102 104 106 104 85 96 120 171 176 255 247 147 76 117 43 99 116 154 169 199 179 166 161 134 177 178 128 98 101 97 74
-3 -15 5 -24 0 86 63 82 5 14 6 13 34 34 37 110 123 107 90 107 96 91 99 129 86 137 179 215 240 128 146 17 -8 62 172 114 121 186 173 150 173 171 162 159 121 97 104 100 72
3 -10 -19 -1 17 26 91 68 34 17 10 84 65 20 3 139 171 98 114 101 93 137 118 125 101 120 158 125 114 15 37 2 -7 132 197 175 75 154 146 146 159 153 130 121 123 110 115 89 52
17 11 6 -6 29 4 109 35 45 51 15 50 53 18 69 120 127 90 133 76 90 134 134 117 111 103 117 150 129 112 106 99 29 95 183 217 184 93 97 84 169 139 111 113 121 114 102 85 41
18 31 -25 35 65 35 48 45 -15 36 8 61 119 93 92 78 85 76 127 110 48 83 82 60 97 100 151 159 89 135 138 165 162 199 211 216 242 174 128 151 179 170 123 113 112 112 82 37 29
26 4 -32 34 45 18 30 2 24 31 17 -5 33 38 60 116 80 83 102 145 59 61 64 63 90 98 86 98 111 117 135 175 186 148 232 256 192 259 128 171 171 179 116 108 99 85 31 35 14
27 -14 -3 4 36 39 18 -1 -15 23 -7 38 18 34 42 104 75 73 85 158 103 32 46 67 99 92 113 92 94 96 77 124 151 156 182 175 391 319 139 163 118 156 99 103 83 66 58 15 10
37 1 -5 15 25 41 13 -2 -15 -14 -16 8 53 45 56 65 69 75 81 115 114 62 65 56 74 90 74 34 57 90 93 114 117 171 225 237 401 230 193 140 163 143 103 86 80 70 54 23 9
28 24 8 0 19 33 -4 0 -13 44 3 69 46 36 40 64 63 85 87 121 77 53 70 107 97 90 59 64 73 87 98 124 157 225 312 310 426 364 295 288 55 126 71 80 76 66 49 24 29
52 59 21 9 6 4 16 -10 30 8 16 53 51 48 43 62 69 78 104 114 83 57 67 101 110 115 89 99 104 132 153 237 352 427 725 819 1002 276 298 116 59 147 77 60 141 59 50 36 27
76 39 32 4 18 18 56 0 -34 32 95 66 65 56 70 74 69 98 107 102 110 76 79 111 152 131 134 113 143 183 272 335 437 705 1160 610 363 297 384 174 101 121 146 107 85 72 73 30 39
51 38 20 1 84 42 71 -4 -30 92 85 64 58 68 95 82 76 99 135 113 113 80 85 132 173 160 149 131 131 158 209 415 476 649 420 354 463 435 444 276 79 155 150 147 111 76 73 36 43
28 14 20 11 28 69 57 8 24 76 80 42 20 56 71 113 88 95 148 126 91 105 126 130 175 209 132 85 85 114 258 210 205 306 519 444 453 480 138 117 41 122 92 102 72 59 50 33 44
24 33 14 20 48 89 23 -21 3 19 7 63 37 29 48 58 74 128 141 137 133 124 116 158 177 104 59 68 102 147 310 307 312 405 307 167 126 29 13 64 71 154 169 144 80 75 97 74 68
23 40 42 32 45 89 25 -1 -4 6 25 7 18 10 65 44 76 153 126 120 124 115 111 123 109 54 39 60 95 126 226 370 384 219 135 102 153 -26 32 59 56 102 119 105 53 78 121 67 62
39 40 25 34 37 64 32 3 -24 -33 14 23 0 8 -18 42 65 159 106 109 133 103 107 108 110 75 56 43 142 157 211 405 284 183 205 145 183 116 -61 20 108 145 47 34 45 72 98 57 55
32 43 21 59 77 70 -3 11 5 26 43 28 27 20 23 11 54 120 110 100 125 104 100 115 107 92 99 107 216 235 257 291 206 210 96 79 125 92 17 75 51 54 8 1 36 41 39 68 64
46 52 60 38 68 65 42 50 4 -9 26 29 17 18 34 53 41 72 109 89 100 117 101 106 115 92 107 181 218 190 204 216 199 150 92 63 47 22 0 -10 43 42 73 80 110 153 34 23 73
72 72 83 96 64 80 47 51 -8 11 63 27 21 25 28 65 51 47 105 98 112 117 98 89 101 121 109 169 172 199 241 226 239 203 173 145 188 155 123 12 14 59 34 91 149 86 12 60 41
59 104 130 112 103 94 44 61 53 52 114 32 36 27 26 64 62 53 112 132 131 126 103 71 81 96 114 152 178 168 238 234 232 279 224 246 310 226 181 160 73 14 28 62 109 -5 77 5 18
94 115 182 135 84 53 28 137 47 21 21 23 27 29 36 60 64 42 79 116 133 120 114 62 74 72 111 120 145 157 227 232 164 224 229 294 372 304 252 270 183 117 -7 -25 -121 -57 -10 73 93
168 193 75 79 161 287 109 -16 60 38 18 2 33 13 10 17 63 35 45 125 120 114 111 68 66 60 81 120 114 116 143 185 193 165 219 288 298 298 258 249 229 144 50 -17 -78 2 -16 93 0
177 109 205 190 259 200 184 97 61 36 0 11 5 17 39 36 40 38 37 99 106 103 105 75 41 37 71 76 106 100 117 108 125 134 163 184 141 153 155 180 180 143 57 15 -69 -81 44 53 90
64 132 76 42 85 186 174 128 61 60 67 3 61 19 28 42 36 25 39 94 110 95 112 84 65 49 71 86 73 80 98 85 69 73 102 110 134 157 114 113 92 58 42 19 -6 -34 25 25 62
8 18 33 138 106 42 101 134 -2 82 99 162 77 17 17 12 42 32 33 63 101 83 97 106 87 75 77 96 105 99 96 98 111 77 91 109 136 144 142 143 80 68 56 36 44 48 64 69 85

GFSSGP_con_3kmhel_084.txt.gz
Helicity
31 7 20 39 24 53 26 7 93 156 48 95 108 81 64 49 48 107 51 38 14 134 93 94 139 134 101 83 112 108 108 104 106 118 116 108 99 79 72 63 52 51 82 73 73 79 79 91 119
11 16 23 -0 18 -24 49 86 70 71 93 136 80 30 6 -11 106 75 33 61 59 69 43 87 107 120 115 98 140 124 113 113 138 124 117 106 108 81 66 67 68 53 76 64 69 73 92 91 96
-34 -37 15 38 12 23 -18 81 88 82 148 94 17 42 -7 87 121 102 80 72 76 93 82 114 89 104 145 96 121 128 138 145 133 138 105 124 109 85 84 94 64 63 85 63 74 91 100 95 54
20 17 32 54 -15 -63 30 82 80 79 69 25 -16 7 76 121 111 91 105 88 88 69 120 108 87 56 88 100 114 105 126 131 140 131 132 114 111 116 117 108 77 69 77 75 99 100 90 85 37
13 12 30 13 -2 19 141 150 191 24 30 42 31 -12 52 172 157 134 103 77 81 92 81 78 106 113 104 102 104 205 294 192 177 125 88 137 124 133 126 102 88 77 90 103 94 96 97 66 26
54 21 20 13 -35 34 120 151 138 37 -30 63 53 1 52 151 149 167 141 105 110 92 94 124 116 152 208 239 240 272 264 452 49 29 94 107 155 135 122 104 122 111 141 120 87 100 98 63 63
21 18 10 -24 -30 -23 122 150 79 11 7 8 27 53 49 168 196 172 134 152 113 89 113 101 115 180 223 245 213 187 148 264 138 -57 195 53 185 182 156 140 159 160 148 105 83 112 119 89 83
23 28 13 -18 -28 -12 47 162 95 110 -2 94 71 128 40 159 175 162 173 142 141 109 122 129 181 146 128 130 150 160 167 161 97 61 90 35 145 111 149 170 181 166 138 104 100 117 124 105 108
-6 55 47 -17 -77 6 147 133 96 39 42 8 67 94 59 194 149 144 185 107 166 94 92 156 187 116 90 98 91 124 24 9 17 35 108 129 110 174 109 173 185 175 134 106 103 116 124 108 82
36 61 8 -39 -53 73 59 84 106 30 42 34 82 105 191 174 159 96 147 184 129 95 75 97 126 148 71 85 83 48 29 55 75 76 -14 91 151 116 68 109 152 147 147 106 107 119 100 103 61
15 57 -11 -54 1 61 86 30 56 30 27 15 11 57 68 136 143 118 115 230 192 107 98 68 113 117 151 125 62 50 69 112 136 73 110 144 232 210 194 170 185 162 153 124 125 114 83 97 66
22 16 8 -1 19 19 33 22 48 24 14 55 35 60 105 32 167 114 124 218 263 161 115 76 68 89 117 123 65 50 82 112 137 171 214 243 259 180 202 150 170 141 133 110 110 66 70 72 48
13 15 16 19 2 30 29 35 44 26 31 59 23 85 85 45 128 118 125 262 209 156 165 96 91 82 137 137 121 69 58 81 110 179 210 300 298 278 231 198 259 168 114 104 82 48 98 71 83
-2 2 18 13 28 24 31 33 28 15 8 7 36 101 62 45 77 99 186 176 177 158 182 146 114 103 94 101 105 99 76 69 93 163 202 213 256 320 298 389 168 119 100 99 67 86 91 98 65
7 55 57 23 38 35 8 24 35 5 19 -16 55 101 42 56 102 96 183 202 167 139 238 179 182 132 95 141 150 137 136 143 144 158 171 224 284 423 384 276 192 152 90 69 109 131 107 113 77
48 68 77 34 21 16 19 13 -3 -10 32 68 61 80 74 40 93 112 159 201 212 83 175 246 212 143 160 197 170 156 165 165 188 193 162 319 395 393 316 369 277 268 93 169 180 138 105 85 90
128 106 60 35 -8 -11 34 -3 -12 -24 70 118 62 24 93 92 85 78 188 188 194 176 217 283 191 164 212 237 200 197 213 241 255 340 347 452 572 599 640 381 197 100 220 232 213 117 113 100 100
82 69 49 50 1 22 34 27 18 -7 103 69 60 23 70 118 121 117 160 199 204 190 140 275 218 203 256 247 195 158 187 237 334 469 625 790 716 553 368 446 181 228 268 249 205 195 160 131 68
85 134 95 26 -14 -6 96 20 14 13 26 100 95 78 22 94 115 203 227 258 179 239 253 275 267 218 204 138 132 119 151 198 226 340 382 457 564 500 358 304 244 237 217 171 180 180 132 130 96
97 98 90 96 71 31 70 54 30 15 24 32 31 54 73 95 104 201 310 310 187 249 205 264 215 179 145 111 146 135 155 143 95 103 147 353 464 379 274 351 294 210 139 162 164 174 130 85 46
79 61 76 84 61 65 36 21 32 21 17 23 35 55 10 25 122 250 326 285 224 222 182 201 181 158 160 163 184 186 160 194 246 244 283 270 197 370 319 239 211 181 106 109 95 105 107 81 153
121 47 33 76 99 93 23 22 48 -12 37 132 71 55 8 38 67 218 304 256 235 179 174 197 178 157 184 214 200 279 289 268 208 271 181 139 164 163 110 48 -13 -6 -9 19 19 -13 16 106 122
139 44 65 116 108 109 61 96 37 30 62 30 85 62 79 66 28 151 264 226 214 174 197 192 157 153 176 228 235 261 270 242 259 190 129 149 44 5 48 77 -2 -53 -36 -7 20 26 -29 60 112
12 122 61 145 139 130 70 100 24 11 5 7 54 71 59 76 119 108 256 207 171 217 215 221 169 142 163 242 268 249 304 328 332 203 182 140 71 -9 68 86 45 -7 23 14 55 22 24 42 125
21 94 164 161 136 108 65 67 55 37 18 32 53 48 64 76 116 149 312 252 178 236 241 228 156 153 129 226 252 264 295 365 371 293 191 174 125 70 32 80 99 51 53 132 42 2 29 94 97
141 92 178 170 131 85 39 123 38 5 1 77 32 58 56 77 145 125 241 234 159 226 255 194 147 157 157 158 210 223 297 290 288 285 226 179 110 97 121 65 121 62 4 29 -5 136 30 125 169
179 186 17 177 134 222 189 18 58 96 97 121 67 37 27 48 118 113 140 274 171 220 262 176 156 168 164 128 169 175 256 306 292 268 271 223 151 123 145 165 116 149 184 37 70 49 -15 -42 -63
84 123 156 126 240 222 197 61 97 43 84 28 60 39 45 34 33 125 136 292 215 217 226 187 138 136 189 147 145 160 177 249 246 255 274 229 236 188 202 200 159 127 112 88 36 15 48 37 97
118 187 224 248 281 193 261 84 134 159 92 30 90 50 63 75 79 63 104 210 228 196 226 218 148 129 176 197 162 130 146 191 216 204 239 249 265 226 219 241 230 201 186 161 82 60 41 46 42
11 37 83 244 203 197 76 167 101 224 94 110 168 105 65 11 7 41 60 126 183 198 239 224 175 141 145 216 220 176 155 129 172 195 178 192 214 226 230 191 166 150 141 143 97 86 44 26 57

GFSSGP_con_3kmhel_087.txt.gz
Helicity
36 12 31 33 63 59 59 58 15 105 150 172 188 194 132 102 107 103 29 46 75 55 55 80 94 121 115 107 116 114 110 116 116 110 104 111 116 115 109 106 106 92 87 89 82 91 109 114 137
14 21 50 74 90 45 63 -0 43 47 100 163 169 120 105 201 99 73 69 10 48 62 58 80 82 105 97 93 90 100 106 127 121 124 134 102 134 99 86 72 73 68 57 65 72 82 101 114 118
4 25 94 87 71 53 101 24 145 174 142 134 101 67 43 123 123 83 68 88 80 70 81 71 56 78 100 95 97 98 99 133 117 112 128 121 101 97 73 82 69 50 39 48 55 63 72 97 101
57 68 63 96 18 -10 84 47 147 168 129 117 54 121 89 70 104 46 62 112 135 171 131 98 69 74 83 106 125 111 111 115 133 109 61 109 103 110 89 91 71 57 51 52 54 53 64 83 76
85 106 98 92 3 -28 14 93 164 156 113 144 109 49 74 167 203 146 154 164 159 161 111 96 90 84 91 97 109 142 162 270 320 291 224 127 101 95 106 95 92 65 70 74 42 39 65 102 92
145 122 126 75 12 48 47 180 182 164 112 159 126 105 98 200 243 238 205 202 210 188 150 110 112 124 133 158 181 210 294 252 253 194 149 92 114 112 128 107 108 93 110 98 53 40 105 118 124
90 90 55 22 9 -8 -21 265 184 108 89 126 84 121 135 176 191 217 197 207 274 279 176 160 151 168 191 227 239 229 214 133 91 175 111 99 108 61 135 138 128 113 115 80 54 65 114 151 131
100 121 27 -41 -25 -49 45 236 147 164 140 170 100 162 158 150 278 277 216 204 228 236 256 167 172 162 180 170 164 125 119 142 133 168 131 -20 119 19 120 149 124 100 98 71 73 84 121 136 136
40 128 91 -56 -44 -105 27 111 69 64 96 146 88 103 169 270 283 278 189 182 166 138 131 191 171 132 123 120 107 92 118 81 81 125 102 25 36 68 100 134 134 138 92 97 91 85 134 151 175
106 130 65 -14 -63 -70 13 68 79 147 115 116 39 108 305 296 291 240 164 193 152 119 94 146 153 124 97 92 90 58 52 25 45 13 44 96 155 107 139 100 134 121 111 123 98 70 125 162 177
58 92 25 -44 -110 -33 22 51 56 88 109 93 47 88 238 224 161 187 144 210 205 182 130 131 147 102 83 66 59 45 32 35 87 109 112 116 108 104 146 175 185 152 144 147 123 96 108 119 146
49 44 41 -4 -28 18 20 44 55 41 73 76 49 66 119 136 117 120 189 306 315 248 163 144 162 98 73 93 72 75 73 55 106 105 56 103 131 221 160 225 185 135 135 158 130 114 85 97 114
55 31 4 6 35 70 40 67 55 52 106 100 58 91 133 132 118 140 293 314 306 231 158 122 140 98 72 83 86 84 57 60 91 119 117 211 230 226 211 252 222 193 136 118 113 110 73 91 134
49 40 15 -12 11 59 67 107 83 62 56 58 42 68 125 121 88 214 334 317 290 233 184 151 129 128 118 78 83 92 98 71 90 145 174 163 216 224 272 228 228 177 157 105 85 99 71 122 138
53 79 31 -20 -32 41 75 81 48 58 95 82 73 63 150 139 79 160 293 320 302 248 218 201 137 113 126 132 151 142 146 117 110 126 185 227 261 244 235 282 286 215 248 85 79 105 104 143 121
139 83 104 42 22 51 69 58 40 24 56 77 109 86 172 123 103 142 283 322 338 308 286 257 204 165 188 198 199 174 138 127 122 116 158 217 287 269 305 317 279 240 237 68 69 71 132 135 104
244 245 204 121 57 66 71 41 16 52 19 20 159 181 189 169 118 221 321 320 311 305 354 290 219 185 271 300 223 162 124 134 130 92 131 169 225 296 361 388 328 161 216 145 109 138 156 166 119
317 266 221 130 40 30 48 42 52 74 82 112 186 193 152 218 230 292 401 363 341 370 366 302 234 234 304 311 246 160 123 124 144 120 125 169 254 268 307 381 331 217 236 209 168 204 180 130 129
205 271 216 94 76 40 40 -24 55 76 78 74 128 131 127 165 264 332 415 515 455 465 424 348 299 297 335 284 202 141 84 93 146 196 234 214 329 437 617 486 434 368 318 295 220 202 174 121 129
257 264 109 150 10 22 74 60 57 111 67 76 140 166 144 133 270 393 478 502 478 490 436 352 310 297 281 228 159 138 110 103 112 190 284 354 611 569 593 639 384 360 259 234 232 268 276 212 156
249 142 50 102 -13 15 118 47 50 57 53 16 53 152 113 98 285 465 527 458 499 490 443 361 304 271 223 207 179 182 163 157 102 130 165 260 521 589 385 310 129 209 241 251 175 223 239 181 192
141 187 240 157 59 19 100 247 93 33 26 9 -36 -12 63 109 295 445 502 430 470 427 385 338 280 233 222 214 204 219 187 144 23 55 109 136 118 172 182 251 198 292 323 289 134 149 146 163 149
142 175 227 128 155 147 49 163 53 33 43 29 59 150 61 133 287 334 380 365 432 403 359 328 276 217 204 207 213 211 182 106 112 74 108 121 110 165 156 123 145 239 259 297 129 109 125 203 117
172 141 243 101 159 82 -18 162 103 62 -11 11 -10 100 86 128 300 286 367 410 432 351 374 320 285 202 205 201 224 199 179 175 166 151 112 104 108 110 114 62 23 57 31 4 11 -14 -12 77 50
77 61 189 152 155 51 31 145 -17 66 32 23 10 75 90 126 330 360 425 419 454 346 376 325 295 208 194 203 221 209 189 195 186 145 99 115 103 105 11 -1 33 44 86 102 80 48 13 52 158
91 85 283 300 207 99 63 168 132 61 33 58 12 93 100 132 283 350 372 368 386 346 350 321 273 221 192 219 208 219 231 228 186 166 89 83 106 117 89 97 87 47 59 86 84 98 71 140 151
187 205 70 231 213 127 147 168 56 63 102 67 81 130 128 122 237 260 271 284 445 285 323 329 265 228 162 188 188 195 223 251 213 166 138 111 85 86 77 89 53 28 2 16 40 50 54 60 41
163 297 190 154 152 93 131 115 156 52 120 144 171 215 231 103 122 176 246 331 395 359 331 277 257 248 184 166 170 174 187 202 209 210 188 160 150 110 78 68 53 21 10 22 23 13 31 6 28
96 113 201 161 173 171 214 248 252 349 195 203 263 264 170 114 128 127 249 277 366 386 324 267 243 237 217 185 171 155 192 187 180 190 181 212 203 186 165 135 77 51 43 49 52 76 90 61 82
95 104 101 138 152 104 132 58 238 351 335 191 241 259 241 201 78 71 128 244 325 332 331 299 252 237 250 203 190 152 162 204 201 186 180 178 185 191 201 178 168 142 104 88 69 94 99 96 94

GFSSGP_con_3kmhel_090.txt.gz
Helicity
58 48 40 56 57 80 88 58 -16 22 79 60 77 112 134 163 188 162 51 19 81 73 43 53 66 88 126 135 131 130 140 142 122 121 116 117 126 132 131 137 141 137 130 131 130 121 134 135 168
48 49 66 65 82 97 96 71 28 30 97 77 101 115 191 227 177 149 57 46 52 50 47 62 87 93 118 122 112 120 127 130 130 123 121 136 148 140 135 124 135 128 121 109 96 111 116 140 179
68 73 89 86 82 84 132 36 59 43 63 108 144 151 186 170 81 65 35 18 27 32 48 50 87 94 88 98 96 114 124 134 145 148 122 119 119 121 135 131 121 117 102 79 81 95 105 147 162
101 122 125 93 32 29 16 -0 34 29 95 119 159 179 248 89 89 61 104 62 83 83 91 87 101 92 73 80 99 111 145 150 165 168 133 120 111 120 113 136 110 90 77 62 69 70 89 130 154
127 164 178 98 5 19 12 28 66 61 125 111 103 164 159 157 131 159 149 166 192 153 127 143 120 99 83 90 100 131 166 223 313 397 374 384 282 91 81 110 99 65 60 74 80 59 108 135 172
181 215 206 106 3 -2 5 -7 42 117 152 108 168 228 220 153 241 195 197 201 188 172 180 189 160 129 93 85 104 130 245 261 282 326 313 311 313 171 23 58 102 78 83 97 75 86 101 150 161
180 271 187 104 4 -34 29 25 46 156 169 137 142 302 236 158 161 250 310 301 220 183 189 207 183 162 126 98 123 174 230 259 245 253 224 190 325 196 124 26 79 78 94 91 102 87 111 153 144
136 261 219 100 66 -64 50 35 35 91 90 125 175 227 194 118 217 306 295 251 215 215 193 173 192 194 186 201 202 174 183 165 131 106 119 151 171 287 191 31 56 110 123 98 118 101 106 140 167
157 276 259 87 95 11 17 184 17 121 143 130 144 147 97 313 286 295 285 241 191 197 188 180 183 202 173 169 166 124 114 121 123 159 149 201 183 354 64 -38 64 132 99 111 128 104 105 184 165
240 287 206 122 35 -34 -18 38 -23 52 101 111 119 177 259 390 309 270 277 245 199 158 118 156 166 201 131 120 103 72 82 123 116 116 116 180 167 159 111 -1 124 166 149 126 108 102 119 234 246
195 216 180 17 -33 -21 6 32 -44 44 89 87 108 173 227 348 266 212 233 221 171 131 109 143 181 192 115 91 58 51 88 132 94 75 86 141 78 76 100 122 164 195 164 160 137 104 162 251 229
163 165 129 21 -22 13 33 48 44 72 52 61 72 129 214 205 180 162 194 179 225 166 119 133 143 169 110 83 60 56 80 98 105 82 107 21 112 155 121 122 119 122 132 178 137 150 141 229 193
179 102 91 57 29 70 102 92 93 111 68 50 59 91 137 145 133 141 145 201 275 214 128 115 133 141 119 101 79 79 82 86 99 86 86 -12 35 91 125 82 111 184 157 132 146 134 143 174 197
162 119 86 111 72 76 121 114 128 49 72 47 55 86 96 140 105 221 225 276 288 234 156 115 126 128 107 96 89 91 95 92 106 90 98 91 164 145 79 87 92 104 134 161 136 120 128 165 214
136 106 112 93 101 86 40 55 86 36 81 59 63 105 123 131 204 214 245 273 306 226 189 129 131 139 118 114 104 92 80 92 97 93 107 153 168 166 148 167 133 117 168 162 147 132 151 216 211
199 167 168 131 102 74 93 31 51 53 86 82 52 103 122 128 206 241 275 285 285 293 235 177 176 138 114 129 162 164 145 130 92 100 90 133 194 215 175 166 167 201 158 175 159 171 144 230 206
202 203 188 129 114 110 139 87 1 -12 41 49 41 64 98 158 195 288 319 311 384 353 309 247 229 214 166 165 197 193 176 152 105 103 104 163 171 242 322 250 155 229 290 224 178 198 213 217 241
246 238 207 169 124 156 137 87 29 -4 -19 26 57 105 109 198 223 340 374 329 398 386 295 273 269 297 238 246 259 182 146 113 111 81 64 127 172 179 183 200 250 294 258 257 165 204 202 246 269
208 219 220 184 161 127 242 178 52 12 27 6 103 115 141 191 207 380 433 426 478 400 356 325 326 316 300 276 258 150 110 78 92 98 74 95 209 340 375 382 280 257 334 185 200 171 187 190 258
199 241 209 147 157 235 261 159 56 -0 81 27 65 96 108 115 254 373 515 521 511 442 381 341 337 323 282 245 203 123 104 51 57 69 61 18 90 163 241 279 251 371 202 309 259 140 296 242 246
228 238 244 171 158 53 114 -126 -13 -2 68 84 69 133 116 156 295 406 546 550 552 441 406 367 328 314 281 269 211 153 100 81 40 56 100 46 100 163 346 371 499 380 344 280 203 283 208 202 275
120 173 177 131 129 54 208 -41 -32 -57 122 135 96 79 73 150 221 420 575 594 497 426 386 362 316 318 284 272 217 187 106 76 27 51 61 153 192 181 288 423 633 602 373 267 243 308 210 223 184
124 149 134 222 160 53 69 116 -186 -78 34 85 56 29 20 72 216 361 556 554 490 447 397 348 296 293 292 254 214 179 124 55 68 91 102 112 205 328 615 809 837 225 158 184 227 235 241 190 240
151 175 221 161 121 25 108 96 -192 -119 -48 28 24 -10 -41 9 196 337 452 526 516 422 390 324 284 272 275 259 198 195 143 139 130 81 74 77 97 100 169 126 86 129 124 83 192 174 187 214 185
138 146 167 142 146 96 85 41 -121 -6 -69 9 6 50 4 78 202 311 436 485 458 422 364 315 261 253 238 239 187 182 149 164 175 141 63 66 40 25 34 152 219 103 59 129 333 122 33 93 135
60 101 169 158 67 37 73 6 -93 -188 23 82 68 74 50 103 189 308 402 444 455 415 340 300 237 247 219 211 174 155 150 143 143 156 99 55 62 42 59 88 105 117 83 102 126 153 194 201 146
67 72 26 122 95 73 73 103 44 104 231 46 33 96 71 125 218 278 326 384 393 327 361 299 208 220 210 172 169 141 137 121 105 123 80 70 34 38 74 93 88 38 14 -14 -23 78 95 83 21
76 83 93 51 83 52 56 57 148 286 203 178 237 125 113 144 186 234 288 288 232 307 302 232 186 213 229 165 157 148 128 105 91 106 105 111 100 79 81 116 67 21 -5 -23 -24 -47 -29 -11 -5
43 57 69 100 133 123 96 101 251 455 379 574 528 442 222 167 156 170 134 141 251 258 287 235 153 174 210 211 162 153 139 123 89 93 88 113 129 144 140 133 109 56 53 35 15 9 -3 11 21
51 63 7 90 103 133 93 43 142 374 295 471 536 519 271 381 282 103 138 199 197 258 272 225 179 170 195 207 206 158 142 132 122 102 86 80 119 133 137 137 157 145 83 47 53 35 27 51 80

GFSSGP_con_3kmhel_093.txt.gz
Helicity
56 67 75 87 90 105 83 81 67 36 69 37 62 67 68 105 111 105 113 -10 29 44 25 16 27 81 134 153 152 149 146 152 153 149 161 172 176 176 170 171 183 188 171 173 183 186 144 129 157
65 73 99 87 112 109 83 68 59 13 11 60 123 128 111 128 197 191 126 -1 47 52 38 23 48 96 129 147 160 149 134 141 158 156 164 175 187 182 175 169 151 141 139 155 166 153 162 166 206
80 93 120 110 113 109 113 86 116 87 16 33 108 109 131 120 139 89 25 62 31 24 27 27 76 96 119 132 141 134 125 137 150 190 165 154 148 147 138 145 147 140 129 134 139 160 145 176 196
123 158 164 122 87 56 57 57 125 85 11 25 106 141 137 136 144 80 89 93 55 57 47 48 90 91 100 104 114 125 133 171 161 173 173 151 145 138 140 124 124 152 130 111 135 164 164 178 203
180 190 219 112 52 85 83 16 32 59 47 -14 116 137 129 122 112 161 156 122 120 83 49 88 109 106 103 102 105 120 160 174 209 210 137 205 176 160 139 102 66 86 93 100 145 160 182 187 189
229 229 264 109 43 81 80 39 65 77 47 16 160 205 148 140 169 169 203 157 130 124 103 130 131 122 119 119 115 120 168 247 293 364 401 412 281 293 227 118 172 75 93 97 117 133 170 151 170
223 285 241 146 4 22 83 58 68 46 59 61 182 233 137 204 193 217 228 174 153 158 193 174 166 138 129 128 132 155 213 225 294 308 332 326 338 255 63 88 162 38 83 109 123 146 143 166 162
207 277 277 151 44 -13 37 98 115 74 24 97 202 163 160 156 248 275 281 206 166 162 181 199 170 176 179 157 128 183 220 252 281 303 333 343 304 196 216 180 203 -3 94 143 128 152 162 162 128
216 324 336 142 126 65 82 197 183 164 23 69 159 171 91 330 332 319 298 218 193 176 141 153 149 175 188 200 168 181 159 158 164 184 212 238 214 216 248 251 172 26 74 118 165 155 172 132 121
264 340 323 198 134 53 62 88 161 178 162 74 81 169 190 362 365 340 283 229 197 192 161 138 132 167 187 179 170 184 168 134 147 134 139 209 213 195 240 216 148 74 45 91 161 211 175 162 146
243 246 282 167 119 57 2 16 -28 153 253 112 40 109 156 246 297 293 254 215 155 175 178 133 135 175 197 157 134 156 129 116 113 149 144 133 226 191 202 117 161 60 35 122 215 258 230 188 176
219 206 163 142 82 75 33 26 42 56 110 117 81 82 182 210 215 205 208 200 192 204 119 126 137 171 166 148 115 122 124 106 101 92 86 120 184 246 194 195 187 97 191 229 255 265 218 219 204
171 180 148 131 62 60 56 46 95 103 38 68 110 116 117 137 144 145 171 190 226 210 90 102 137 145 159 156 126 121 105 107 83 85 82 71 145 19 99 205 169 189 196 194 247 261 228 198 200
153 102 79 97 79 62 82 77 144 55 48 90 106 152 136 135 136 201 209 223 222 194 107 110 123 109 151 153 148 138 116 100 110 97 94 74 79 57 74 137 121 156 143 159 221 256 273 228 179
125 64 98 106 132 101 72 -0 94 108 90 126 120 112 137 117 208 179 161 259 253 215 164 138 126 97 152 158 144 163 125 131 118 101 103 95 64 102 16 49 33 62 118 148 228 308 292 250 210
177 139 96 57 122 116 121 -95 64 50 89 115 114 118 121 103 217 165 191 252 256 310 229 159 148 133 168 157 153 151 165 142 127 111 109 116 113 126 127 86 72 76 155 129 167 307 280 260 232
161 152 144 123 104 132 153 46 46 34 76 128 91 92 87 129 142 137 135 294 314 321 313 251 197 166 188 183 156 172 174 194 157 143 105 88 130 133 129 132 90 113 118 131 162 291 296 303 267
171 161 124 100 100 139 145 93 106 65 36 101 66 49 46 72 124 150 200 257 356 329 310 298 230 203 218 233 217 191 179 187 189 114 126 123 122 120 174 213 146 159 153 144 186 278 306 324 278
102 87 73 124 145 115 67 81 44 76 51 83 43 53 34 73 92 191 291 364 393 385 316 329 309 244 268 256 264 193 178 164 134 100 50 80 136 169 180 210 294 192 159 176 225 327 384 365 321
91 51 19 28 93 119 98 38 31 24 -31 61 36 60 29 89 72 175 346 358 389 435 316 328 331 321 266 240 209 182 180 129 87 58 38 44 53 178 139 301 249 235 264 216 288 254 445 384 281
85 76 62 44 67 76 62 9 44 -17 19 19 -11 2 53 129 144 206 299 348 399 409 373 342 366 338 270 242 260 224 207 154 92 54 -4 22 76 93 145 280 281 300 399 471 204 287 413 397 287
67 50 53 70 82 99 191 95 35 14 6 -1 -123 -52 28 77 81 217 289 386 375 408 381 351 343 309 250 282 232 219 150 146 109 76 45 31 15 65 95 190 275 272 431 290 303 312 298 351 320
48 65 59 71 121 135 186 255 89 19 38 30 -53 -47 51 109 141 195 278 377 420 484 450 363 330 288 232 263 218 198 137 105 123 121 59 88 60 85 60 139 274 318 216 477 480 292 289 305 267
87 74 90 129 176 162 169 245 34 34 -2 6 21 -24 69 93 100 175 215 365 479 492 442 355 318 270 231 251 198 184 143 137 122 152 133 123 136 206 120 167 263 548 506 714 731 359 301 286 302
95 103 140 124 206 223 194 158 136 44 -43 19 77 53 60 61 48 123 200 301 463 463 399 326 298 277 255 237 181 159 124 151 129 152 147 138 107 150 149 270 476 628 610 443 274 231 194 200 175
39 71 139 104 130 83 70 105 -47 -47 26 15 86 70 55 41 40 93 183 397 417 416 390 325 280 258 240 216 176 148 116 121 109 149 113 78 84 52 110 147 92 83 144 95 168 162 55 215 46
30 55 44 90 75 108 88 10 -10 148 218 163 149 1 -47 33 85 23 279 318 305 336 359 311 285 241 198 169 177 154 121 114 114 99 97 35 56 81 54 70 116 121 126 65 28 -18 124 187 23
44 53 98 144 158 94 24 -11 47 213 328 301 257 132 -27 58 46 149 248 217 250 262 282 289 258 247 187 143 142 155 134 104 101 112 67 43 56 85 113 111 101 102 91 69 33 53 105 79 -2
44 48 57 86 64 94 55 26 122 244 360 447 486 566 250 127 76 114 129 155 222 211 234 258 235 209 176 144 120 135 130 115 105 98 80 62 72 76 80 116 108 99 103 137 120 103 -0 6 61
55 51 62 59 69 73 55 24 23 247 324 416 587 588 456 202 101 154 121 161 179 145 168 179 184 172 174 173 129 110 142 131 124 86 93 106 89 110 120 121 128 129 127 101 57 57 73 55 39

GFSSGP_con_3kmhel_096.txt.gz
Helicity
80 77 94 104 91 100 67 75 52 43 36 21 25 32 45 79 93 65 104 9 6 33 29 50 86 114 131 154 168 160 150 139 142 166 182 193 187 190 182 179 188 178 160 147 166 152 137 119 134
91 106 141 107 107 118 71 73 80 56 6 31 26 35 49 49 92 110 187 -29 27 44 19 45 85 127 128 152 154 159 149 139 126 147 173 189 187 177 169 181 192 186 188 162 157 141 141 141 173
122 143 146 113 114 143 95 106 121 131 22 45 50 18 48 40 82 80 46 62 37 12 29 32 52 96 128 145 160 160 133 125 138 178 170 182 204 168 157 172 175 180 171 161 151 149 166 173 208
130 194 201 131 88 55 64 88 117 148 114 72 49 18 52 75 97 77 83 100 85 46 59 42 64 80 93 108 133 144 137 130 149 188 196 158 138 168 149 155 133 123 130 125 137 171 194 207 237
186 204 221 130 48 91 42 21 64 116 86 70 95 59 47 97 111 122 158 131 108 70 64 70 90 93 98 94 113 131 150 163 192 125 133 196 123 53 85 96 84 76 83 119 171 190 204 216 211
215 210 244 135 53 74 61 53 96 103 47 9 93 93 43 116 146 140 173 116 69 109 103 103 119 118 123 109 119 121 133 149 168 176 202 277 330 296 31 309 124 48 60 118 156 202 198 207 206
180 234 220 161 -1 3 39 55 125 116 52 30 93 163 74 91 152 176 172 130 75 97 132 135 139 137 137 130 129 139 154 164 195 226 239 284 324 331 262 287 195 118 26 121 176 199 206 202 205
180 214 208 196 9 -36 -4 83 101 128 180 80 70 131 91 96 203 242 200 155 120 112 145 143 147 139 152 152 130 160 185 220 254 234 272 315 293 295 299 252 213 114 65 96 163 210 195 183 176
212 254 235 243 105 51 55 121 147 120 196 232 95 43 83 194 313 288 236 192 153 131 141 141 144 139 155 166 183 193 221 244 220 248 294 297 289 256 214 198 155 68 152 100 146 217 173 162 163
249 242 216 200 99 74 77 71 48 131 216 220 191 83 45 214 270 264 255 216 153 142 129 139 132 138 164 154 210 235 192 178 193 218 254 271 243 210 152 93 127 124 164 173 123 198 185 186 180
216 212 215 151 86 67 25 47 -4 76 161 179 174 146 76 116 185 214 248 228 165 131 126 134 135 149 169 148 190 187 176 174 198 212 197 183 189 168 141 108 149 254 183 241 175 226 230 190 174
216 180 173 132 72 66 38 31 38 12 69 62 120 143 129 147 143 200 197 203 178 170 129 140 141 157 145 138 170 188 139 142 157 154 173 176 159 148 168 168 181 218 232 165 265 251 236 195 175
162 181 150 107 60 88 66 19 42 58 26 3 91 117 164 147 112 118 152 193 192 182 164 162 165 148 145 131 152 209 145 132 111 122 129 125 133 165 274 215 202 276 221 174 263 264 214 184 169
154 72 86 127 107 86 49 15 73 35 16 67 36 106 144 171 158 152 174 158 193 187 198 203 171 139 141 114 154 175 157 125 129 140 104 101 78 88 191 166 215 255 230 344 232 220 237 203 181
114 106 125 118 126 113 65 20 62 82 52 73 104 102 105 131 146 132 168 223 214 200 242 261 187 157 131 132 146 158 152 115 139 135 114 105 115 61 58 227 332 324 174 170 193 280 280 250 207
139 114 111 71 130 149 135 -39 66 115 101 65 92 101 80 96 128 110 116 170 240 255 280 256 223 167 123 144 149 177 169 148 136 157 148 120 119 53 19 156 108 186 238 219 231 269 255 233 206
193 171 140 116 105 119 150 82 74 112 109 93 96 106 112 113 109 110 127 177 246 265 303 265 259 189 138 150 164 177 161 175 171 181 170 141 127 102 57 62 76 101 162 189 237 294 280 267 221
172 174 123 90 77 120 105 73 116 75 39 26 71 79 97 124 129 117 124 197 246 278 294 306 269 239 201 216 205 200 175 159 163 186 171 150 131 123 115 130 131 124 136 168 222 258 280 291 260
126 102 91 106 107 81 84 14 34 66 17 -15 29 50 53 57 73 97 122 186 260 268 318 332 307 283 285 280 252 217 203 204 165 142 164 154 86 139 140 148 179 158 100 165 173 261 313 314 307
116 108 102 68 70 87 27 -53 -11 12 7 2 3 24 40 54 12 62 98 202 242 321 317 329 291 291 302 291 253 215 201 180 153 115 118 118 77 63 125 226 225 208 160 233 205 268 351 335 290
123 120 100 72 39 72 29 -48 -56 -25 -8 -1 37 2 24 18 12 46 112 169 211 308 333 365 296 297 297 293 290 235 204 153 167 135 101 86 66 -2 97 196 268 301 239 291 240 259 275 395 265
109 75 63 67 60 34 59 -24 -20 22 3 42 45 44 33 -19 36 55 105 152 193 227 306 358 298 298 284 327 276 247 195 187 162 154 96 63 24 6 56 224 276 236 224 273 272 320 322 356 402
86 101 77 74 66 54 81 107 196 95 36 42 76 65 59 21 17 54 93 142 202 209 317 364 322 285 302 280 255 238 183 153 127 136 123 70 33 48 80 121 187 219 266 249 275 318 410 435 379
85 89 63 69 76 84 73 173 68 6 5 84 98 132 101 85 69 83 123 141 206 249 256 354 343 273 275 242 246 222 214 167 161 146 135 78 64 102 108 178 181 226 254 283 290 365 351 375 335
99 88 107 108 83 104 21 54 159 67 28 26 67 132 165 139 85 82 129 162 228 282 323 340 344 251 266 222 227 201 187 187 172 138 155 125 75 54 108 157 185 187 228 257 316 425 461 372 431
77 68 75 74 60 59 46 41 -6 59 45 121 133 126 154 212 154 103 139 172 253 264 318 348 319 253 262 200 195 173 166 159 166 139 148 126 56 50 89 128 172 167 230 251 401 475 557 476 414
72 49 75 78 5 46 68 40 44 91 155 222 217 211 226 318 213 84 97 159 267 297 308 304 286 226 213 194 187 159 144 149 167 126 115 129 71 67 80 121 148 188 195 252 269 355 299 144 114
75 46 82 62 69 64 69 50 50 83 175 239 280 242 229 300 233 107 41 159 218 251 211 201 206 192 199 186 153 155 132 118 120 133 118 103 99 94 110 148 132 137 128 136 111 150 126 58 99
93 60 38 54 79 66 67 62 48 55 164 205 283 276 287 287 200 81 128 139 168 154 126 157 187 183 159 172 128 138 115 106 101 97 95 81 77 109 124 122 136 141 124 131 123 137 122 113 124
56 55 55 74 94 77 74 54 10 -7 31 288 349 357 326 302 156 110 83 140 198 149 120 113 147 204 146 125 107 93 96 92 86 72 74 83 60 56 83 102 119 142 151 163 124 115 85 90 117

GFSSGP_con_3kmhel_099.txt.gz
Helicity
62 74 73 76 56 77 61 45 49 62 68 37 48 27 27 36 46 63 63 36 6 44 49 68 92 114 112 110 118 124 137 144 145 149 171 185 192 219 206 192 157 119 124 121 129 128 125 124 135
95 100 107 82 75 92 59 54 45 48 51 26 36 38 23 25 37 51 74 16 24 71 49 61 98 106 110 127 133 120 117 128 134 143 156 185 195 201 191 190 166 140 127 137 148 140 131 127 149
121 122 100 87 86 99 73 71 78 96 58 24 34 12 27 27 21 2 27 56 58 52 46 57 90 104 105 114 125 125 116 102 121 131 152 175 187 170 148 154 126 142 130 123 129 151 164 159 176
136 144 138 131 42 46 55 57 105 138 100 43 52 74 24 24 40 9 74 79 75 47 62 71 93 112 117 113 116 124 119 101 101 140 153 178 192 195 132 111 103 112 102 97 119 160 192 196 186
197 182 151 124 41 92 44 68 95 125 103 92 91 82 44 30 33 39 82 86 74 62 58 75 112 133 134 129 125 135 140 142 129 139 172 154 144 145 167 176 31 69 109 127 121 176 213 185 181
209 207 198 102 21 43 51 31 62 30 42 56 86 59 22 38 79 72 90 96 73 88 54 73 114 134 143 142 130 135 138 153 123 88 104 119 266 263 205 183 135 100 108 121 117 149 182 198 199
203 230 207 131 24 35 42 54 106 102 55 63 70 82 39 48 83 102 104 122 106 89 80 87 116 130 137 133 143 137 127 137 124 144 184 217 224 247 270 211 209 233 162 143 151 127 177 191 205
201 210 188 160 19 13 -13 45 112 102 133 79 49 98 66 46 118 141 152 144 118 106 91 79 105 139 122 119 147 158 135 128 129 146 186 213 205 201 190 216 230 229 188 283 201 82 198 201 210
242 234 199 177 85 73 36 59 85 133 131 140 135 94 45 24 132 174 190 161 130 112 100 105 99 112 124 121 150 177 193 178 171 145 194 195 172 177 169 192 201 181 165 178 252 150 189 217 203
278 263 211 204 99 62 50 77 76 91 98 131 162 64 42 -2 70 105 173 149 140 125 118 111 118 105 112 120 152 205 277 272 227 176 190 207 210 195 186 179 168 110 131 219 287 134 200 181 146
254 226 228 173 77 101 45 39 60 61 55 43 123 75 90 33 18 61 73 109 153 125 140 133 139 119 118 134 157 184 240 258 172 165 214 240 245 243 224 193 119 87 60 124 213 181 152 138 130
238 179 151 144 92 92 47 31 14 44 50 -39 -13 26 69 100 78 64 61 95 157 140 133 151 145 130 118 141 131 142 181 189 172 168 212 194 180 175 166 140 100 171 110 266 244 175 159 130 122
219 195 129 86 66 62 45 4 27 36 29 -7 -26 13 59 96 115 99 109 82 66 91 161 166 170 135 133 139 113 102 132 184 179 194 174 155 163 149 126 160 198 238 245 303 308 215 229 162 130
140 64 78 122 99 85 41 19 24 12 44 57 9 22 59 110 120 102 88 82 86 81 147 180 191 158 147 152 115 100 111 145 189 186 137 98 104 107 98 135 221 206 240 267 317 339 198 137 110
157 110 98 98 95 86 67 -16 -16 46 47 37 46 78 79 91 98 112 85 72 106 96 125 196 220 182 153 157 114 104 110 136 152 160 121 102 90 74 72 83 171 231 274 298 324 257 260 108 111
148 119 84 105 37 99 87 -11 80 74 43 26 61 72 108 105 101 74 55 58 81 97 129 189 223 209 168 159 138 114 116 131 116 131 126 109 71 65 84 83 163 310 312 348 370 305 270 143 111
159 147 92 132 52 102 100 25 34 89 64 46 84 84 111 123 130 101 75 50 73 105 145 176 217 222 183 154 151 118 143 128 106 140 149 133 106 81 62 80 206 298 247 259 340 328 237 173 104
142 125 91 86 100 101 88 57 97 120 70 60 63 65 70 68 91 105 100 60 56 99 139 171 209 219 198 197 170 144 167 161 127 133 151 137 123 112 91 109 71 120 251 242 186 212 198 182 113
107 127 100 109 120 101 104 61 81 81 95 64 67 45 46 55 52 57 92 85 70 110 167 171 242 255 254 263 236 191 199 177 154 143 116 139 161 145 122 135 95 50 71 176 224 237 182 151 152
111 100 95 79 53 84 59 7 31 61 70 69 61 47 45 51 39 29 31 48 64 93 152 177 214 275 250 264 217 188 213 165 165 147 133 104 83 132 163 158 150 105 107 117 208 235 229 243 200
106 91 94 82 73 48 67 -21 11 31 39 58 60 53 39 41 50 43 38 49 44 87 152 176 248 286 285 272 274 246 263 193 163 131 122 116 107 41 73 163 172 172 160 131 145 155 210 260 238
68 63 67 68 69 91 88 7 -2 -1 7 12 24 40 71 74 40 34 10 36 40 113 88 114 212 262 308 301 295 228 212 192 144 134 119 120 106 25 2 110 180 221 177 215 162 183 215 307 247
89 86 72 65 55 70 43 47 -48 67 24 162 191 254 195 127 60 18 -16 -8 43 95 101 122 186 202 288 309 266 204 174 154 120 127 119 100 87 72 -9 -23 185 178 200 228 266 222 147 225 275
88 103 87 73 59 65 4 40 -24 -63 55 85 36 131 240 208 158 115 1 -19 65 68 98 108 183 230 232 264 263 197 147 153 145 131 128 118 97 70 18 67 92 209 219 237 233 207 262 276 296
116 100 89 67 68 64 48 34 35 86 35 63 7 44 122 118 134 147 51 35 102 73 81 144 208 248 225 220 229 151 103 141 119 127 125 127 79 37 58 100 158 188 142 166 231 277 316 390 284
74 87 94 74 69 85 60 34 19 50 23 28 59 59 75 109 102 150 156 75 67 97 94 152 198 239 209 199 199 112 110 116 89 98 96 111 60 13 5 27 106 159 168 158 206 256 252 217 357
113 107 102 85 63 48 51 42 66 104 100 89 71 71 102 158 132 185 198 113 76 102 125 137 205 219 203 198 184 105 110 108 87 83 65 76 50 12 10 37 42 89 104 113 139 203 224 316 472
121 73 85 91 74 58 34 38 45 42 26 67 66 58 91 156 190 143 151 76 75 85 103 118 207 194 150 167 161 103 97 98 77 68 59 37 37 29 40 45 56 63 95 100 145 147 175 348 384
102 110 104 86 85 84 70 54 45 8 16 13 7 -6 16 123 252 142 90 75 71 78 94 195 189 120 127 146 137 103 97 92 78 54 44 42 27 33 36 69 85 76 65 96 118 123 170 186 205
85 102 84 70 92 90 83 28 65 75 54 -1 15 -16 -73 103 298 168 139 118 83 98 142 176 138 124 123 132 125 80 94 88 77 52 41 36 32 34 24 43 56 78 80 77 88 108 88 94 86

GFSSGP_con_3kmhel_105.txt.gz
Helicity
44 14 6 22 61 63 20 6 25 57 71 50 64 12 -10 40 29 65 24 67 106 112 112 60 57 65 62 72 82 73 92 111 117 110 98 111 107 99 86 91 69 69 89 83 67 63 59 78 78
3 14 27 36 88 55 26 8 60 7 110 93 67 66 42 27 79 68 39 63 82 100 94 64 76 82 77 67 59 63 78 93 107 110 103 101 117 119 110 84 75 78 77 72 56 58 69 82 88
-32 17 55 75 56 44 -21 66 54 56 94 48 50 29 12 20 93 60 94 71 74 86 78 101 81 68 72 64 63 66 80 92 99 104 105 123 127 117 79 87 76 70 65 39 47 45 62 106 113
49 63 78 105 53 17 -10 51 49 79 56 43 21 31 84 58 76 47 72 68 72 75 74 143 93 67 69 68 71 77 91 100 101 98 104 116 115 78 107 104 83 78 62 48 48 42 72 117 117
35 72 84 75 42 -8 36 62 62 30 60 56 51 41 57 75 76 73 69 66 78 74 84 58 99 84 82 79 82 88 98 97 92 101 114 119 91 95 105 89 125 92 68 121 111 97 122 132 114
97 74 79 71 39 15 6 93 47 62 36 69 80 45 57 64 71 68 72 73 83 77 71 68 95 90 90 88 81 87 97 100 88 95 110 84 104 88 108 60 143 119 84 132 121 98 145 143 127
69 81 67 43 29 15 29 91 72 47 26 11 41 61 30 86 55 84 65 86 95 80 77 83 83 90 96 98 91 89 95 87 87 66 71 74 130 145 164 118 119 111 77 129 199 115 158 186 163
70 80 58 60 78 36 33 95 57 47 29 116 103 75 36 201 106 75 70 80 96 89 77 87 84 97 101 103 100 102 95 83 75 65 58 99 152 151 135 114 120 133 81 104 120 186 214 166 111
51 80 53 46 61 32 69 140 63 28 8 93 79 57 154 179 143 61 80 74 85 94 81 88 98 101 102 93 99 109 107 88 83 89 89 112 91 90 106 99 161 96 89 137 146 202 248 228 130
113 114 30 44 20 39 109 71 41 83 67 83 96 149 156 150 133 75 79 63 65 82 83 83 87 109 117 101 109 84 97 89 95 111 134 92 77 75 83 96 125 76 121 124 141 183 251 250 200
121 53 80 48 26 85 102 73 43 67 94 16 27 34 42 93 107 89 62 53 45 53 63 75 89 113 111 97 133 76 104 84 91 87 101 89 86 85 82 107 112 106 110 118 160 225 246 209 191
113 83 65 75 43 97 89 58 65 37 51 28 40 30 69 57 85 88 108 42 39 59 61 63 93 107 118 90 130 94 96 111 104 97 73 83 93 84 78 113 98 111 132 153 189 232 235 203 58
95 95 81 35 57 78 77 75 74 113 71 51 48 73 68 59 67 80 59 33 36 55 80 78 83 110 117 90 137 91 81 105 91 96 65 69 93 93 108 101 98 105 145 163 194 188 234 228 65
58 64 78 72 71 86 99 71 76 80 69 67 48 36 52 56 49 53 68 64 47 53 106 113 93 116 114 101 125 117 91 96 97 88 82 67 68 88 105 113 105 148 153 137 139 175 192 119 37
100 143 111 127 90 77 51 80 63 74 86 73 55 36 45 55 38 45 43 41 56 61 85 149 94 116 121 115 120 105 99 93 119 105 93 92 80 77 103 117 125 122 105 112 113 174 201 93 32
138 121 160 100 81 94 108 49 62 0 28 54 52 47 56 52 55 36 26 34 27 49 60 138 135 103 97 121 113 117 99 120 105 109 118 100 85 78 66 93 96 84 93 130 202 224 215 84 75
120 159 101 105 40 34 67 51 43 16 28 48 80 57 39 58 76 67 52 33 29 39 63 119 134 114 84 111 111 120 119 121 117 117 122 110 99 75 66 88 64 71 100 165 203 244 203 167 133
166 78 156 123 16 50 98 47 45 85 73 141 100 40 51 38 62 66 79 41 39 44 73 128 166 135 100 117 124 125 155 173 114 140 116 95 90 90 83 121 86 78 123 147 252 201 242 213 177
129 64 41 30 32 41 14 35 43 26 31 50 55 80 88 87 65 36 41 31 53 78 115 151 166 160 158 175 162 164 200 181 155 154 113 106 88 102 87 99 135 117 143 145 270 249 232 158 176
142 193 233 110 56 100 125 98 64 41 54 53 56 29 15 27 27 24 32 44 64 104 118 105 120 128 156 136 129 135 228 172 124 156 127 119 98 68 81 126 122 142 142 140 243 341 301 249 273
138 175 177 135 57 33 81 93 46 -26 0 17 4 23 41 53 58 45 39 44 33 70 108 107 92 87 136 96 135 202 152 164 173 173 153 136 84 89 75 124 142 142 108 117 169 192 211 302 406
144 109 105 126 144 151 13 136 7 17 16 38 89 114 120 127 106 88 75 56 41 51 81 78 81 68 96 115 134 161 183 175 158 176 140 117 131 101 122 170 189 126 124 135 121 139 230 266 383
133 29 29 64 96 117 129 93 107 94 41 113 106 137 117 117 112 110 125 130 68 36 61 135 99 83 99 132 103 162 163 128 142 146 135 114 100 126 147 142 120 118 104 101 104 49 41 125 273
7 56 61 46 57 153 107 81 34 36 88 124 86 59 64 67 88 74 51 51 75 54 75 109 133 114 122 141 66 169 133 120 163 160 163 126 109 120 118 152 160 137 101 90 99 90 67 40 14
22 38 136 137 143 142 32 70 43 144 115 101 68 57 61 64 117 148 147 84 36 44 69 121 132 92 133 155 98 140 108 113 157 164 121 105 109 117 135 142 120 119 157 92 127 116 105 84 125
40 52 187 172 109 80 92 92 79 170 64 42 24 67 39 68 107 111 150 187 50 42 52 61 146 75 123 146 112 111 102 153 150 136 116 94 138 101 125 132 100 86 126 126 82 92 134 121 182
54 104 59 52 83 131 30 68 80 27 105 68 93 84 85 83 58 73 138 181 237 53 39 91 114 66 120 167 149 141 143 128 143 155 121 102 118 134 103 84 50 131 73 65 113 106 98 188 253
7 27 116 87 185 155 27 27 142 119 117 94 102 90 75 55 32 35 81 157 218 160 59 114 70 95 204 236 191 191 151 121 133 135 118 135 128 109 104 96 65 65 76 78 103 108 118 101 148
60 55 73 87 115 117 78 116 116 116 99 78 65 60 8 36 36 20 65 158 273 399 74 69 92 144 218 185 213 217 140 155 127 135 118 144 100 84 87 96 100 93 91 86 80 102 112 82 65
23 30 49 77 57 82 112 65 41 29 38 65 85 40 30 20 -6 5 43 190 290 488 128 106 112 182 131 174 170 138 160 148 125 130 121 127 98 75 81 92 96 48 39 61 79 76 77 70 80

GFSSGP_con_3kmhel_108.txt.gz
Helicity
37 13 17 42 92 103 62 4 -29 -13 87 90 98 43 19 67 131 135 156 108 139 100 136 103 92 70 47 47 50 56 82 90 94 85 77 78 71 71 65 51 45 40 35 38 50 45 62 59 65
24 2 31 77 126 120 56 4 -49 42 140 207 127 87 54 65 79 76 102 59 96 96 84 85 66 62 55 66 57 63 70 80 85 85 78 80 75 66 57 50 49 49 40 38 47 51 57 50 67
12 -20 79 108 96 92 29 -156 36 121 167 121 62 51 48 56 129 92 126 60 92 95 62 75 66 59 61 60 58 59 61 69 71 79 73 79 78 67 65 57 53 59 56 53 58 39 49 69 68
51 98 102 125 68 46 13 38 24 52 110 86 49 36 34 112 109 110 121 63 109 92 108 96 65 63 64 64 63 63 66 70 72 73 71 73 65 69 68 69 63 77 56 51 53 71 103 83 77
41 94 104 70 42 17 -29 7 75 91 81 37 35 3 89 119 78 131 95 78 133 195 131 81 78 72 73 68 71 64 64 64 69 73 72 66 64 81 68 65 62 63 51 49 77 106 96 94 94
114 91 97 77 21 2 10 8 11 123 85 63 73 3 49 98 148 127 116 116 159 154 100 86 80 78 82 74 77 73 68 65 57 58 70 67 67 85 76 63 60 69 51 58 113 114 108 76 72
87 93 80 41 39 21 -10 8 48 80 68 40 40 47 16 126 146 196 161 145 165 172 116 84 77 82 76 75 80 81 80 77 57 52 57 62 58 79 86 99 82 85 71 70 112 126 84 109 110
97 105 52 61 69 49 4 26 113 117 94 32 89 81 43 102 154 172 193 182 175 147 126 77 86 94 83 77 73 85 90 89 70 60 52 46 77 89 106 92 88 115 110 88 104 160 172 159 156
40 134 95 48 70 58 26 33 64 86 65 20 93 96 87 163 122 158 179 183 164 120 111 87 79 93 93 86 83 78 86 99 89 90 81 82 83 89 102 98 93 109 146 114 142 199 187 224 156
99 170 79 98 64 39 -0 22 105 134 59 48 84 106 124 67 115 140 193 166 200 146 115 108 79 96 96 98 118 84 85 98 104 106 126 98 97 106 103 94 115 124 145 104 173 198 211 241 179
86 105 94 65 41 33 39 43 65 79 109 50 69 116 88 86 94 110 88 143 184 153 117 123 91 116 111 129 114 85 99 85 108 105 126 119 110 79 63 110 127 137 134 146 204 253 267 232 218
107 76 73 43 53 61 51 40 127 41 67 29 31 50 20 84 82 105 94 129 141 158 136 111 126 154 144 95 140 66 95 101 111 104 135 123 110 110 69 105 108 120 156 169 215 267 269 206 181
83 74 60 35 51 80 80 109 101 122 71 46 65 47 34 49 105 60 63 71 75 180 199 161 151 155 159 91 183 124 104 146 123 164 137 136 112 120 103 96 127 116 142 169 243 248 241 181 208
78 61 71 33 45 40 96 144 83 88 70 87 100 142 56 58 92 86 67 57 80 82 248 287 190 196 184 151 201 152 118 166 124 140 144 129 126 115 87 129 143 148 168 179 213 243 196 176 209
87 126 69 67 66 75 47 112 126 117 89 102 89 102 119 77 102 94 53 42 77 83 129 331 314 278 227 195 211 230 184 158 147 100 115 140 132 134 99 122 138 179 203 206 166 175 184 184 185
85 82 157 109 68 52 75 24 92 46 52 77 83 96 137 66 61 65 51 38 29 102 90 359 387 305 267 196 208 188 151 162 134 129 116 130 135 125 148 130 136 124 173 172 173 186 165 159 140
165 167 133 111 56 50 68 49 68 89 84 54 60 40 116 76 52 76 53 15 46 48 103 358 343 296 234 201 176 185 158 231 174 101 120 122 124 100 158 143 116 112 137 162 174 175 166 179 157
213 144 126 147 15 37 70 68 42 29 26 28 50 43 96 62 47 43 75 53 46 60 57 289 366 297 264 177 165 181 204 221 228 180 138 142 105 98 125 157 135 105 152 172 167 155 151 159 184
92 61 63 -6 -26 17 53 6 14 51 42 114 55 99 82 45 70 64 108 93 66 66 55 182 314 316 376 213 203 219 257 278 295 215 160 165 133 105 113 149 158 185 175 173 153 133 143 179 165
130 90 77 65 41 68 78 27 45 10 36 43 39 89 72 79 125 67 50 73 84 46 54 142 222 300 343 240 214 202 266 317 263 232 193 167 141 137 146 210 226 211 179 151 132 95 165 193 227
40 101 81 123 62 17 15 106 94 93 87 49 67 66 67 91 44 17 35 37 90 112 109 156 179 203 290 250 238 206 357 311 190 180 151 132 175 207 185 243 231 195 159 146 123 106 188 287 314
44 14 59 122 100 200 25 184 68 4 21 29 21 55 66 95 144 135 88 82 97 109 154 189 232 263 307 273 175 146 333 352 275 261 179 164 154 197 195 274 236 203 175 128 94 132 213 258 163
36 50 83 140 150 221 202 173 132 74 9 25 163 256 234 230 225 222 210 192 125 112 114 116 198 249 326 333 206 128 263 259 216 220 183 172 169 183 225 272 273 217 182 130 99 66 103 172 291
48 91 85 117 245 221 191 224 163 103 41 149 204 135 101 128 214 247 266 240 175 106 138 71 116 223 250 386 188 158 204 241 243 214 242 175 194 215 193 253 254 218 161 162 112 116 101 151 201
74 99 182 143 225 146 95 156 141 209 283 195 155 171 155 135 157 202 192 145 244 135 163 91 63 125 249 360 281 180 184 259 254 200 196 213 183 209 229 242 251 233 158 164 164 106 88 93 87
77 125 193 190 130 99 50 80 47 126 111 107 151 130 156 131 149 86 111 128 63 147 162 181 44 76 236 292 336 221 202 277 212 194 240 183 171 188 190 235 225 210 176 167 141 132 104 120 88
48 9 -36 154 58 128 109 68 38 96 125 174 224 90 131 145 68 56 75 109 129 116 142 160 196 58 176 236 320 234 233 242 192 261 188 152 216 156 174 188 232 217 148 132 141 108 119 98 98
92 21 31 10 31 81 80 75 166 409 302 166 256 259 200 142 27 10 54 121 148 189 180 325 60 58 175 249 287 252 237 178 212 186 176 189 234 204 164 153 140 173 162 191 168 113 108 111 118
67 36 88 43 57 142 87 57 127 126 62 94 174 110 63 -32 4 34 52 94 124 207 282 456 276 151 213 326 364 352 243 211 222 216 200 261 348 270 185 144 125 154 163 196 155 133 132 114 108
-1 59 15 115 57 15 106 170 30 116 174 153 136 84 45 51 105 55 25 28 99 188 294 393 442 240 314 323 343 368 282 243 241 209 218 291 238 210 155 139 130 134 159 156 145 141 124 123 111

GFSSGP_con_3kmhel_111.txt.gz
Helicity
58 38 70 101 170 187 140 66 67 40 4 66 152 192 144 45 17 112 118 173 150 68 24 56 136 98 70 35 32 47 67 86 81 71 65 67 68 60 41 48 52 54 41 45 46 40 49 59 66
58 77 132 155 212 217 153 0 -104 87 106 230 210 197 238 69 56 59 155 84 92 54 14 62 117 106 75 52 57 63 66 68 63 62 59 66 64 50 47 45 42 44 34 38 54 57 58 56 54
78 128 186 176 184 172 139 -51 -61 -38 101 147 178 191 171 134 85 48 123 95 89 42 40 61 107 100 71 56 49 49 53 56 54 58 60 62 49 49 42 45 45 35 34 49 55 57 55 51 47
77 170 165 212 119 117 97 18 51 -3 57 95 111 130 169 52 128 135 143 118 80 43 55 64 88 85 70 56 54 46 44 41 44 51 53 49 44 47 48 48 40 39 38 47 39 41 51 49 50
114 196 201 188 125 64 -20 43 55 4 19 51 75 108 188 161 114 111 156 135 131 115 93 64 74 77 78 74 64 49 47 44 45 43 44 35 39 43 45 46 42 45 45 41 40 52 60 63 45
213 183 235 181 93 47 20 32 58 41 49 90 124 154 65 165 219 192 275 270 204 153 111 73 69 78 85 79 73 60 55 60 50 44 44 38 38 38 41 42 45 46 59 62 62 64 59 63 41
204 196 188 162 122 60 -20 -39 38 44 112 127 115 139 84 195 200 291 428 396 254 169 138 101 78 61 81 78 77 70 66 70 62 52 49 49 43 44 52 41 40 63 64 86 79 83 75 80 52
180 181 131 109 136 54 26 4 26 -40 173 140 184 163 156 188 272 405 410 351 282 168 134 120 110 79 87 76 87 80 75 74 67 63 59 56 52 53 58 50 50 73 55 100 91 97 102 111 82
152 246 170 113 126 111 13 15 38 28 130 172 104 137 154 212 287 332 349 317 273 179 138 120 123 96 104 96 89 97 80 89 72 76 90 73 64 70 69 72 69 83 74 110 143 131 116 130 87
290 323 144 310 127 74 21 15 52 65 102 150 176 222 207 171 188 259 325 318 281 206 172 134 130 120 114 122 116 106 96 90 92 84 93 95 89 97 88 94 90 99 104 135 158 139 142 149 123
215 199 174 174 96 20 16 3 55 32 117 130 89 179 159 153 135 150 199 248 221 219 204 143 129 116 125 153 143 124 105 95 95 100 101 112 114 116 118 107 121 123 124 165 181 181 181 162 157
185 128 151 125 98 61 71 15 -10 -23 80 101 115 85 129 175 148 128 140 210 259 235 209 181 146 109 134 164 168 123 121 99 110 104 123 124 138 141 133 139 136 139 156 185 190 191 193 183 156
137 59 137 113 102 65 15 54 4 13 99 135 151 110 92 89 140 128 99 154 272 282 222 208 182 162 170 154 157 137 121 105 90 108 122 128 132 144 147 139 125 130 153 189 207 235 228 191 158
154 116 100 124 116 77 123 69 13 28 78 65 150 140 76 77 91 78 78 92 218 292 301 308 234 231 242 172 171 147 165 148 131 142 159 163 141 146 153 150 128 110 132 158 223 252 234 191 170
136 145 125 99 119 133 63 126 93 68 43 121 109 139 117 80 44 68 85 98 115 197 335 388 316 325 260 189 207 200 193 215 202 195 183 164 151 141 145 153 163 168 162 189 255 263 227 196 173
278 276 227 92 102 152 68 124 88 66 80 109 113 126 153 147 54 62 80 97 77 107 234 420 387 374 310 246 267 267 240 261 205 169 197 177 166 158 170 182 175 202 208 206 235 239 182 170 159
317 288 252 106 145 133 121 143 69 106 108 85 108 116 136 125 144 90 104 157 145 69 125 368 478 438 364 322 350 341 265 233 224 176 159 172 175 179 185 185 203 237 208 200 192 183 164 141 143
355 327 238 149 140 113 115 90 106 122 96 90 129 94 90 114 130 153 111 84 95 57 80 286 512 464 422 406 361 322 284 259 245 191 148 174 153 165 201 201 204 222 235 205 178 184 183 157 146
207 234 166 104 59 29 135 94 75 129 118 74 73 56 76 111 96 110 118 102 83 74 94 205 344 448 523 465 362 320 315 292 263 210 145 154 153 141 182 217 196 226 243 204 160 194 168 178 161
110 110 103 132 6 25 45 54 90 10 93 84 81 97 80 128 165 103 121 102 114 84 75 120 238 423 415 423 339 332 376 354 302 250 163 170 163 146 166 234 223 256 289 240 206 183 165 131 118
84 90 67 81 62 83 74 100 56 58 57 144 141 122 76 114 123 114 110 125 110 70 41 125 208 335 412 317 382 415 407 345 373 324 258 222 175 181 177 243 264 286 288 256 201 177 143 121 105
56 18 92 69 110 61 50 189 249 67 65 132 158 92 97 182 262 301 336 291 256 213 138 89 284 281 320 343 329 319 407 377 338 380 343 250 204 206 243 294 295 272 280 248 171 166 130 130 98
28 -12 17 58 143 40 48 156 179 33 7 37 7 147 282 375 430 462 444 363 314 332 313 332 214 223 300 322 299 320 370 317 358 328 265 223 205 240 317 325 318 265 258 224 177 143 116 96 214
8 40 62 96 63 90 51 109 180 101 38 145 367 436 379 381 415 426 382 348 285 239 264 274 298 260 251 326 273 314 352 335 334 276 248 244 226 220 294 325 324 274 254 230 174 128 122 120 144
9 144 87 41 64 97 87 133 83 168 215 306 382 405 383 380 400 386 332 256 209 176 185 202 225 292 359 318 328 346 353 341 313 299 275 275 268 233 259 332 323 276 242 224 178 129 116 126 151
57 196 102 96 44 2 95 84 129 70 405 340 368 389 369 360 320 261 230 124 99 116 108 227 285 294 290 182 317 327 363 382 325 273 280 265 230 207 220 288 291 264 243 240 172 151 106 108 127
102 115 119 79 40 60 81 135 87 178 366 301 366 413 405 279 151 164 120 81 80 95 163 115 109 141 279 163 304 371 396 382 354 281 250 256 222 215 213 269 257 250 229 241 165 128 117 113 89
140 141 85 56 31 35 30 104 133 354 462 461 607 456 292 242 141 71 85 79 98 123 158 241 211 204 66 151 257 356 404 366 347 312 276 225 199 187 195 207 216 251 235 229 169 144 119 116 127
202 110 84 -19 40 13 92 39 68 167 114 123 301 204 169 149 117 128 146 108 92 130 166 233 284 405 323 217 325 318 356 354 380 298 273 226 216 191 163 210 198 214 201 194 169 139 124 116 109
120 81 65 -22 -80 13 145 203 143 150 71 115 132 140 95 104 171 202 222 164 115 99 192 225 299 380 456 300 375 317 332 358 349 267 341 284 270 208 192 191 207 179 171 177 165 172 125 107 133

GFSSGP_con_3kmhel_114.txt.gz
Helicity
63 88 110 153 175 206 168 115 92 12 62 1 -1 24 124 214 189 223 95 68 130 118 52 57 92 100 109 107 85 73 76 84 92 108 107 104 90 75 68 60 54 52 56 63 61 63 62 61 59
75 99 155 174 202 231 184 99 -3 67 148 145 -9 73 162 244 172 103 93 115 84 105 48 30 67 108 117 114 86 79 83 92 94 82 86 80 72 65 62 58 58 47 50 50 56 55 58 59 52
92 114 162 181 193 239 158 94 40 50 23 3 12 106 170 156 173 68 62 82 97 82 18 16 59 118 128 118 106 87 69 62 65 68 70 62 59 57 52 49 46 40 45 44 49 51 54 56 49
125 178 194 231 171 189 167 61 49 62 83 61 13 61 136 61 -15 52 92 113 117 59 35 32 42 103 109 99 85 69 61 54 59 58 57 50 48 52 45 37 41 38 48 49 43 44 42 44 44
163 199 216 254 132 186 128 47 39 127 86 44 35 84 109 126 104 116 76 97 128 75 53 20 47 99 103 98 88 78 58 51 55 55 51 44 45 49 39 35 34 38 48 51 46 49 43 39 41
201 212 253 226 155 160 98 20 36 67 31 52 24 92 140 161 247 114 97 113 146 122 83 34 52 95 102 107 86 84 70 59 53 54 51 49 49 43 39 41 40 43 48 62 54 48 54 47 43
257 248 248 237 238 168 99 35 19 58 91 43 57 126 173 256 181 152 166 176 191 182 131 84 70 73 82 91 92 86 88 78 65 57 55 56 60 46 49 51 57 46 51 74 68 67 50 41 35
234 266 253 226 196 90 59 17 14 47 113 119 136 166 269 208 276 325 295 249 214 179 182 135 103 80 69 71 94 88 93 89 67 82 62 56 57 56 52 64 73 65 64 85 64 68 47 37 52
238 323 201 316 316 252 137 58 16 -1 49 113 95 142 169 341 383 421 380 297 224 186 187 166 143 107 87 88 70 76 93 92 83 78 83 67 47 54 54 67 86 78 88 82 72 70 70 53 78
313 345 270 408 193 158 124 5 -6 23 59 69 60 223 237 408 428 434 354 264 218 196 173 165 149 143 127 107 89 76 86 91 98 96 95 90 62 53 65 79 97 93 111 96 87 86 98 95 109
330 241 278 207 272 182 90 9 24 39 100 104 92 124 187 346 375 348 252 212 177 193 210 153 146 152 160 139 110 103 99 104 107 116 117 102 90 73 88 117 130 124 142 142 124 120 119 108 106
243 157 197 118 167 150 112 85 -23 -62 60 62 -16 95 198 233 268 236 224 207 282 239 207 198 177 163 155 161 142 124 125 121 126 114 120 136 115 110 108 138 148 146 162 173 141 115 115 104 97
235 137 115 110 154 122 64 36 10 -3 53 83 58 104 174 196 199 214 219 173 212 213 221 217 233 227 204 176 159 147 129 130 128 126 120 143 138 125 137 126 148 150 163 172 150 133 125 126 110
277 216 124 86 81 138 116 72 72 -60 -107 30 43 60 56 148 89 171 232 170 218 199 236 245 202 190 221 219 192 170 138 135 128 124 111 130 134 138 151 152 136 139 148 166 173 163 159 142 133
204 181 140 142 112 165 152 108 65 20 -59 41 61 50 69 64 107 126 130 231 196 214 247 292 262 233 208 205 205 200 176 166 147 126 118 123 136 151 160 182 158 135 140 165 189 188 192 178 154
252 281 288 66 174 172 181 160 23 72 42 53 101 81 50 42 76 92 101 120 140 160 241 276 282 274 271 248 217 198 209 199 181 171 145 141 140 167 179 193 184 172 179 177 196 202 192 166 145
244 330 263 72 120 125 171 133 -11 35 107 68 121 136 73 72 67 86 95 96 96 137 159 256 307 301 286 283 271 246 257 260 221 211 190 171 148 152 175 186 187 215 237 238 236 217 199 189 142
278 207 146 130 49 129 175 119 4 85 117 110 107 139 139 115 99 61 92 103 69 122 151 199 278 296 347 351 356 345 296 256 244 244 227 200 165 172 182 197 219 246 249 268 249 227 195 182 168
116 89 107 76 62 144 142 142 59 57 72 70 112 124 142 142 142 92 90 114 198 190 209 220 252 238 386 471 395 348 282 303 292 272 252 217 194 185 202 202 228 269 278 262 246 231 202 203 162
107 102 69 34 36 38 66 100 -20 19 59 77 51 102 115 145 107 75 101 93 52 31 46 194 192 254 378 487 427 390 378 315 279 291 237 217 191 188 203 209 222 254 261 263 264 271 246 219 225
81 100 86 50 27 -7 16 31 29 62 -7 49 25 42 87 92 61 212 405 386 310 231 234 83 154 263 306 389 503 512 491 361 288 218 215 225 195 178 190 198 226 249 259 227 214 246 250 234 216
23 -55 70 18 63 61 22 7 9 84 104 50 61 76 115 176 338 424 504 494 462 439 405 389 253 158 216 390 498 522 458 408 300 289 289 293 209 185 194 206 215 245 259 252 225 233 230 257 205
51 70 53 8 73 27 3 20 -148 103 82 104 98 273 456 520 524 583 534 467 476 451 405 425 445 327 197 208 345 523 409 343 371 337 369 337 267 202 203 212 237 250 282 264 285 252 225 209 190
1 -1 49 62 53 46 62 59 -28 116 179 160 277 346 428 495 569 557 555 510 477 437 385 366 342 315 394 248 137 192 277 344 393 340 351 389 271 249 224 222 251 258 269 284 278 225 205 196 175
-24 12 29 18 52 18 -2 55 72 88 223 380 479 553 494 519 595 633 638 577 482 416 332 226 298 363 378 323 221 148 200 297 354 363 318 380 333 286 265 284 280 291 263 281 269 225 196 177 145
21 42 47 17 14 43 59 47 109 74 140 519 603 646 729 720 600 508 437 382 343 286 220 180 193 248 324 303 200 153 192 376 343 338 358 357 311 279 296 305 274 275 265 269 260 233 192 161 141
6 -36 48 16 47 45 55 64 234 338 440 235 295 438 600 644 563 496 465 383 353 304 257 222 237 287 310 315 247 141 186 353 362 355 331 315 263 237 284 291 267 246 245 266 259 222 172 150 153
-37 60 30 65 19 25 35 149 150 278 284 557 509 466 465 483 422 396 348 341 294 205 154 127 124 160 312 376 351 146 258 327 391 363 312 293 262 207 229 235 241 220 225 235 243 201 157 160 127
39 36 45 -13 -58 -23 31 146 188 151 277 79 484 666 490 493 377 373 325 277 230 208 164 141 171 203 279 313 321 142 153 278 419 359 312 330 278 165 198 215 209 221 185 203 215 194 169 159 131
36 32 32 -46 -70 -115 1 157 194 162 164 109 69 465 400 339 308 266 286 279 285 273 256 234 250 235 244 301 287 241 243 251 327 311 279 321 287 205 180 213 172 184 174 202 205 200 173 170 154

GFSSGP_con_3kmhel_117.txt.gz
Helicity
72 111 117 147 168 211 191 141 102 55 72 63 61 101 53 45 133 179 97 85 140 108 41 34 80 122 165 173 146 160 158 151 146 141 143 127 104 80 67 64 57 57 61 72 72 67 64 59 56
71 100 157 156 186 248 212 202 110 69 70 125 133 61 28 33 92 97 192 78 129 92 74 38 63 104 151 178 155 149 149 152 148 140 136 108 99 78 65 60 48 49 51 57 61 64 65 64 58
92 132 145 159 194 236 156 152 98 56 39 86 147 55 18 19 86 77 86 100 140 97 67 51 65 83 116 168 168 156 163 173 156 130 109 99 96 78 66 59 55 49 52 57 64 68 70 64 60
125 170 195 218 168 152 127 82 70 79 55 36 71 153 54 35 71 40 106 136 94 59 51 64 75 86 93 151 156 153 142 135 123 109 101 93 90 82 68 62 66 58 49 56 65 66 62 60 51
202 222 204 213 164 184 157 48 48 59 68 60 82 155 114 76 128 122 97 78 92 64 50 72 71 80 65 116 119 121 117 118 103 108 91 86 84 82 70 68 76 71 53 62 69 56 53 43 39
256 235 266 212 199 211 142 49 47 63 54 58 98 93 73 106 158 136 113 102 94 109 89 69 41 51 51 89 95 105 110 107 102 107 99 82 78 76 70 66 81 72 57 60 66 56 48 37 44
246 267 257 192 172 159 105 54 80 48 17 68 83 181 122 91 141 180 158 137 107 144 126 74 46 25 55 73 79 82 91 100 107 96 98 92 82 73 63 68 77 75 66 76 65 51 52 28 61
212 236 228 191 109 68 137 122 66 56 37 55 44 123 116 98 273 314 291 209 178 144 112 96 63 51 73 65 67 66 70 96 96 97 92 98 90 79 61 66 68 80 76 86 77 61 50 43 65
207 262 104 188 180 203 196 103 68 55 48 66 34 95 50 346 425 373 319 250 225 175 117 98 95 85 101 85 61 67 57 72 85 95 100 110 102 95 80 64 67 82 87 88 90 65 54 80 67
250 270 177 303 160 106 115 94 44 -39 -17 -32 43 95 115 395 391 345 296 226 196 170 123 106 117 131 133 112 90 75 67 65 59 82 107 115 117 108 113 78 74 83 91 96 101 85 96 104 77
259 194 264 167 144 129 106 113 59 42 -18 32 40 122 141 294 337 295 233 215 153 164 164 130 140 160 162 132 120 108 93 80 49 67 114 120 137 129 133 127 92 96 100 109 118 134 130 108 97
185 193 187 120 55 71 80 62 63 -6 -76 3 48 78 110 119 378 288 230 187 210 190 136 153 168 187 182 183 140 137 129 109 80 59 98 140 152 147 140 150 132 130 117 135 137 126 119 112 97
181 155 112 117 83 62 70 48 44 12 -117 -26 58 49 142 106 127 275 202 163 198 188 170 175 220 207 225 226 184 172 153 146 113 95 90 129 147 152 151 148 152 152 152 137 120 103 118 129 113
285 250 202 142 142 115 137 73 149 -74 0 -64 0 30 62 177 96 192 192 179 199 148 172 225 193 223 227 206 198 176 176 180 175 137 112 122 139 157 155 164 156 152 170 152 117 97 116 126 137
274 268 201 102 113 112 139 131 143 20 88 8 18 43 24 83 100 130 151 167 162 187 163 201 209 225 224 211 220 208 189 206 196 176 149 132 131 155 169 169 168 146 161 149 122 106 112 139 160
362 327 353 278 264 222 114 201 69 63 69 42 23 47 -4 76 116 107 155 180 178 155 194 198 216 210 196 213 232 232 210 217 194 203 179 148 134 142 169 172 171 166 173 164 148 142 133 135 160
387 427 417 260 177 177 210 269 124 3 50 57 20 35 5 60 122 97 116 127 131 125 186 210 267 263 231 217 222 203 200 217 206 214 199 171 152 146 166 172 173 192 186 171 181 172 161 167 162
258 288 257 274 186 201 258 253 152 58 61 86 54 44 51 81 150 98 85 136 98 115 154 195 272 236 280 311 276 277 257 193 220 220 216 202 174 172 170 181 199 216 202 194 205 198 194 183 166
199 194 219 175 115 119 139 184 140 64 54 81 79 74 77 106 121 123 100 101 128 194 211 218 229 209 331 359 368 320 296 251 215 214 219 219 189 184 189 178 195 208 213 227 232 222 219 211 200
79 131 167 107 52 75 37 111 92 141 100 79 70 82 80 90 84 74 130 179 217 230 249 209 230 206 289 323 334 369 313 312 298 304 235 210 222 210 220 212 194 205 220 234 244 253 243 232 241
68 105 70 66 85 98 93 123 85 58 73 48 10 71 90 79 114 117 80 210 313 307 382 296 124 137 220 233 307 452 428 401 349 239 221 189 250 235 226 235 217 213 217 227 252 238 232 240 242
95 47 10 -12 60 72 81 149 110 63 33 29 59 109 167 240 327 388 386 389 531 513 416 420 438 306 174 201 244 297 349 404 273 298 302 292 309 284 241 258 258 220 214 206 237 238 206 228 248
109 10 19 71 59 93 107 115 26 90 22 55 260 303 374 479 528 631 512 431 521 600 549 452 472 432 399 352 240 249 243 219 186 295 290 341 273 262 257 275 281 247 229 190 204 199 199 243 264
39 25 -1 83 53 49 92 52 11 79 151 207 383 512 473 514 626 624 578 552 595 618 599 514 483 458 381 346 343 217 240 265 271 278 213 282 282 294 260 294 270 254 248 255 234 217 227 240 265
25 -5 10 36 51 23 38 37 44 -27 97 301 443 553 580 537 603 691 701 677 583 572 571 504 463 383 355 338 300 265 186 231 258 256 86 174 262 299 294 311 265 248 256 267 264 251 251 250 232
-7 -3 -21 -4 -9 46 52 26 44 167 197 285 384 471 596 559 549 586 592 598 581 563 519 459 409 394 367 317 275 256 201 199 207 226 230 283 284 310 379 331 252 227 251 252 242 261 268 240 218
-27 3 30 -7 -15 24 18 30 177 247 204 172 386 554 607 565 535 496 476 469 441 424 402 355 329 303 335 374 303 258 194 171 229 218 268 280 289 317 393 342 278 253 249 265 253 267 253 222 204
-3 -14 -30 -9 2 81 24 34 -22 80 144 221 257 386 617 666 568 576 581 487 403 331 324 312 258 208 220 265 302 283 301 160 191 257 246 259 278 321 340 298 270 272 251 271 256 251 248 218 182
-28 -61 -26 -23 -39 38 17 -30 61 124 69 230 247 345 474 574 506 511 520 417 328 282 294 310 331 292 268 281 308 288 302 173 190 271 281 270 310 300 267 254 237 218 245 266 241 232 234 203 168
-30 6 -10 -49 -14 -44 -53 -52 14 101 77 90 250 188 294 484 366 369 406 376 320 299 292 308 321 271 261 263 270 263 279 368 151 198 222 262 286 271 223 221 222 216 200 257 213 209 213 182 163

GFSSGP_con_3kmhel_120.txt.gz
Helicity
71 86 98 128 152 201 186 108 85 56 55 19 66 100 111 74 99 95 38 127 178 182 79 50 86 122 166 215 244 235 203 179 182 171 156 149 145 126 105 95 83 73 69 67 76 68 62 60 67
67 87 144 145 160 173 100 69 73 39 49 51 85 97 95 114 73 59 127 140 109 209 88 46 86 110 163 188 214 223 208 185 179 164 152 158 139 122 95 84 66 52 55 54 70 66 63 67 77
87 126 135 146 177 192 100 84 28 46 46 38 88 76 101 83 50 39 72 122 153 171 87 53 88 106 144 167 182 205 213 197 182 175 168 148 137 119 100 74 55 49 64 59 55 62 62 68 75
133 174 205 212 157 109 116 78 40 40 40 28 36 124 83 41 37 61 92 159 162 119 73 66 95 105 122 143 158 188 203 201 181 167 161 142 132 117 105 75 64 57 61 66 62 64 61 59 60
189 206 208 232 195 195 126 44 48 46 44 77 61 78 134 68 55 91 125 122 122 94 63 76 99 101 101 117 134 166 175 166 153 154 151 148 136 120 106 86 66 64 72 85 83 71 56 47 49
240 234 250 222 203 141 80 30 42 39 44 84 48 76 54 68 57 108 123 132 109 118 83 86 85 87 77 92 102 134 139 128 128 141 148 150 143 133 117 92 75 75 89 96 93 76 53 52 56
219 240 217 206 149 93 51 14 35 -1 26 51 26 101 82 143 105 116 140 147 141 137 120 90 75 66 64 63 69 102 107 102 104 116 133 144 141 136 124 111 88 81 87 88 87 75 51 56 62
194 204 232 176 103 29 23 46 49 32 8 25 12 130 119 61 132 259 215 198 152 119 96 91 80 78 56 33 41 76 89 83 84 85 109 129 129 130 125 116 99 84 85 93 96 79 70 74 62
158 226 208 150 131 95 30 55 58 12 34 31 41 104 36 14 222 261 298 212 130 107 103 98 95 48 38 23 28 68 76 77 75 69 83 117 117 120 120 108 107 94 85 96 101 87 83 84 56
186 221 176 143 115 81 95 114 37 -33 -0 -21 2 54 18 -46 145 203 267 186 156 107 113 124 96 75 50 30 48 74 67 70 77 74 84 95 106 120 119 115 109 100 100 92 104 93 98 95 75
185 239 228 184 170 130 71 67 58 -7 -57 -39 54 25 14 48 99 93 168 267 197 174 144 113 133 106 75 77 76 91 77 71 89 95 103 96 107 120 134 136 136 126 127 127 124 133 107 86 86
181 164 154 144 125 91 46 30 26 1 11 10 -29 48 64 117 157 109 -47 111 197 174 135 162 136 132 107 119 119 109 106 88 76 101 128 124 115 121 130 149 152 156 145 160 152 123 90 88 85
168 156 151 169 162 103 97 78 61 16 10 -29 -19 -19 46 75 128 159 -25 29 69 161 146 119 140 142 154 168 170 130 108 119 80 107 134 136 134 119 119 134 162 171 170 160 163 129 101 89 74
197 131 105 76 103 91 88 64 117 55 80 75 44 14 14 83 86 140 63 35 48 82 102 140 141 149 232 219 186 171 143 124 112 118 122 142 155 140 116 136 153 174 181 166 152 124 108 90 87
140 101 84 60 105 175 227 99 192 47 12 40 55 17 46 45 55 89 110 65 67 94 130 132 150 181 212 203 215 226 194 181 168 148 145 142 158 165 142 135 143 160 183 185 156 135 134 117 112
165 154 111 318 246 115 97 69 84 78 89 64 84 67 14 55 60 60 88 134 120 93 163 150 187 168 167 193 241 227 222 215 206 206 180 167 155 177 183 151 128 163 181 180 170 161 159 139 123
257 160 155 30 124 144 72 185 36 85 105 167 168 169 101 94 48 39 91 134 159 102 142 197 213 195 180 173 225 233 201 202 192 206 186 170 167 180 192 166 147 168 171 174 175 165 165 162 139
60 99 136 92 -19 60 64 111 150 143 118 115 144 141 178 118 122 59 100 132 112 117 176 208 232 212 218 239 230 214 231 182 191 186 192 195 188 182 193 183 176 173 159 164 178 173 170 158 139
98 71 73 80 84 125 99 97 126 195 242 132 156 152 175 158 106 135 115 78 108 143 183 165 144 196 287 280 271 228 202 234 195 171 175 222 217 201 193 183 184 181 158 166 154 184 191 184 183
40 114 97 70 67 82 98 70 113 110 153 102 167 151 127 162 122 116 228 210 232 193 193 184 135 160 215 250 260 297 264 228 212 223 189 225 239 223 219 205 192 178 169 175 172 216 207 192 230
82 49 81 129 76 49 71 65 74 34 104 114 63 90 93 130 188 209 247 253 307 285 288 282 237 173 202 232 292 371 346 317 308 245 223 192 190 226 259 260 227 200 178 195 199 209 215 218 180
123 111 67 56 58 52 36 60 55 40 82 127 143 183 251 299 322 337 354 343 313 287 242 269 288 251 245 225 320 310 301 268 231 249 228 193 180 260 294 284 263 241 211 227 234 215 210 227 216
160 97 80 84 33 53 -13 121 21 49 97 45 172 246 316 410 422 437 406 519 492 322 383 309 341 327 376 454 328 256 228 231 224 218 193 214 212 250 234 256 275 225 215 209 257 252 227 205 234
130 117 46 65 105 69 235 113 -8 -52 81 100 154 290 377 466 488 468 503 680 704 679 717 515 463 431 459 451 427 336 180 213 223 201 211 215 263 262 231 251 277 284 277 253 224 224 233 215 212
120 67 12 14 63 90 42 13 17 30 147 84 137 239 356 445 508 474 592 722 773 753 690 575 539 526 450 380 362 333 268 203 149 199 237 259 244 262 167 149 250 303 314 272 258 208 199 190 202
75 91 36 -28 -19 -18 51 41 -15 -14 99 133 158 284 331 428 482 498 535 615 670 659 615 575 459 437 423 376 309 277 218 154 156 123 228 252 244 208 360 123 179 271 343 305 254 237 209 234 234
40 94 78 39 31 119 45 31 22 64 75 159 283 436 480 490 534 527 512 526 514 547 549 519 481 407 370 333 300 274 246 182 86 66 158 169 209 231 250 138 146 241 342 304 267 210 224 263 248
81 -22 -38 43 64 73 -16 -40 -40 20 30 135 313 365 583 570 567 534 532 484 454 423 403 401 391 341 335 329 276 245 250 242 174 71 96 201 193 221 272 266 206 235 298 294 248 229 244 264 254
-3 12 -13 -34 -36 -13 19 -7 -31 4 76 68 158 229 253 428 372 451 374 433 358 326 333 323 318 288 295 304 280 275 291 301 267 188 133 163 253 213 210 210 212 249 256 316 264 255 266 255 242
5 -22 -31 -36 -9 -42 -41 -29 -8 10 54 69 109 121 183 258 402 734 485 521 491 400 384 372 362 300 285 280 288 268 254 255 221 245 301 167 164 216 247 242 188 189 259 290 271 277 265 267 231

GFSSGP_con_3kmhel_123.txt.gz
Helicity
58 64 75 101 79 124 107 28 30 37 32 31 36 78 69 65 85 92 27 56 81 183 221 161 162 112 115 129 150 171 189 199 178 181 165 143 143 145 130 107 88 70 59 52 57 57 52 52 51
63 65 98 119 119 112 68 82 50 30 43 43 31 46 63 99 47 45 13 113 136 163 187 144 172 134 139 139 140 143 167 184 193 183 167 158 160 147 120 110 80 70 62 60 58 60 59 62 58
78 91 105 147 161 112 73 58 25 29 3 48 44 47 64 81 77 40 9 126 158 131 162 155 187 153 148 154 143 141 158 167 192 190 168 163 163 143 119 100 87 66 60 64 60 54 58 64 66
117 130 165 180 141 95 79 51 14 42 24 10 39 107 100 42 54 25 20 75 104 102 100 170 189 154 159 162 141 141 146 161 180 177 163 149 158 145 129 104 85 63 60 53 44 59 68 76 70
161 165 170 204 152 132 66 30 19 30 23 34 51 48 97 44 76 41 22 60 81 86 80 151 171 152 155 163 144 132 135 148 159 157 150 139 148 152 138 106 76 69 61 53 54 58 67 76 62
187 198 192 165 123 91 65 22 34 24 7 34 19 22 37 40 76 58 23 61 62 75 98 124 134 139 145 145 140 124 121 132 138 136 132 132 135 154 132 108 86 70 77 78 61 57 70 66 60
196 202 187 168 136 129 75 36 10 8 5 0 13 40 46 112 48 102 -9 79 98 82 101 106 90 83 112 129 125 113 108 114 119 122 121 117 120 135 123 111 96 79 95 69 64 68 70 64 62
179 200 198 172 120 72 66 51 26 -3 9 27 38 80 88 107 83 46 8 58 111 99 80 99 84 67 72 70 93 85 82 95 106 107 107 110 109 110 113 111 102 88 91 73 67 75 75 65 73
132 177 161 132 90 82 70 94 64 102 62 29 70 72 59 38 -19 31 30 43 96 93 69 62 77 69 80 64 43 58 52 67 93 96 96 103 92 95 101 93 103 101 89 90 77 77 77 79 67
142 176 130 113 96 118 146 138 81 35 72 31 21 65 153 97 39 77 77 48 48 90 100 70 72 78 82 55 42 29 25 33 61 71 87 86 85 96 94 80 96 100 103 95 89 92 103 89 68
168 179 135 172 197 182 151 126 129 44 17 51 96 114 111 176 157 112 126 60 13 85 79 77 79 84 92 69 46 46 34 31 44 59 82 79 91 96 104 96 91 99 114 118 116 120 96 78 76
156 149 188 195 194 151 122 108 61 65 10 7 2 43 48 100 161 148 123 99 -37 47 80 64 49 80 100 109 69 67 59 32 49 55 79 95 100 110 118 117 106 103 116 128 137 113 93 90 84
97 108 124 133 125 98 58 54 47 17 12 -20 -1 -29 -43 -24 48 99 96 133 -14 -53 40 67 80 76 114 119 131 87 109 77 32 60 71 94 102 123 129 121 121 113 113 129 138 122 106 95 100
115 89 94 77 71 31 19 41 93 108 45 13 43 48 3 -4 23 91 98 100 51 -30 6 54 58 79 97 113 154 146 111 120 82 55 75 84 94 121 135 135 128 123 117 117 119 114 108 89 92
65 55 64 23 46 76 112 20 23 76 161 114 125 68 42 7 38 64 84 81 111 2 19 54 76 91 85 110 133 177 118 119 129 103 87 109 105 101 118 130 134 129 133 124 132 119 113 107 111
86 46 46 59 77 112 138 -35 66 30 122 144 157 146 81 72 24 83 113 82 89 62 -5 52 93 117 82 119 132 162 155 130 150 167 139 125 123 129 135 126 118 133 161 173 168 142 134 113 116
70 66 41 32 45 5 29 41 11 122 93 81 80 96 146 117 75 52 85 144 77 80 63 35 75 103 119 127 172 140 121 132 157 193 162 144 150 159 156 139 114 127 154 170 160 149 138 133 121
-12 -46 -58 -73 -73 -10 -18 -24 -6 29 -12 42 72 79 107 149 127 80 108 148 106 88 83 71 101 109 123 148 185 143 111 78 85 123 135 149 167 180 157 146 148 134 151 166 166 151 152 125 113
-21 -2 -2 -30 -6 25 4 3 5 -10 -36 -44 -29 21 71 109 103 103 65 114 130 117 122 22 39 40 129 167 168 145 145 135 95 69 92 126 138 169 154 160 158 153 150 168 177 184 163 141 148
46 21 -103 33 35 18 16 17 -14 -8 26 -9 36 13 43 134 122 87 150 173 231 191 243 177 115 27 80 145 150 186 149 151 139 114 94 114 147 196 172 189 194 179 190 164 181 197 209 173 215
19 55 32 63 36 17 -9 -19 10 14 -2 83 133 181 176 178 144 114 231 266 294 288 294 260 231 215 114 69 138 186 141 126 130 124 121 143 121 135 169 163 181 222 218 202 182 193 168 195 188
24 102 84 78 77 91 85 89 26 13 36 82 65 106 151 183 147 163 255 264 347 345 321 310 225 209 205 142 103 131 181 166 170 180 194 180 133 137 144 206 192 182 221 198 189 194 165 177 187
98 108 54 37 39 15 -17 55 45 3 -7 -2 19 77 103 181 172 163 237 252 306 398 399 350 267 273 280 264 233 147 125 144 140 181 180 195 177 176 180 215 229 221 201 181 213 188 184 193 188
84 49 30 54 62 57 59 -11 65 -48 -93 -53 41 71 136 166 170 179 250 255 293 354 376 393 352 338 334 321 320 313 163 108 120 124 146 148 179 223 236 228 238 214 188 188 227 174 157 192 206
47 36 14 -11 8 29 -25 0 75 -83 -79 -27 20 88 168 135 200 260 306 328 344 402 472 374 409 371 322 352 374 314 301 239 191 94 125 158 187 229 232 269 269 264 231 244 254 227 187 214 209
96 68 6 -65 -22 36 15 -7 -12 -131 -44 92 59 118 284 363 299 317 327 358 403 476 495 542 567 541 460 461 452 400 321 136 171 154 147 123 158 156 141 196 176 190 325 311 212 262 235 237 218
90 81 -13 -4 7 44 -6 17 100 -33 41 93 124 167 325 442 485 479 447 465 501 519 515 516 513 488 433 412 418 365 216 165 149 106 78 107 117 133 135 165 186 182 231 362 196 265 288 291 214
90 73 11 -34 -3 4 -50 -13 -25 14 23 80 140 212 303 418 587 635 557 599 545 492 478 476 449 417 510 381 259 206 244 151 111 75 84 55 70 108 101 102 121 162 218 241 201 247 281 294 238
71 47 -28 -24 -25 -17 28 14 -24 -28 5 41 61 94 148 249 342 638 668 650 601 548 507 415 394 432 464 424 242 168 195 202 208 186 184 182 137 108 114 104 106 122 179 203 208 219 262 274 258
24 21 -23 9 -30 2 -4 43 3 15 16 20 17 49 99 154 219 258 443 596 662 699 642 551 449 424 348 279 302 293 275 331 302 254 251 263 263 122 129 135 120 109 125 159 214 214 249 257 299

GFSSGP_con_3kmhel_126.txt.gz
Helicity
24 21 20 23 31 53 50 13 17 24 36 52 59 68 110 82 82 101 24 10 86 126 131 153 172 169 183 128 97 100 113 127 125 118 126 134 134 128 114 97 67 62 53 42 37 42 40 36 40
54 39 29 70 69 45 33 7 20 61 58 54 36 29 13 85 46 58 44 2 73 89 118 120 168 176 203 142 113 108 113 117 130 133 145 147 140 129 118 98 70 56 54 56 50 50 51 52 55
51 44 58 87 79 36 80 66 43 66 38 24 37 52 80 78 88 42 30 -28 48 88 78 113 174 185 194 147 125 107 111 110 125 150 165 158 144 122 119 94 69 57 54 57 58 60 48 58 63
73 76 101 113 77 94 133 89 43 43 49 35 47 40 69 58 115 83 23 -16 42 66 61 118 169 177 200 150 126 119 103 102 132 163 168 153 137 116 104 94 73 59 56 65 54 51 59 65 65
92 127 101 90 80 111 58 29 34 43 38 51 46 65 63 114 65 38 -8 -1 19 60 45 61 137 180 200 154 125 125 112 104 128 149 153 144 130 110 97 88 71 60 55 51 57 46 62 59 63
98 154 110 71 53 106 64 40 55 40 25 31 41 49 40 57 124 75 50 3 4 26 35 56 122 174 187 149 128 120 110 102 114 129 138 135 129 108 92 81 65 63 54 46 50 49 51 51 54
107 108 84 102 126 115 51 78 58 61 57 41 65 51 61 123 125 61 66 6 15 28 31 70 101 122 157 139 126 115 106 103 101 109 121 126 121 110 95 76 66 64 65 59 42 51 44 46 48
97 115 92 75 67 57 115 77 58 61 63 52 31 98 140 105 106 67 41 21 16 31 38 62 90 105 94 65 85 96 98 92 82 82 97 110 105 99 94 77 61 63 69 58 61 46 52 44 39
92 103 70 44 52 61 132 66 72 50 46 74 78 96 126 54 68 85 64 20 24 23 38 55 79 92 82 63 46 63 70 74 69 61 76 92 68 78 90 64 101 62 62 69 63 58 53 52 54
82 84 96 186 130 131 147 84 55 40 71 66 76 45 85 121 89 122 184 95 44 40 30 55 82 88 73 55 49 34 34 29 28 37 52 50 50 62 68 80 86 60 70 60 75 69 67 47 51
104 91 173 78 151 133 110 83 82 48 27 49 80 75 85 120 159 133 154 168 112 82 35 52 62 79 73 80 70 46 41 33 14 22 39 35 40 51 53 69 68 68 71 67 73 87 57 51 40
73 88 95 124 141 110 82 85 57 49 28 26 20 19 21 35 65 94 115 149 144 65 54 22 60 77 65 72 71 63 62 72 53 20 34 33 37 57 62 62 75 70 86 72 78 70 64 54 47
36 89 116 89 68 57 62 41 34 39 37 26 6 10 13 19 21 51 68 115 106 140 40 12 46 71 67 71 65 53 44 41 65 75 64 56 36 55 69 60 72 80 85 82 73 65 66 67 64
195 112 78 68 51 47 56 51 78 86 89 92 57 40 43 64 75 51 63 81 99 96 94 19 13 52 89 79 66 67 83 66 33 49 66 79 38 52 57 66 97 69 85 77 78 72 64 65 66
77 51 60 54 119 80 59 27 -20 79 58 113 124 121 74 60 71 94 72 102 95 89 99 68 27 14 63 77 83 68 73 81 61 37 39 79 74 86 104 91 87 99 74 82 79 94 77 74 80
49 41 35 30 65 23 10 63 173 195 111 89 39 1 8 -14 17 42 89 91 127 94 111 117 34 18 22 72 87 85 74 90 78 64 51 42 78 84 125 120 107 77 136 121 129 147 120 91 80
8 50 99 72 -33 47 40 61 76 25 22 34 49 67 55 66 47 95 47 58 86 115 95 94 61 26 34 58 87 103 106 96 89 80 84 70 73 79 121 129 123 118 153 159 151 137 116 110 90
79 46 39 11 79 20 15 4 30 -46 -42 -26 6 32 72 103 105 113 174 121 118 150 175 136 108 46 54 80 111 96 112 89 95 105 114 95 96 91 136 127 128 175 151 170 166 139 116 110 100
35 12 -12 19 20 39 15 38 17 5 22 13 38 54 75 129 95 62 114 171 144 182 158 141 128 74 110 109 99 100 113 99 98 94 77 81 110 104 143 120 161 187 170 182 183 188 142 141 117
47 33 -1 -2 24 35 12 55 0 22 53 206 185 106 93 108 114 129 136 193 131 182 117 206 183 94 108 136 114 107 102 112 90 92 81 74 85 90 128 114 143 159 152 158 185 199 215 156 164
5 -28 -39 -23 34 7 111 64 48 39 98 101 89 81 89 66 52 79 105 87 62 122 141 221 287 245 120 143 152 103 78 101 103 80 71 69 78 93 104 97 95 109 147 184 214 209 219 223 189
11 31 33 53 65 52 55 69 -11 74 91 76 18 24 27 31 49 72 83 137 82 98 81 182 287 250 243 196 173 137 191 153 99 84 69 69 88 96 102 98 106 112 164 172 184 182 180 172 201
26 49 43 38 22 38 15 34 29 56 21 -50 -71 -56 9 37 49 54 53 96 137 168 177 188 380 375 332 264 315 256 194 94 68 99 69 83 84 74 91 106 130 177 232 181 209 196 155 118 121
6 32 25 29 17 25 39 24 55 -37 -111 -94 -5 -21 -14 37 80 110 91 85 118 160 218 258 234 368 377 362 372 325 118 121 156 128 65 76 119 143 139 146 185 211 241 227 219 175 150 124 98
25 32 80 53 24 -8 3 -12 145 8 -73 -114 -55 -19 -1 55 108 132 160 140 151 181 238 309 309 341 438 467 380 381 326 243 266 249 211 129 97 104 156 162 199 247 251 230 218 215 256 172 128
58 34 103 -4 -47 -29 -22 42 -3 -59 92 -15 18 -9 23 51 100 193 196 241 247 227 244 277 246 250 344 392 365 354 318 260 208 229 179 162 164 88 102 129 152 189 223 184 159 179 175 265 190
94 50 84 21 19 33 48 34 -54 -11 15 -27 -8 34 66 154 219 338 356 328 335 339 315 362 452 196 269 338 288 284 286 267 250 243 210 188 161 112 82 89 134 162 180 177 198 197 204 248 219
30 24 66 31 -22 -12 41 21 13 -38 -48 -12 13 37 78 113 194 371 495 466 450 401 403 410 386 502 388 277 328 272 292 288 274 262 197 199 135 135 62 58 95 138 174 203 222 300 218 238 233
64 52 41 26 11 0 -6 44 70 31 -9 -15 -3 19 60 107 175 229 530 646 603 541 492 501 493 449 463 500 451 408 333 304 280 269 254 258 156 159 92 55 90 116 150 165 171 236 204 216 171
11 3 26 19 22 -21 2 32 82 80 48 20 15 25 46 70 132 224 278 479 584 627 625 585 590 517 397 290 321 369 308 286 253 278 285 161 9 106 194 250 90 125 157 149 167 159 173 206 182

GFSSGP_con_3kmhel_129.txt.gz
Helicity
-6 -3 2 14 39 55 25 34 22 52 35 129 151 120 134 107 123 62 20 35 27 26 186 152 128 134 134 128 119 82 59 66 75 91 101 107 105 93 62 59 53 43 41 30 30 42 31 26 28
13 21 11 35 52 25 13 44 30 47 149 106 48 45 32 39 43 51 52 6 32 12 128 93 120 147 135 138 146 110 72 68 74 83 105 112 110 98 71 54 48 45 38 41 39 47 49 46 44
22 11 24 52 30 21 25 122 110 141 49 57 56 41 59 50 125 125 105 54 28 7 84 72 125 147 138 143 145 126 91 85 90 93 107 118 115 103 84 58 39 42 41 47 43 54 55 52 57
41 49 69 66 27 6 40 92 82 32 40 50 65 49 68 63 125 120 69 22 1 46 45 137 126 132 154 148 146 128 105 96 108 114 116 115 113 106 91 70 42 40 44 43 57 51 57 54 61
38 68 51 50 33 8 65 70 63 56 68 70 75 77 68 57 114 88 40 3 24 49 61 42 104 109 146 141 141 126 100 97 115 120 122 120 115 102 94 76 49 42 45 49 56 59 46 60 49
49 70 58 46 1 12 82 69 53 81 44 37 22 81 48 71 120 89 41 53 35 42 49 -11 78 84 129 128 131 119 98 103 108 122 121 117 112 101 88 74 56 38 38 48 55 49 53 41 41
36 52 44 48 37 49 65 31 63 96 121 88 187 110 41 119 111 80 20 31 50 38 31 11 39 72 102 106 110 108 97 89 99 111 108 104 95 91 81 65 55 44 33 48 44 54 44 38 33
44 64 38 30 37 35 49 142 80 62 133 135 93 114 107 107 88 99 94 14 34 28 18 32 29 68 79 83 95 92 81 87 90 87 91 89 80 69 67 54 46 48 46 46 40 35 47 40 32
30 58 46 17 22 51 85 81 40 94 64 73 82 96 123 116 85 103 98 141 22 13 28 42 31 64 79 87 99 98 73 71 79 82 82 74 46 54 57 36 74 45 50 50 51 48 41 58 39
38 46 32 72 150 225 213 142 70 81 80 74 66 20 34 120 151 116 101 100 136 70 20 39 43 40 69 71 92 88 78 61 51 48 60 40 29 46 39 44 60 53 56 64 59 57 64 37 44
51 43 96 164 167 162 90 67 71 66 52 75 124 143 105 83 87 113 127 117 86 89 55 31 52 52 57 60 73 76 68 57 48 52 54 40 29 59 28 50 55 36 53 52 67 70 48 41 -2
60 39 81 98 131 102 56 73 61 48 46 45 49 65 56 30 60 104 108 118 145 108 55 48 47 43 70 73 85 70 64 63 50 46 51 48 29 57 47 45 41 42 60 33 61 60 47 41 50
13 17 98 96 50 29 39 32 32 35 24 34 57 90 60 65 106 115 144 143 123 143 80 75 64 69 72 85 97 87 64 66 48 50 67 45 27 36 54 41 36 62 51 30 77 35 72 71 57
174 88 60 51 47 49 60 83 60 31 52 136 101 84 97 101 92 90 89 127 158 149 128 69 44 94 75 80 101 110 81 80 69 67 56 59 36 48 59 47 54 67 54 56 56 39 98 64 69
63 55 40 12 170 80 159 49 7 206 259 121 72 55 61 72 65 56 52 71 94 138 118 98 78 45 104 97 93 126 96 91 54 39 36 66 36 46 50 59 49 31 89 55 65 24 74 55 101
31 27 43 186 44 54 62 41 52 159 91 99 101 85 77 85 82 77 71 71 77 101 131 148 78 56 66 121 108 96 118 140 100 62 49 46 29 28 78 53 74 68 61 82 75 86 91 51 107
25 69 117 97 78 143 67 44 52 48 38 13 24 27 28 42 60 64 56 38 83 111 128 144 97 108 79 76 106 121 135 149 115 93 66 46 67 52 78 103 67 109 59 90 92 90 98 80 80
159 130 115 87 110 104 59 23 39 13 10 30 48 90 135 168 168 212 260 245 72 141 157 158 214 226 68 84 101 121 166 151 144 129 83 72 68 85 102 93 105 102 89 128 143 152 116 85 65
68 58 35 55 59 71 20 24 15 10 83 328 312 168 156 233 251 148 148 187 285 208 272 333 251 294 344 121 133 131 170 204 148 147 94 119 88 110 142 146 127 137 145 165 151 167 132 121 97
44 26 24 49 63 16 -15 -0 -21 9 188 195 183 105 86 90 83 91 98 143 242 225 145 188 135 224 267 81 112 128 168 180 169 133 149 153 138 130 144 176 124 145 164 174 173 178 176 123 150
43 44 53 55 30 -64 -66 11 39 33 140 225 205 110 32 44 46 56 56 94 121 150 243 152 163 169 150 420 107 129 165 158 143 129 154 120 124 128 148 156 142 175 160 142 188 186 172 165 184
58 110 50 17 14 45 91 98 108 219 228 224 103 20 -8 9 18 37 93 120 113 83 82 81 182 145 213 271 111 160 156 188 174 166 137 128 116 107 81 85 114 130 127 116 182 211 207 193 200
71 49 13 -0 -2 54 -0 48 184 117 81 22 -38 -26 11 -3 -5 23 66 111 112 86 89 66 132 154 155 185 365 265 139 208 204 200 166 159 132 103 96 71 59 87 116 140 188 223 216 232 204
18 2 -14 10 28 55 57 33 89 67 4 -35 2 17 6 16 3 37 59 89 129 125 112 72 137 151 140 117 323 332 162 190 344 411 218 307 262 199 140 109 96 81 108 167 155 204 215 207 134
12 -15 51 75 84 22 74 50 157 104 19 8 -10 12 15 -23 3 31 59 94 136 197 156 151 159 233 238 170 290 508 345 306 298 448 -35 187 60 130 113 97 117 154 156 172 155 172 192 174 212
70 58 61 121 113 71 -17 98 160 82 69 54 48 33 19 4 -4 33 50 99 133 241 249 255 219 288 315 289 251 439 589 339 268 301 132 37 149 208 143 117 135 152 190 192 186 216 196 191 228
121 46 110 96 32 37 86 141 77 123 44 22 54 45 55 -12 -20 35 94 178 247 313 367 364 311 284 288 344 373 304 410 428 388 414 231 350 219 240 255 177 98 91 142 164 178 167 193 204 224
47 116 105 79 106 77 54 56 180 52 -15 18 46 47 45 11 36 50 116 216 307 368 425 430 470 369 285 252 281 241 282 248 297 234 261 275 226 194 205 246 148 65 61 105 138 149 144 186 241
74 76 61 36 64 32 -16 113 119 20 -18 17 33 42 2 3 22 70 120 188 332 337 437 527 601 574 345 275 237 205 217 222 188 208 246 271 278 312 281 279 322 217 109 44 97 136 162 181 240
64 52 39 75 43 24 55 104 101 56 56 39 38 -1 9 5 25 57 129 164 284 457 577 577 619 596 601 368 241 374 283 242 183 184 142 172 197 211 230 252 323 377 303 315 274 176 172 186 198